<?xml version="1.0" encoding="UTF-8" standalone="no" ?>
<gpx xmlns="http://www.topografix.com/GPX/1/1" xmlns:xsi="http://www.w3.org/2001/XMLSchema-instance" xsi:schemaLocation="http://www.topografix.com/GPX/1/1 http://www.topografix.com/GPX/1/1/gpx.xsd" version="1.1" creator="VisuGPX - https://www.visugpx.com">
  <metadata>
    <name>Barraux - St Hilaire</name>
    <desc><![CDATA[Barraux, St Vincent, Bellechambre, Col de Marcieu, Saint Hilaire.]]></desc>
  </metadata>
  <trk>
    <name><![CDATA[st hil]]></name>
    <desc><![CDATA[<h1>OruxMaps</h1><br /><hr align="center" width="480" style="height: 2px; width: 517px"/><h2>Nom: st hil</h2><br /><p>Temps de départ: 09/01/2013 09:03</p><p>Temps d'arrivée: 09/01/2013 18:18</p><p>Distance: 45,9 km (09:14)</p><p>Temps déplacement: 08:05</p><p>Vitesse moyenne: 5 km/h</p><p>Vitesse moyenne: 5,7 km/h</p><p>Vitess Max.: 54,4 km/h</p><p>Altitude minimale: 308 m</p><p>Altitude maximale: 1335 m</p><p>Vitesse d'élévation: 968,3 m/h</p><p>Vitesse de descente: -1698,1 m/h</p><p>Gain Altitude: 2445 m</p><p>Perte Altitude: -2371 m</p><p>Temps d'élévation: 02:31</p><p>Temps de descente: 01:23</p><hr align="center" width="480" style="height: 2px; width: 517px"/>]]></desc>
    <trkseg>
      <trkpt lat="45.42914" lon="5.98396">
        <ele>328.01</ele>
        <time>2013-09-01T07:03:45Z</time>
      </trkpt>
      <trkpt lat="45.42921" lon="5.98372">
        <ele>322.78</ele>
        <time>2013-09-01T07:04:22Z</time>
      </trkpt>
      <trkpt lat="45.42932" lon="5.9835">
        <ele>316.24</ele>
        <time>2013-09-01T07:04:31Z</time>
      </trkpt>
      <trkpt lat="45.42943" lon="5.98327">
        <ele>318.22</ele>
        <time>2013-09-01T07:04:37Z</time>
      </trkpt>
      <trkpt lat="45.42958" lon="5.98304">
        <ele>313.77</ele>
        <time>2013-09-01T07:04:46Z</time>
      </trkpt>
      <trkpt lat="45.42971" lon="5.98281">
        <ele>315.28</ele>
        <time>2013-09-01T07:04:51Z</time>
      </trkpt>
      <trkpt lat="45.42983" lon="5.98262">
        <ele>316.52</ele>
        <time>2013-09-01T07:04:56Z</time>
      </trkpt>
      <trkpt lat="45.42995" lon="5.98243">
        <ele>318.89</ele>
        <time>2013-09-01T07:05:01Z</time>
      </trkpt>
      <trkpt lat="45.43007" lon="5.98219">
        <ele>320.56</ele>
        <time>2013-09-01T07:05:06Z</time>
      </trkpt>
      <trkpt lat="45.43017" lon="5.98196">
        <ele>319.6</ele>
        <time>2013-09-01T07:05:11Z</time>
      </trkpt>
      <trkpt lat="45.43028" lon="5.98175">
        <ele>320.85</ele>
        <time>2013-09-01T07:05:16Z</time>
      </trkpt>
      <trkpt lat="45.43015" lon="5.98154">
        <ele>324.58</ele>
        <time>2013-09-01T07:05:24Z</time>
      </trkpt>
      <trkpt lat="45.42994" lon="5.98153">
        <ele>324.41</ele>
        <time>2013-09-01T07:05:28Z</time>
      </trkpt>
      <trkpt lat="45.42972" lon="5.98152">
        <ele>324.91</ele>
        <time>2013-09-01T07:05:32Z</time>
      </trkpt>
      <trkpt lat="45.42949" lon="5.9815">
        <ele>325.92</ele>
        <time>2013-09-01T07:05:36Z</time>
      </trkpt>
      <trkpt lat="45.42926" lon="5.98141">
        <ele>326.92</ele>
        <time>2013-09-01T07:05:40Z</time>
      </trkpt>
      <trkpt lat="45.42907" lon="5.98133">
        <ele>326.05</ele>
        <time>2013-09-01T07:05:43Z</time>
      </trkpt>
      <trkpt lat="45.4289" lon="5.98121">
        <ele>328.56</ele>
        <time>2013-09-01T07:05:46Z</time>
      </trkpt>
      <trkpt lat="45.42872" lon="5.98103">
        <ele>328.8</ele>
        <time>2013-09-01T07:05:50Z</time>
      </trkpt>
      <trkpt lat="45.42857" lon="5.98081">
        <ele>325.47</ele>
        <time>2013-09-01T07:05:54Z</time>
      </trkpt>
      <trkpt lat="45.42841" lon="5.98062">
        <ele>324.96</ele>
        <time>2013-09-01T07:05:58Z</time>
      </trkpt>
      <trkpt lat="45.42821" lon="5.98045">
        <ele>320.9</ele>
        <time>2013-09-01T07:06:02Z</time>
      </trkpt>
      <trkpt lat="45.42802" lon="5.98031">
        <ele>316.4</ele>
        <time>2013-09-01T07:06:06Z</time>
      </trkpt>
      <trkpt lat="45.42783" lon="5.98015">
        <ele>312.78</ele>
        <time>2013-09-01T07:06:11Z</time>
      </trkpt>
      <trkpt lat="45.42762" lon="5.98001">
        <ele>311.01</ele>
        <time>2013-09-01T07:06:16Z</time>
      </trkpt>
      <trkpt lat="45.42745" lon="5.9799">
        <ele>308.75</ele>
        <time>2013-09-01T07:06:20Z</time>
      </trkpt>
      <trkpt lat="45.42727" lon="5.97978">
        <ele>308.95</ele>
        <time>2013-09-01T07:06:24Z</time>
      </trkpt>
      <trkpt lat="45.42711" lon="5.97966">
        <ele>312.37</ele>
        <time>2013-09-01T07:06:28Z</time>
      </trkpt>
      <trkpt lat="45.42694" lon="5.97955">
        <ele>316.86</ele>
        <time>2013-09-01T07:06:32Z</time>
      </trkpt>
      <trkpt lat="45.42676" lon="5.97941">
        <ele>320.31</ele>
        <time>2013-09-01T07:06:36Z</time>
      </trkpt>
      <trkpt lat="45.42659" lon="5.97932">
        <ele>330.16</ele>
        <time>2013-09-01T07:06:41Z</time>
      </trkpt>
      <trkpt lat="45.42642" lon="5.97921">
        <ele>335.33</ele>
        <time>2013-09-01T07:06:45Z</time>
      </trkpt>
      <trkpt lat="45.42623" lon="5.97905">
        <ele>341.4</ele>
        <time>2013-09-01T07:06:50Z</time>
      </trkpt>
      <trkpt lat="45.42605" lon="5.97889">
        <ele>343.18</ele>
        <time>2013-09-01T07:06:55Z</time>
      </trkpt>
      <trkpt lat="45.42587" lon="5.97879">
        <ele>342.81</ele>
        <time>2013-09-01T07:06:59Z</time>
      </trkpt>
      <trkpt lat="45.42568" lon="5.97872">
        <ele>339.5</ele>
        <time>2013-09-01T07:07:04Z</time>
      </trkpt>
      <trkpt lat="45.42549" lon="5.97863">
        <ele>332.96</ele>
        <time>2013-09-01T07:07:10Z</time>
      </trkpt>
      <trkpt lat="45.42534" lon="5.97849">
        <ele>326.24</ele>
        <time>2013-09-01T07:07:16Z</time>
      </trkpt>
      <trkpt lat="45.42514" lon="5.9785">
        <ele>319.63</ele>
        <time>2013-09-01T07:07:21Z</time>
      </trkpt>
      <trkpt lat="45.42496" lon="5.97853">
        <ele>313.07</ele>
        <time>2013-09-01T07:07:27Z</time>
      </trkpt>
      <trkpt lat="45.42476" lon="5.97845">
        <ele>321.74</ele>
        <time>2013-09-01T07:07:31Z</time>
      </trkpt>
      <trkpt lat="45.42458" lon="5.97837">
        <ele>323.81</ele>
        <time>2013-09-01T07:07:38Z</time>
      </trkpt>
      <trkpt lat="45.42439" lon="5.97831">
        <ele>318.39</ele>
        <time>2013-09-01T07:07:45Z</time>
      </trkpt>
      <trkpt lat="45.42422" lon="5.97823">
        <ele>314.12</ele>
        <time>2013-09-01T07:07:50Z</time>
      </trkpt>
      <trkpt lat="45.42404" lon="5.97813">
        <ele>321.91</ele>
        <time>2013-09-01T07:07:54Z</time>
      </trkpt>
      <trkpt lat="45.42387" lon="5.97803">
        <ele>328.63</ele>
        <time>2013-09-01T07:07:59Z</time>
      </trkpt>
      <trkpt lat="45.42369" lon="5.97794">
        <ele>341.49</ele>
        <time>2013-09-01T07:08:05Z</time>
      </trkpt>
      <trkpt lat="45.42354" lon="5.97776">
        <ele>341.23</ele>
        <time>2013-09-01T07:08:11Z</time>
      </trkpt>
      <trkpt lat="45.42338" lon="5.97764">
        <ele>340.14</ele>
        <time>2013-09-01T07:08:16Z</time>
      </trkpt>
      <trkpt lat="45.42323" lon="5.9775">
        <ele>339.67</ele>
        <time>2013-09-01T07:08:21Z</time>
      </trkpt>
      <trkpt lat="45.42305" lon="5.97736">
        <ele>334.52</ele>
        <time>2013-09-01T07:08:26Z</time>
      </trkpt>
      <trkpt lat="45.42289" lon="5.97723">
        <ele>330.49</ele>
        <time>2013-09-01T07:08:30Z</time>
      </trkpt>
      <trkpt lat="45.42271" lon="5.97709">
        <ele>330.56</ele>
        <time>2013-09-01T07:08:35Z</time>
      </trkpt>
      <trkpt lat="45.42253" lon="5.97698">
        <ele>334.72</ele>
        <time>2013-09-01T07:08:40Z</time>
      </trkpt>
      <trkpt lat="45.42233" lon="5.97691">
        <ele>344.78</ele>
        <time>2013-09-01T07:08:47Z</time>
      </trkpt>
      <trkpt lat="45.42215" lon="5.97686">
        <ele>346.25</ele>
        <time>2013-09-01T07:08:53Z</time>
      </trkpt>
      <trkpt lat="45.42196" lon="5.9768">
        <ele>345.1</ele>
        <time>2013-09-01T07:08:59Z</time>
      </trkpt>
      <trkpt lat="45.42178" lon="5.9767">
        <ele>348.76</ele>
        <time>2013-09-01T07:09:04Z</time>
      </trkpt>
      <trkpt lat="45.42162" lon="5.97658">
        <ele>350</ele>
        <time>2013-09-01T07:09:08Z</time>
      </trkpt>
      <trkpt lat="45.42145" lon="5.97641">
        <ele>345.85</ele>
        <time>2013-09-01T07:09:13Z</time>
      </trkpt>
      <trkpt lat="45.4213" lon="5.97626">
        <ele>345.41</ele>
        <time>2013-09-01T07:09:18Z</time>
      </trkpt>
      <trkpt lat="45.42111" lon="5.97612">
        <ele>346.72</ele>
        <time>2013-09-01T07:09:23Z</time>
      </trkpt>
      <trkpt lat="45.42092" lon="5.97599">
        <ele>346.63</ele>
        <time>2013-09-01T07:09:28Z</time>
      </trkpt>
      <trkpt lat="45.42075" lon="5.97588">
        <ele>344.46</ele>
        <time>2013-09-01T07:09:32Z</time>
      </trkpt>
      <trkpt lat="45.42058" lon="5.97578">
        <ele>341.72</ele>
        <time>2013-09-01T07:09:36Z</time>
      </trkpt>
      <trkpt lat="45.42038" lon="5.97569">
        <ele>340.21</ele>
        <time>2013-09-01T07:09:41Z</time>
      </trkpt>
      <trkpt lat="45.42019" lon="5.97562">
        <ele>349.26</ele>
        <time>2013-09-01T07:09:45Z</time>
      </trkpt>
      <trkpt lat="45.42" lon="5.97552">
        <ele>353.31</ele>
        <time>2013-09-01T07:09:50Z</time>
      </trkpt>
      <trkpt lat="45.41983" lon="5.97543">
        <ele>349.72</ele>
        <time>2013-09-01T07:09:56Z</time>
      </trkpt>
      <trkpt lat="45.41963" lon="5.97537">
        <ele>346.74</ele>
        <time>2013-09-01T07:10:03Z</time>
      </trkpt>
      <trkpt lat="45.41943" lon="5.97531">
        <ele>348.76</ele>
        <time>2013-09-01T07:10:10Z</time>
      </trkpt>
      <trkpt lat="45.41923" lon="5.97523">
        <ele>355.73</ele>
        <time>2013-09-01T07:10:16Z</time>
      </trkpt>
      <trkpt lat="45.41907" lon="5.97512">
        <ele>356.94</ele>
        <time>2013-09-01T07:10:21Z</time>
      </trkpt>
      <trkpt lat="45.41888" lon="5.975">
        <ele>359.57</ele>
        <time>2013-09-01T07:10:27Z</time>
      </trkpt>
      <trkpt lat="45.4187" lon="5.97495">
        <ele>361.84</ele>
        <time>2013-09-01T07:10:33Z</time>
      </trkpt>
      <trkpt lat="45.4185" lon="5.97489">
        <ele>364.45</ele>
        <time>2013-09-01T07:10:40Z</time>
      </trkpt>
      <trkpt lat="45.4183" lon="5.97486">
        <ele>363.19</ele>
        <time>2013-09-01T07:10:47Z</time>
      </trkpt>
      <trkpt lat="45.41812" lon="5.97479">
        <ele>359.63</ele>
        <time>2013-09-01T07:10:54Z</time>
      </trkpt>
      <trkpt lat="45.41794" lon="5.97473">
        <ele>353.49</ele>
        <time>2013-09-01T07:11:01Z</time>
      </trkpt>
      <trkpt lat="45.41777" lon="5.97463">
        <ele>338.91</ele>
        <time>2013-09-01T07:11:10Z</time>
      </trkpt>
      <trkpt lat="45.41761" lon="5.97449">
        <ele>345.35</ele>
        <time>2013-09-01T07:11:15Z</time>
      </trkpt>
      <trkpt lat="45.41745" lon="5.97436">
        <ele>352.39</ele>
        <time>2013-09-01T07:11:22Z</time>
      </trkpt>
      <trkpt lat="45.41728" lon="5.9742">
        <ele>347.7</ele>
        <time>2013-09-01T07:11:31Z</time>
      </trkpt>
      <trkpt lat="45.41711" lon="5.97413">
        <ele>345.25</ele>
        <time>2013-09-01T07:11:41Z</time>
      </trkpt>
      <trkpt lat="45.41689" lon="5.97406">
        <ele>348.38</ele>
        <time>2013-09-01T07:11:46Z</time>
      </trkpt>
      <trkpt lat="45.41673" lon="5.97394">
        <ele>354.23</ele>
        <time>2013-09-01T07:11:52Z</time>
      </trkpt>
      <trkpt lat="45.41656" lon="5.97385">
        <ele>355.83</ele>
        <time>2013-09-01T07:11:58Z</time>
      </trkpt>
      <trkpt lat="45.41637" lon="5.97376">
        <ele>361.01</ele>
        <time>2013-09-01T07:12:06Z</time>
      </trkpt>
      <trkpt lat="45.41618" lon="5.97369">
        <ele>368.45</ele>
        <time>2013-09-01T07:12:13Z</time>
      </trkpt>
      <trkpt lat="45.416" lon="5.97361">
        <ele>355.51</ele>
        <time>2013-09-01T07:12:23Z</time>
      </trkpt>
      <trkpt lat="45.41582" lon="5.9735">
        <ele>350.24</ele>
        <time>2013-09-01T07:12:33Z</time>
      </trkpt>
      <trkpt lat="45.41566" lon="5.97337">
        <ele>341.57</ele>
        <time>2013-09-01T07:12:41Z</time>
      </trkpt>
      <trkpt lat="45.41548" lon="5.97324">
        <ele>342.97</ele>
        <time>2013-09-01T07:12:49Z</time>
      </trkpt>
      <trkpt lat="45.41533" lon="5.97309">
        <ele>336.59</ele>
        <time>2013-09-01T07:12:56Z</time>
      </trkpt>
      <trkpt lat="45.41518" lon="5.97294">
        <ele>335.27</ele>
        <time>2013-09-01T07:13:03Z</time>
      </trkpt>
      <trkpt lat="45.41502" lon="5.97281">
        <ele>332.58</ele>
        <time>2013-09-01T07:13:08Z</time>
      </trkpt>
      <trkpt lat="45.41485" lon="5.97266">
        <ele>339.63</ele>
        <time>2013-09-01T07:13:13Z</time>
      </trkpt>
      <trkpt lat="45.41465" lon="5.97252">
        <ele>346.15</ele>
        <time>2013-09-01T07:13:19Z</time>
      </trkpt>
      <trkpt lat="45.41448" lon="5.97239">
        <ele>352.76</ele>
        <time>2013-09-01T07:13:23Z</time>
      </trkpt>
      <trkpt lat="45.4143" lon="5.97226">
        <ele>355.33</ele>
        <time>2013-09-01T07:13:29Z</time>
      </trkpt>
      <trkpt lat="45.41412" lon="5.97212">
        <ele>358.05</ele>
        <time>2013-09-01T07:13:34Z</time>
      </trkpt>
      <trkpt lat="45.41393" lon="5.97196">
        <ele>354.9</ele>
        <time>2013-09-01T07:13:40Z</time>
      </trkpt>
      <trkpt lat="45.41376" lon="5.97183">
        <ele>363.7</ele>
        <time>2013-09-01T07:13:46Z</time>
      </trkpt>
      <trkpt lat="45.41359" lon="5.97171">
        <ele>365.34</ele>
        <time>2013-09-01T07:13:52Z</time>
      </trkpt>
      <trkpt lat="45.41341" lon="5.97157">
        <ele>362.58</ele>
        <time>2013-09-01T07:13:58Z</time>
      </trkpt>
      <trkpt lat="45.41322" lon="5.97143">
        <ele>359.45</ele>
        <time>2013-09-01T07:14:04Z</time>
      </trkpt>
      <trkpt lat="45.41306" lon="5.97131">
        <ele>356.61</ele>
        <time>2013-09-01T07:14:09Z</time>
      </trkpt>
      <trkpt lat="45.41288" lon="5.97118">
        <ele>353.62</ele>
        <time>2013-09-01T07:14:14Z</time>
      </trkpt>
      <trkpt lat="45.41271" lon="5.97106">
        <ele>348.96</ele>
        <time>2013-09-01T07:14:19Z</time>
      </trkpt>
      <trkpt lat="45.41252" lon="5.97094">
        <ele>344.59</ele>
        <time>2013-09-01T07:14:25Z</time>
      </trkpt>
      <trkpt lat="45.41234" lon="5.97081">
        <ele>346.79</ele>
        <time>2013-09-01T07:14:31Z</time>
      </trkpt>
      <trkpt lat="45.41218" lon="5.97066">
        <ele>346.44</ele>
        <time>2013-09-01T07:14:36Z</time>
      </trkpt>
      <trkpt lat="45.41199" lon="5.97051">
        <ele>348.16</ele>
        <time>2013-09-01T07:14:41Z</time>
      </trkpt>
      <trkpt lat="45.41185" lon="5.97035">
        <ele>348.28</ele>
        <time>2013-09-01T07:14:46Z</time>
      </trkpt>
      <trkpt lat="45.41169" lon="5.97019">
        <ele>348.44</ele>
        <time>2013-09-01T07:14:52Z</time>
      </trkpt>
      <trkpt lat="45.41151" lon="5.97005">
        <ele>348.07</ele>
        <time>2013-09-01T07:14:59Z</time>
      </trkpt>
      <trkpt lat="45.41136" lon="5.96988">
        <ele>347.95</ele>
        <time>2013-09-01T07:15:05Z</time>
      </trkpt>
      <trkpt lat="45.4112" lon="5.96971">
        <ele>350.57</ele>
        <time>2013-09-01T07:15:12Z</time>
      </trkpt>
      <trkpt lat="45.41105" lon="5.96951">
        <ele>350.4</ele>
        <time>2013-09-01T07:15:18Z</time>
      </trkpt>
      <trkpt lat="45.4109" lon="5.96934">
        <ele>355.49</ele>
        <time>2013-09-01T07:15:24Z</time>
      </trkpt>
      <trkpt lat="45.41075" lon="5.96916">
        <ele>364.65</ele>
        <time>2013-09-01T07:15:30Z</time>
      </trkpt>
      <trkpt lat="45.41058" lon="5.96898">
        <ele>362.46</ele>
        <time>2013-09-01T07:15:35Z</time>
      </trkpt>
      <trkpt lat="45.41042" lon="5.96879">
        <ele>365.02</ele>
        <time>2013-09-01T07:15:41Z</time>
      </trkpt>
      <trkpt lat="45.41024" lon="5.96861">
        <ele>373.45</ele>
        <time>2013-09-01T07:15:45Z</time>
      </trkpt>
      <trkpt lat="45.41007" lon="5.96843">
        <ele>378.51</ele>
        <time>2013-09-01T07:15:50Z</time>
      </trkpt>
      <trkpt lat="45.40992" lon="5.96827">
        <ele>385.69</ele>
        <time>2013-09-01T07:15:56Z</time>
      </trkpt>
      <trkpt lat="45.40979" lon="5.9681">
        <ele>389.49</ele>
        <time>2013-09-01T07:16:01Z</time>
      </trkpt>
      <trkpt lat="45.40963" lon="5.96792">
        <ele>393.93</ele>
        <time>2013-09-01T07:16:07Z</time>
      </trkpt>
      <trkpt lat="45.40948" lon="5.96776">
        <ele>396.06</ele>
        <time>2013-09-01T07:16:12Z</time>
      </trkpt>
      <trkpt lat="45.40932" lon="5.9676">
        <ele>390.63</ele>
        <time>2013-09-01T07:16:20Z</time>
      </trkpt>
      <trkpt lat="45.40915" lon="5.96742">
        <ele>386.58</ele>
        <time>2013-09-01T07:16:30Z</time>
      </trkpt>
      <trkpt lat="45.40897" lon="5.96729">
        <ele>390</ele>
        <time>2013-09-01T07:16:36Z</time>
      </trkpt>
      <trkpt lat="45.4088" lon="5.96721">
        <ele>389.28</ele>
        <time>2013-09-01T07:16:42Z</time>
      </trkpt>
      <trkpt lat="45.40861" lon="5.96718">
        <ele>384.12</ele>
        <time>2013-09-01T07:16:48Z</time>
      </trkpt>
      <trkpt lat="45.40842" lon="5.96723">
        <ele>379.86</ele>
        <time>2013-09-01T07:16:56Z</time>
      </trkpt>
      <trkpt lat="45.40825" lon="5.96729">
        <ele>376.03</ele>
        <time>2013-09-01T07:17:03Z</time>
      </trkpt>
      <trkpt lat="45.40805" lon="5.96723">
        <ele>370.2</ele>
        <time>2013-09-01T07:17:11Z</time>
      </trkpt>
      <trkpt lat="45.40786" lon="5.96716">
        <ele>365.18</ele>
        <time>2013-09-01T07:17:18Z</time>
      </trkpt>
      <trkpt lat="45.40773" lon="5.96695">
        <ele>366.49</ele>
        <time>2013-09-01T07:17:25Z</time>
      </trkpt>
      <trkpt lat="45.40764" lon="5.96671">
        <ele>364.51</ele>
        <time>2013-09-01T07:17:34Z</time>
      </trkpt>
      <trkpt lat="45.40757" lon="5.96643">
        <ele>369.5</ele>
        <time>2013-09-01T07:17:40Z</time>
      </trkpt>
      <trkpt lat="45.40753" lon="5.96616">
        <ele>366.8</ele>
        <time>2013-09-01T07:17:46Z</time>
      </trkpt>
      <trkpt lat="45.40742" lon="5.96594">
        <ele>364.79</ele>
        <time>2013-09-01T07:17:53Z</time>
      </trkpt>
      <trkpt lat="45.40724" lon="5.96586">
        <ele>363.05</ele>
        <time>2013-09-01T07:17:59Z</time>
      </trkpt>
      <trkpt lat="45.40703" lon="5.96586">
        <ele>361.75</ele>
        <time>2013-09-01T07:18:05Z</time>
      </trkpt>
      <trkpt lat="45.40683" lon="5.96587">
        <ele>365.85</ele>
        <time>2013-09-01T07:18:10Z</time>
      </trkpt>
      <trkpt lat="45.40664" lon="5.9658">
        <ele>369.4</ele>
        <time>2013-09-01T07:18:15Z</time>
      </trkpt>
      <trkpt lat="45.40642" lon="5.9658">
        <ele>367.05</ele>
        <time>2013-09-01T07:18:20Z</time>
      </trkpt>
      <trkpt lat="45.40628" lon="5.96602">
        <ele>364.36</ele>
        <time>2013-09-01T07:18:25Z</time>
      </trkpt>
      <trkpt lat="45.40609" lon="5.96621">
        <ele>364.31</ele>
        <time>2013-09-01T07:18:30Z</time>
      </trkpt>
      <trkpt lat="45.40588" lon="5.96641">
        <ele>363.23</ele>
        <time>2013-09-01T07:18:33Z</time>
      </trkpt>
      <trkpt lat="45.40566" lon="5.9666">
        <ele>361.95</ele>
        <time>2013-09-01T07:18:36Z</time>
      </trkpt>
      <trkpt lat="45.40549" lon="5.96677">
        <ele>363.29</ele>
        <time>2013-09-01T07:18:38Z</time>
      </trkpt>
      <trkpt lat="45.40533" lon="5.96695">
        <ele>366.17</ele>
        <time>2013-09-01T07:18:40Z</time>
      </trkpt>
      <trkpt lat="45.40516" lon="5.96715">
        <ele>367.36</ele>
        <time>2013-09-01T07:18:42Z</time>
      </trkpt>
      <trkpt lat="45.405" lon="5.96733">
        <ele>370.08</ele>
        <time>2013-09-01T07:18:44Z</time>
      </trkpt>
      <trkpt lat="45.40473" lon="5.9674">
        <ele>376.43</ele>
        <time>2013-09-01T07:18:46Z</time>
      </trkpt>
      <trkpt lat="45.40459" lon="5.96758">
        <ele>378.19</ele>
        <time>2013-09-01T07:18:48Z</time>
      </trkpt>
      <trkpt lat="45.40443" lon="5.96786">
        <ele>381.7</ele>
        <time>2013-09-01T07:18:51Z</time>
      </trkpt>
      <trkpt lat="45.40433" lon="5.96809">
        <ele>386.99</ele>
        <time>2013-09-01T07:18:54Z</time>
      </trkpt>
      <trkpt lat="45.40426" lon="5.96834">
        <ele>393.85</ele>
        <time>2013-09-01T07:18:57Z</time>
      </trkpt>
      <trkpt lat="45.40419" lon="5.96858">
        <ele>399.9</ele>
        <time>2013-09-01T07:19:00Z</time>
      </trkpt>
      <trkpt lat="45.40407" lon="5.96882">
        <ele>404.5</ele>
        <time>2013-09-01T07:19:04Z</time>
      </trkpt>
      <trkpt lat="45.40387" lon="5.96868">
        <ele>402.91</ele>
        <time>2013-09-01T07:19:10Z</time>
      </trkpt>
      <trkpt lat="45.40371" lon="5.96854">
        <ele>399.69</ele>
        <time>2013-09-01T07:19:14Z</time>
      </trkpt>
      <trkpt lat="45.40351" lon="5.96841">
        <ele>399.21</ele>
        <time>2013-09-01T07:19:19Z</time>
      </trkpt>
      <trkpt lat="45.40333" lon="5.96827">
        <ele>396.8</ele>
        <time>2013-09-01T07:19:24Z</time>
      </trkpt>
      <trkpt lat="45.40317" lon="5.96809">
        <ele>397.69</ele>
        <time>2013-09-01T07:19:29Z</time>
      </trkpt>
      <trkpt lat="45.40298" lon="5.96801">
        <ele>394.74</ele>
        <time>2013-09-01T07:19:33Z</time>
      </trkpt>
      <trkpt lat="45.40279" lon="5.96794">
        <ele>395</ele>
        <time>2013-09-01T07:19:37Z</time>
      </trkpt>
      <trkpt lat="45.40259" lon="5.96785">
        <ele>396.33</ele>
        <time>2013-09-01T07:19:41Z</time>
      </trkpt>
      <trkpt lat="45.40237" lon="5.96776">
        <ele>389.5</ele>
        <time>2013-09-01T07:19:45Z</time>
      </trkpt>
      <trkpt lat="45.40217" lon="5.96767">
        <ele>389.86</ele>
        <time>2013-09-01T07:19:49Z</time>
      </trkpt>
      <trkpt lat="45.40198" lon="5.96759">
        <ele>394.24</ele>
        <time>2013-09-01T07:19:53Z</time>
      </trkpt>
      <trkpt lat="45.40177" lon="5.9675">
        <ele>398.83</ele>
        <time>2013-09-01T07:19:58Z</time>
      </trkpt>
      <trkpt lat="45.40182" lon="5.9678">
        <ele>401.26</ele>
        <time>2013-09-01T07:20:07Z</time>
      </trkpt>
      <trkpt lat="45.40193" lon="5.96802">
        <ele>402.19</ele>
        <time>2013-09-01T07:20:10Z</time>
      </trkpt>
      <trkpt lat="45.40204" lon="5.96824">
        <ele>403.39</ele>
        <time>2013-09-01T07:20:13Z</time>
      </trkpt>
      <trkpt lat="45.40213" lon="5.96856">
        <ele>400.18</ele>
        <time>2013-09-01T07:20:17Z</time>
      </trkpt>
      <trkpt lat="45.40213" lon="5.96887">
        <ele>398.85</ele>
        <time>2013-09-01T07:20:20Z</time>
      </trkpt>
      <trkpt lat="45.40204" lon="5.96914">
        <ele>398.29</ele>
        <time>2013-09-01T07:20:23Z</time>
      </trkpt>
      <trkpt lat="45.40185" lon="5.96923">
        <ele>397.41</ele>
        <time>2013-09-01T07:20:26Z</time>
      </trkpt>
      <trkpt lat="45.40163" lon="5.96923">
        <ele>393.5</ele>
        <time>2013-09-01T07:20:30Z</time>
      </trkpt>
      <trkpt lat="45.40144" lon="5.96919">
        <ele>392.38</ele>
        <time>2013-09-01T07:20:35Z</time>
      </trkpt>
      <trkpt lat="45.40126" lon="5.96913">
        <ele>396.12</ele>
        <time>2013-09-01T07:20:41Z</time>
      </trkpt>
      <trkpt lat="45.40107" lon="5.96906">
        <ele>394.22</ele>
        <time>2013-09-01T07:20:47Z</time>
      </trkpt>
      <trkpt lat="45.40086" lon="5.96897">
        <ele>392.28</ele>
        <time>2013-09-01T07:20:52Z</time>
      </trkpt>
      <trkpt lat="45.40067" lon="5.96888">
        <ele>396.53</ele>
        <time>2013-09-01T07:20:56Z</time>
      </trkpt>
      <trkpt lat="45.4005" lon="5.96881">
        <ele>396.79</ele>
        <time>2013-09-01T07:21:00Z</time>
      </trkpt>
      <trkpt lat="45.40028" lon="5.96872">
        <ele>393.22</ele>
        <time>2013-09-01T07:21:05Z</time>
      </trkpt>
      <trkpt lat="45.40011" lon="5.96863">
        <ele>395.51</ele>
        <time>2013-09-01T07:21:09Z</time>
      </trkpt>
      <trkpt lat="45.39997" lon="5.96846">
        <ele>394.54</ele>
        <time>2013-09-01T07:21:13Z</time>
      </trkpt>
      <trkpt lat="45.39988" lon="5.9682">
        <ele>394.19</ele>
        <time>2013-09-01T07:21:17Z</time>
      </trkpt>
      <trkpt lat="45.39986" lon="5.96792">
        <ele>395.92</ele>
        <time>2013-09-01T07:21:21Z</time>
      </trkpt>
      <trkpt lat="45.3999" lon="5.96765">
        <ele>398.15</ele>
        <time>2013-09-01T07:21:28Z</time>
      </trkpt>
      <trkpt lat="45.39994" lon="5.96738">
        <ele>404.92</ele>
        <time>2013-09-01T07:21:38Z</time>
      </trkpt>
      <trkpt lat="45.39975" lon="5.96732">
        <ele>406.36</ele>
        <time>2013-09-01T07:21:49Z</time>
      </trkpt>
      <trkpt lat="45.39957" lon="5.96731">
        <ele>408.77</ele>
        <time>2013-09-01T07:21:58Z</time>
      </trkpt>
      <trkpt lat="45.39937" lon="5.96732">
        <ele>410.74</ele>
        <time>2013-09-01T07:22:08Z</time>
      </trkpt>
      <trkpt lat="45.39919" lon="5.9673">
        <ele>412.14</ele>
        <time>2013-09-01T07:22:18Z</time>
      </trkpt>
      <trkpt lat="45.399" lon="5.96726">
        <ele>414.98</ele>
        <time>2013-09-01T07:22:27Z</time>
      </trkpt>
      <trkpt lat="45.3988" lon="5.9672">
        <ele>417.68</ele>
        <time>2013-09-01T07:22:37Z</time>
      </trkpt>
      <trkpt lat="45.3986" lon="5.96714">
        <ele>420.99</ele>
        <time>2013-09-01T07:22:46Z</time>
      </trkpt>
      <trkpt lat="45.39843" lon="5.96705">
        <ele>418.4</ele>
        <time>2013-09-01T07:22:55Z</time>
      </trkpt>
      <trkpt lat="45.39824" lon="5.96696">
        <ele>418.95</ele>
        <time>2013-09-01T07:23:04Z</time>
      </trkpt>
      <trkpt lat="45.39807" lon="5.96681">
        <ele>420.78</ele>
        <time>2013-09-01T07:23:13Z</time>
      </trkpt>
      <trkpt lat="45.39789" lon="5.96669">
        <ele>422.21</ele>
        <time>2013-09-01T07:23:22Z</time>
      </trkpt>
      <trkpt lat="45.39772" lon="5.96657">
        <ele>422.79</ele>
        <time>2013-09-01T07:23:31Z</time>
      </trkpt>
      <trkpt lat="45.39753" lon="5.96649">
        <ele>426.1</ele>
        <time>2013-09-01T07:23:39Z</time>
      </trkpt>
      <trkpt lat="45.39734" lon="5.96642">
        <ele>420.24</ele>
        <time>2013-09-01T07:23:47Z</time>
      </trkpt>
      <trkpt lat="45.39716" lon="5.96633">
        <ele>422.22</ele>
        <time>2013-09-01T07:23:54Z</time>
      </trkpt>
      <trkpt lat="45.39699" lon="5.96624">
        <ele>422.8</ele>
        <time>2013-09-01T07:24:01Z</time>
      </trkpt>
      <trkpt lat="45.39679" lon="5.96614">
        <ele>424.41</ele>
        <time>2013-09-01T07:24:08Z</time>
      </trkpt>
      <trkpt lat="45.39662" lon="5.96601">
        <ele>427.83</ele>
        <time>2013-09-01T07:24:15Z</time>
      </trkpt>
      <trkpt lat="45.39648" lon="5.96581">
        <ele>426.53</ele>
        <time>2013-09-01T07:24:21Z</time>
      </trkpt>
      <trkpt lat="45.39643" lon="5.96553">
        <ele>426.31</ele>
        <time>2013-09-01T07:24:26Z</time>
      </trkpt>
      <trkpt lat="45.39648" lon="5.96526">
        <ele>425.5</ele>
        <time>2013-09-01T07:24:30Z</time>
      </trkpt>
      <trkpt lat="45.39655" lon="5.96499">
        <ele>427.6</ele>
        <time>2013-09-01T07:24:34Z</time>
      </trkpt>
      <trkpt lat="45.39666" lon="5.96469">
        <ele>429.22</ele>
        <time>2013-09-01T07:24:38Z</time>
      </trkpt>
      <trkpt lat="45.39673" lon="5.96444">
        <ele>428.01</ele>
        <time>2013-09-01T07:24:41Z</time>
      </trkpt>
      <trkpt lat="45.39685" lon="5.96421">
        <ele>425.4</ele>
        <time>2013-09-01T07:24:44Z</time>
      </trkpt>
      <trkpt lat="45.39668" lon="5.96408">
        <ele>415.94</ele>
        <time>2013-09-01T07:24:50Z</time>
      </trkpt>
      <trkpt lat="45.39646" lon="5.96405">
        <ele>412.01</ele>
        <time>2013-09-01T07:24:54Z</time>
      </trkpt>
      <trkpt lat="45.39628" lon="5.96406">
        <ele>410.48</ele>
        <time>2013-09-01T07:24:59Z</time>
      </trkpt>
      <trkpt lat="45.39611" lon="5.96421">
        <ele>412.55</ele>
        <time>2013-09-01T07:25:08Z</time>
      </trkpt>
      <trkpt lat="45.39593" lon="5.96435">
        <ele>417.95</ele>
        <time>2013-09-01T07:25:13Z</time>
      </trkpt>
      <trkpt lat="45.39574" lon="5.96437">
        <ele>419.97</ele>
        <time>2013-09-01T07:25:16Z</time>
      </trkpt>
      <trkpt lat="45.39556" lon="5.96435">
        <ele>420.84</ele>
        <time>2013-09-01T07:25:20Z</time>
      </trkpt>
      <trkpt lat="45.39537" lon="5.96434">
        <ele>420.73</ele>
        <time>2013-09-01T07:25:24Z</time>
      </trkpt>
      <trkpt lat="45.39517" lon="5.96434">
        <ele>422.48</ele>
        <time>2013-09-01T07:25:28Z</time>
      </trkpt>
      <trkpt lat="45.39499" lon="5.96435">
        <ele>424.7</ele>
        <time>2013-09-01T07:25:32Z</time>
      </trkpt>
      <trkpt lat="45.3948" lon="5.96446">
        <ele>423.39</ele>
        <time>2013-09-01T07:25:37Z</time>
      </trkpt>
      <trkpt lat="45.39459" lon="5.96446">
        <ele>424.38</ele>
        <time>2013-09-01T07:25:41Z</time>
      </trkpt>
      <trkpt lat="45.39441" lon="5.96444">
        <ele>424.42</ele>
        <time>2013-09-01T07:25:44Z</time>
      </trkpt>
      <trkpt lat="45.39421" lon="5.96442">
        <ele>423.81</ele>
        <time>2013-09-01T07:25:48Z</time>
      </trkpt>
      <trkpt lat="45.394" lon="5.96451">
        <ele>422.35</ele>
        <time>2013-09-01T07:25:53Z</time>
      </trkpt>
      <trkpt lat="45.39381" lon="5.96462">
        <ele>423.35</ele>
        <time>2013-09-01T07:25:57Z</time>
      </trkpt>
      <trkpt lat="45.39362" lon="5.96471">
        <ele>424.09</ele>
        <time>2013-09-01T07:26:00Z</time>
      </trkpt>
      <trkpt lat="45.39343" lon="5.9648">
        <ele>424.11</ele>
        <time>2013-09-01T07:26:03Z</time>
      </trkpt>
      <trkpt lat="45.39325" lon="5.96493">
        <ele>422.85</ele>
        <time>2013-09-01T07:26:06Z</time>
      </trkpt>
      <trkpt lat="45.39306" lon="5.9651">
        <ele>421.36</ele>
        <time>2013-09-01T07:26:10Z</time>
      </trkpt>
      <trkpt lat="45.3929" lon="5.96529">
        <ele>421.57</ele>
        <time>2013-09-01T07:26:15Z</time>
      </trkpt>
      <trkpt lat="45.39277" lon="5.9655">
        <ele>421.38</ele>
        <time>2013-09-01T07:26:20Z</time>
      </trkpt>
      <trkpt lat="45.39263" lon="5.96574">
        <ele>418.92</ele>
        <time>2013-09-01T07:26:24Z</time>
      </trkpt>
      <trkpt lat="45.39246" lon="5.96597">
        <ele>417.13</ele>
        <time>2013-09-01T07:26:27Z</time>
      </trkpt>
      <trkpt lat="45.39223" lon="5.96615">
        <ele>415.91</ele>
        <time>2013-09-01T07:26:30Z</time>
      </trkpt>
      <trkpt lat="45.39198" lon="5.96628">
        <ele>412.69</ele>
        <time>2013-09-01T07:26:33Z</time>
      </trkpt>
      <trkpt lat="45.39175" lon="5.96646">
        <ele>407.92</ele>
        <time>2013-09-01T07:26:36Z</time>
      </trkpt>
      <trkpt lat="45.39157" lon="5.96655">
        <ele>404.65</ele>
        <time>2013-09-01T07:26:38Z</time>
      </trkpt>
      <trkpt lat="45.39139" lon="5.9666">
        <ele>402.56</ele>
        <time>2013-09-01T07:26:40Z</time>
      </trkpt>
      <trkpt lat="45.39118" lon="5.96662">
        <ele>400.64</ele>
        <time>2013-09-01T07:26:42Z</time>
      </trkpt>
      <trkpt lat="45.39094" lon="5.96661">
        <ele>398.4</ele>
        <time>2013-09-01T07:26:45Z</time>
      </trkpt>
      <trkpt lat="45.39074" lon="5.9666">
        <ele>395.61</ele>
        <time>2013-09-01T07:26:48Z</time>
      </trkpt>
      <trkpt lat="45.39053" lon="5.96659">
        <ele>389.41</ele>
        <time>2013-09-01T07:26:51Z</time>
      </trkpt>
      <trkpt lat="45.39032" lon="5.96657">
        <ele>389.68</ele>
        <time>2013-09-01T07:26:54Z</time>
      </trkpt>
      <trkpt lat="45.39012" lon="5.96662">
        <ele>394.05</ele>
        <time>2013-09-01T07:26:58Z</time>
      </trkpt>
      <trkpt lat="45.38991" lon="5.96665">
        <ele>394.5</ele>
        <time>2013-09-01T07:27:04Z</time>
      </trkpt>
      <trkpt lat="45.38973" lon="5.96656">
        <ele>392.34</ele>
        <time>2013-09-01T07:27:11Z</time>
      </trkpt>
      <trkpt lat="45.38956" lon="5.96647">
        <ele>387.84</ele>
        <time>2013-09-01T07:27:16Z</time>
      </trkpt>
      <trkpt lat="45.38938" lon="5.96637">
        <ele>388.86</ele>
        <time>2013-09-01T07:27:23Z</time>
      </trkpt>
      <trkpt lat="45.38925" lon="5.96617">
        <ele>382.79</ele>
        <time>2013-09-01T07:27:32Z</time>
      </trkpt>
      <trkpt lat="45.38914" lon="5.96589">
        <ele>386.4</ele>
        <time>2013-09-01T07:27:39Z</time>
      </trkpt>
      <trkpt lat="45.38902" lon="5.96564">
        <ele>389.26</ele>
        <time>2013-09-01T07:27:44Z</time>
      </trkpt>
      <trkpt lat="45.38892" lon="5.96539">
        <ele>386.75</ele>
        <time>2013-09-01T07:27:48Z</time>
      </trkpt>
      <trkpt lat="45.38878" lon="5.96513">
        <ele>381.78</ele>
        <time>2013-09-01T07:27:52Z</time>
      </trkpt>
      <trkpt lat="45.38862" lon="5.96491">
        <ele>382.99</ele>
        <time>2013-09-01T07:27:55Z</time>
      </trkpt>
      <trkpt lat="45.38845" lon="5.96468">
        <ele>382.66</ele>
        <time>2013-09-01T07:27:58Z</time>
      </trkpt>
      <trkpt lat="45.38827" lon="5.96444">
        <ele>385.29</ele>
        <time>2013-09-01T07:28:01Z</time>
      </trkpt>
      <trkpt lat="45.38809" lon="5.96419">
        <ele>385.69</ele>
        <time>2013-09-01T07:28:04Z</time>
      </trkpt>
      <trkpt lat="45.38796" lon="5.96396">
        <ele>386.65</ele>
        <time>2013-09-01T07:28:07Z</time>
      </trkpt>
      <trkpt lat="45.38784" lon="5.96372">
        <ele>389.22</ele>
        <time>2013-09-01T07:28:10Z</time>
      </trkpt>
      <trkpt lat="45.38774" lon="5.9635">
        <ele>390.69</ele>
        <time>2013-09-01T07:28:13Z</time>
      </trkpt>
      <trkpt lat="45.38762" lon="5.96322">
        <ele>389.78</ele>
        <time>2013-09-01T07:28:16Z</time>
      </trkpt>
      <trkpt lat="45.38751" lon="5.96293">
        <ele>389.89</ele>
        <time>2013-09-01T07:28:19Z</time>
      </trkpt>
      <trkpt lat="45.38742" lon="5.96267">
        <ele>389.88</ele>
        <time>2013-09-01T07:28:22Z</time>
      </trkpt>
      <trkpt lat="45.38734" lon="5.96238">
        <ele>387.23</ele>
        <time>2013-09-01T07:28:26Z</time>
      </trkpt>
      <trkpt lat="45.38725" lon="5.96208">
        <ele>387.07</ele>
        <time>2013-09-01T07:28:30Z</time>
      </trkpt>
      <trkpt lat="45.38713" lon="5.9618">
        <ele>384.02</ele>
        <time>2013-09-01T07:28:33Z</time>
      </trkpt>
      <trkpt lat="45.38702" lon="5.96158">
        <ele>382.5</ele>
        <time>2013-09-01T07:28:36Z</time>
      </trkpt>
      <trkpt lat="45.38703" lon="5.96127">
        <ele>382.91</ele>
        <time>2013-09-01T07:28:39Z</time>
      </trkpt>
      <trkpt lat="45.38708" lon="5.9609">
        <ele>381.69</ele>
        <time>2013-09-01T07:28:42Z</time>
      </trkpt>
      <trkpt lat="45.38711" lon="5.96063">
        <ele>381.58</ele>
        <time>2013-09-01T07:28:44Z</time>
      </trkpt>
      <trkpt lat="45.38713" lon="5.96032">
        <ele>381.21</ele>
        <time>2013-09-01T07:28:46Z</time>
      </trkpt>
      <trkpt lat="45.38714" lon="5.96005">
        <ele>381.57</ele>
        <time>2013-09-01T07:28:48Z</time>
      </trkpt>
      <trkpt lat="45.38716" lon="5.9598">
        <ele>382.14</ele>
        <time>2013-09-01T07:28:50Z</time>
      </trkpt>
      <trkpt lat="45.38719" lon="5.95953">
        <ele>380</ele>
        <time>2013-09-01T07:28:53Z</time>
      </trkpt>
      <trkpt lat="45.38718" lon="5.95923">
        <ele>365.86</ele>
        <time>2013-09-01T07:28:59Z</time>
      </trkpt>
      <trkpt lat="45.38705" lon="5.95903">
        <ele>354.2</ele>
        <time>2013-09-01T07:29:03Z</time>
      </trkpt>
      <trkpt lat="45.38687" lon="5.95884">
        <ele>344.89</ele>
        <time>2013-09-01T07:29:06Z</time>
      </trkpt>
      <trkpt lat="45.38664" lon="5.95866">
        <ele>336.1</ele>
        <time>2013-09-01T07:29:09Z</time>
      </trkpt>
      <trkpt lat="45.38645" lon="5.95846">
        <ele>327.3</ele>
        <time>2013-09-01T07:29:12Z</time>
      </trkpt>
      <trkpt lat="45.38633" lon="5.95827">
        <ele>322.24</ele>
        <time>2013-09-01T07:29:14Z</time>
      </trkpt>
      <trkpt lat="45.38619" lon="5.95795">
        <ele>318.12</ele>
        <time>2013-09-01T07:29:17Z</time>
      </trkpt>
      <trkpt lat="45.38615" lon="5.95767">
        <ele>318.33</ele>
        <time>2013-09-01T07:29:19Z</time>
      </trkpt>
      <trkpt lat="45.38619" lon="5.95736">
        <ele>318.65</ele>
        <time>2013-09-01T07:29:22Z</time>
      </trkpt>
      <trkpt lat="45.38624" lon="5.95709">
        <ele>315.78</ele>
        <time>2013-09-01T07:29:25Z</time>
      </trkpt>
      <trkpt lat="45.38619" lon="5.95681">
        <ele>313.55</ele>
        <time>2013-09-01T07:29:33Z</time>
      </trkpt>
      <trkpt lat="45.38608" lon="5.9566">
        <ele>327.24</ele>
        <time>2013-09-01T07:29:40Z</time>
      </trkpt>
      <trkpt lat="45.38596" lon="5.95639">
        <ele>337.27</ele>
        <time>2013-09-01T07:29:46Z</time>
      </trkpt>
      <trkpt lat="45.38577" lon="5.95615">
        <ele>354.28</ele>
        <time>2013-09-01T07:29:56Z</time>
      </trkpt>
      <trkpt lat="45.38565" lon="5.95587">
        <ele>361.87</ele>
        <time>2013-09-01T07:30:06Z</time>
      </trkpt>
      <trkpt lat="45.38562" lon="5.95559">
        <ele>363.75</ele>
        <time>2013-09-01T07:30:16Z</time>
      </trkpt>
      <trkpt lat="45.38569" lon="5.95533">
        <ele>370.02</ele>
        <time>2013-09-01T07:30:24Z</time>
      </trkpt>
      <trkpt lat="45.38577" lon="5.95508">
        <ele>377.97</ele>
        <time>2013-09-01T07:30:32Z</time>
      </trkpt>
      <trkpt lat="45.3858" lon="5.95481">
        <ele>370.3</ele>
        <time>2013-09-01T07:30:42Z</time>
      </trkpt>
      <trkpt lat="45.38587" lon="5.95455">
        <ele>371.99</ele>
        <time>2013-09-01T07:30:50Z</time>
      </trkpt>
      <trkpt lat="45.386" lon="5.95432">
        <ele>372.06</ele>
        <time>2013-09-01T07:30:57Z</time>
      </trkpt>
      <trkpt lat="45.38617" lon="5.95417">
        <ele>373.46</ele>
        <time>2013-09-01T07:31:06Z</time>
      </trkpt>
      <trkpt lat="45.38629" lon="5.95395">
        <ele>373.96</ele>
        <time>2013-09-01T07:31:17Z</time>
      </trkpt>
      <trkpt lat="45.38637" lon="5.9537">
        <ele>372.15</ele>
        <time>2013-09-01T07:31:25Z</time>
      </trkpt>
      <trkpt lat="45.38649" lon="5.95347">
        <ele>366.37</ele>
        <time>2013-09-01T07:31:31Z</time>
      </trkpt>
      <trkpt lat="45.38661" lon="5.95325">
        <ele>361.05</ele>
        <time>2013-09-01T07:31:35Z</time>
      </trkpt>
      <trkpt lat="45.38669" lon="5.95301">
        <ele>359.5</ele>
        <time>2013-09-01T07:31:38Z</time>
      </trkpt>
      <trkpt lat="45.38671" lon="5.95274">
        <ele>354.31</ele>
        <time>2013-09-01T07:31:42Z</time>
      </trkpt>
      <trkpt lat="45.38666" lon="5.95248">
        <ele>354.22</ele>
        <time>2013-09-01T07:31:46Z</time>
      </trkpt>
      <trkpt lat="45.38654" lon="5.95228">
        <ele>349.73</ele>
        <time>2013-09-01T07:31:52Z</time>
      </trkpt>
      <trkpt lat="45.38631" lon="5.9522">
        <ele>333.71</ele>
        <time>2013-09-01T07:31:59Z</time>
      </trkpt>
      <trkpt lat="45.3861" lon="5.95215">
        <ele>326.04</ele>
        <time>2013-09-01T07:32:03Z</time>
      </trkpt>
      <trkpt lat="45.38588" lon="5.95213">
        <ele>321.11</ele>
        <time>2013-09-01T07:32:07Z</time>
      </trkpt>
      <trkpt lat="45.38569" lon="5.95214">
        <ele>323.32</ele>
        <time>2013-09-01T07:32:09Z</time>
      </trkpt>
      <trkpt lat="45.38548" lon="5.95214">
        <ele>328.31</ele>
        <time>2013-09-01T07:32:12Z</time>
      </trkpt>
      <trkpt lat="45.38528" lon="5.95211">
        <ele>325.45</ele>
        <time>2013-09-01T07:32:15Z</time>
      </trkpt>
      <trkpt lat="45.3851" lon="5.95204">
        <ele>325.03</ele>
        <time>2013-09-01T07:32:18Z</time>
      </trkpt>
      <trkpt lat="45.38489" lon="5.95204">
        <ele>320.38</ele>
        <time>2013-09-01T07:32:21Z</time>
      </trkpt>
      <trkpt lat="45.38459" lon="5.95203">
        <ele>327.64</ele>
        <time>2013-09-01T07:32:24Z</time>
      </trkpt>
      <trkpt lat="45.38434" lon="5.95198">
        <ele>339.71</ele>
        <time>2013-09-01T07:32:27Z</time>
      </trkpt>
      <trkpt lat="45.38415" lon="5.95197">
        <ele>346.84</ele>
        <time>2013-09-01T07:32:30Z</time>
      </trkpt>
      <trkpt lat="45.38396" lon="5.95194">
        <ele>353.78</ele>
        <time>2013-09-01T07:32:34Z</time>
      </trkpt>
      <trkpt lat="45.38373" lon="5.95198">
        <ele>357.01</ele>
        <time>2013-09-01T07:32:43Z</time>
      </trkpt>
      <trkpt lat="45.3835" lon="5.95194">
        <ele>359.24</ele>
        <time>2013-09-01T07:32:54Z</time>
      </trkpt>
      <trkpt lat="45.3833" lon="5.9518">
        <ele>361.96</ele>
        <time>2013-09-01T07:33:02Z</time>
      </trkpt>
      <trkpt lat="45.3831" lon="5.95167">
        <ele>364.27</ele>
        <time>2013-09-01T07:33:11Z</time>
      </trkpt>
      <trkpt lat="45.38292" lon="5.95164">
        <ele>359.66</ele>
        <time>2013-09-01T07:33:20Z</time>
      </trkpt>
      <trkpt lat="45.38277" lon="5.95178">
        <ele>355.97</ele>
        <time>2013-09-01T07:33:23Z</time>
      </trkpt>
      <trkpt lat="45.38262" lon="5.95195">
        <ele>354.4</ele>
        <time>2013-09-01T07:33:27Z</time>
      </trkpt>
      <trkpt lat="45.38241" lon="5.95195">
        <ele>353.03</ele>
        <time>2013-09-01T07:33:31Z</time>
      </trkpt>
      <trkpt lat="45.38221" lon="5.9518">
        <ele>351.31</ele>
        <time>2013-09-01T07:33:35Z</time>
      </trkpt>
      <trkpt lat="45.38201" lon="5.95162">
        <ele>348.04</ele>
        <time>2013-09-01T07:33:39Z</time>
      </trkpt>
      <trkpt lat="45.38186" lon="5.95145">
        <ele>348.59</ele>
        <time>2013-09-01T07:33:42Z</time>
      </trkpt>
      <trkpt lat="45.38168" lon="5.95126">
        <ele>349.47</ele>
        <time>2013-09-01T07:33:46Z</time>
      </trkpt>
      <trkpt lat="45.38148" lon="5.95109">
        <ele>348.98</ele>
        <time>2013-09-01T07:33:50Z</time>
      </trkpt>
      <trkpt lat="45.38128" lon="5.95095">
        <ele>349.49</ele>
        <time>2013-09-01T07:33:54Z</time>
      </trkpt>
      <trkpt lat="45.38108" lon="5.95082">
        <ele>348.99</ele>
        <time>2013-09-01T07:33:58Z</time>
      </trkpt>
      <trkpt lat="45.3809" lon="5.95066">
        <ele>348.04</ele>
        <time>2013-09-01T07:34:02Z</time>
      </trkpt>
      <trkpt lat="45.38073" lon="5.95049">
        <ele>347.68</ele>
        <time>2013-09-01T07:34:06Z</time>
      </trkpt>
      <trkpt lat="45.38055" lon="5.95032">
        <ele>349.48</ele>
        <time>2013-09-01T07:34:10Z</time>
      </trkpt>
      <trkpt lat="45.38036" lon="5.9502">
        <ele>352.9</ele>
        <time>2013-09-01T07:34:14Z</time>
      </trkpt>
      <trkpt lat="45.38016" lon="5.95011">
        <ele>353.54</ele>
        <time>2013-09-01T07:34:19Z</time>
      </trkpt>
      <trkpt lat="45.37997" lon="5.95007">
        <ele>349.43</ele>
        <time>2013-09-01T07:34:25Z</time>
      </trkpt>
      <trkpt lat="45.37976" lon="5.95008">
        <ele>342.98</ele>
        <time>2013-09-01T07:34:31Z</time>
      </trkpt>
      <trkpt lat="45.37956" lon="5.95012">
        <ele>342.87</ele>
        <time>2013-09-01T07:34:37Z</time>
      </trkpt>
      <trkpt lat="45.37937" lon="5.95014">
        <ele>345.74</ele>
        <time>2013-09-01T07:34:42Z</time>
      </trkpt>
      <trkpt lat="45.37918" lon="5.95015">
        <ele>344.22</ele>
        <time>2013-09-01T07:34:47Z</time>
      </trkpt>
      <trkpt lat="45.379" lon="5.95016">
        <ele>344.2</ele>
        <time>2013-09-01T07:34:52Z</time>
      </trkpt>
      <trkpt lat="45.37879" lon="5.95016">
        <ele>345.56</ele>
        <time>2013-09-01T07:34:57Z</time>
      </trkpt>
      <trkpt lat="45.37859" lon="5.95013">
        <ele>347.14</ele>
        <time>2013-09-01T07:35:02Z</time>
      </trkpt>
      <trkpt lat="45.37838" lon="5.95006">
        <ele>349.04</ele>
        <time>2013-09-01T07:35:07Z</time>
      </trkpt>
      <trkpt lat="45.37821" lon="5.94996">
        <ele>349.57</ele>
        <time>2013-09-01T07:35:12Z</time>
      </trkpt>
      <trkpt lat="45.37805" lon="5.94984">
        <ele>349.37</ele>
        <time>2013-09-01T07:35:17Z</time>
      </trkpt>
      <trkpt lat="45.37785" lon="5.94972">
        <ele>353.33</ele>
        <time>2013-09-01T07:35:22Z</time>
      </trkpt>
      <trkpt lat="45.37767" lon="5.94961">
        <ele>352.08</ele>
        <time>2013-09-01T07:35:27Z</time>
      </trkpt>
      <trkpt lat="45.37749" lon="5.94952">
        <ele>351.25</ele>
        <time>2013-09-01T07:35:32Z</time>
      </trkpt>
      <trkpt lat="45.37731" lon="5.94942">
        <ele>351.4</ele>
        <time>2013-09-01T07:35:37Z</time>
      </trkpt>
      <trkpt lat="45.37713" lon="5.94932">
        <ele>350.06</ele>
        <time>2013-09-01T07:35:42Z</time>
      </trkpt>
      <trkpt lat="45.37693" lon="5.94923">
        <ele>350.1</ele>
        <time>2013-09-01T07:35:47Z</time>
      </trkpt>
      <trkpt lat="45.37673" lon="5.94919">
        <ele>351.53</ele>
        <time>2013-09-01T07:35:52Z</time>
      </trkpt>
      <trkpt lat="45.37655" lon="5.94916">
        <ele>350.72</ele>
        <time>2013-09-01T07:35:57Z</time>
      </trkpt>
      <trkpt lat="45.37636" lon="5.94912">
        <ele>350.5</ele>
        <time>2013-09-01T07:36:02Z</time>
      </trkpt>
      <trkpt lat="45.37618" lon="5.94907">
        <ele>348.17</ele>
        <time>2013-09-01T07:36:07Z</time>
      </trkpt>
      <trkpt lat="45.37597" lon="5.949">
        <ele>345.56</ele>
        <time>2013-09-01T07:36:12Z</time>
      </trkpt>
      <trkpt lat="45.37577" lon="5.94898">
        <ele>343.72</ele>
        <time>2013-09-01T07:36:16Z</time>
      </trkpt>
      <trkpt lat="45.37557" lon="5.94899">
        <ele>345.41</ele>
        <time>2013-09-01T07:36:20Z</time>
      </trkpt>
      <trkpt lat="45.37538" lon="5.94898">
        <ele>344.66</ele>
        <time>2013-09-01T07:36:24Z</time>
      </trkpt>
      <trkpt lat="45.37517" lon="5.94901">
        <ele>344.67</ele>
        <time>2013-09-01T07:36:28Z</time>
      </trkpt>
      <trkpt lat="45.37495" lon="5.94911">
        <ele>345.27</ele>
        <time>2013-09-01T07:36:32Z</time>
      </trkpt>
      <trkpt lat="45.37473" lon="5.94905">
        <ele>345.62</ele>
        <time>2013-09-01T07:36:36Z</time>
      </trkpt>
      <trkpt lat="45.37453" lon="5.94896">
        <ele>343.56</ele>
        <time>2013-09-01T07:36:40Z</time>
      </trkpt>
      <trkpt lat="45.37433" lon="5.9489">
        <ele>342.86</ele>
        <time>2013-09-01T07:36:45Z</time>
      </trkpt>
      <trkpt lat="45.37413" lon="5.94886">
        <ele>340.66</ele>
        <time>2013-09-01T07:36:50Z</time>
      </trkpt>
      <trkpt lat="45.37395" lon="5.94883">
        <ele>341.09</ele>
        <time>2013-09-01T07:36:54Z</time>
      </trkpt>
      <trkpt lat="45.37375" lon="5.94882">
        <ele>344.47</ele>
        <time>2013-09-01T07:36:59Z</time>
      </trkpt>
      <trkpt lat="45.37355" lon="5.94877">
        <ele>347.95</ele>
        <time>2013-09-01T07:37:04Z</time>
      </trkpt>
      <trkpt lat="45.37346" lon="5.9485">
        <ele>347.16</ele>
        <time>2013-09-01T07:37:14Z</time>
      </trkpt>
      <trkpt lat="45.37329" lon="5.94842">
        <ele>350.54</ele>
        <time>2013-09-01T07:37:21Z</time>
      </trkpt>
      <trkpt lat="45.3731" lon="5.94843">
        <ele>355.1</ele>
        <time>2013-09-01T07:37:28Z</time>
      </trkpt>
      <trkpt lat="45.37291" lon="5.94841">
        <ele>358.45</ele>
        <time>2013-09-01T07:37:35Z</time>
      </trkpt>
      <trkpt lat="45.37271" lon="5.9484">
        <ele>358.99</ele>
        <time>2013-09-01T07:37:43Z</time>
      </trkpt>
      <trkpt lat="45.37253" lon="5.94845">
        <ele>357.38</ele>
        <time>2013-09-01T07:37:51Z</time>
      </trkpt>
      <trkpt lat="45.37243" lon="5.94822">
        <ele>354.94</ele>
        <time>2013-09-01T07:38:02Z</time>
      </trkpt>
      <trkpt lat="45.37244" lon="5.94794">
        <ele>360.54</ele>
        <time>2013-09-01T07:38:12Z</time>
      </trkpt>
      <trkpt lat="45.3725" lon="5.94769">
        <ele>359.74</ele>
        <time>2013-09-01T07:38:23Z</time>
      </trkpt>
      <trkpt lat="45.37242" lon="5.94744">
        <ele>357.13</ele>
        <time>2013-09-01T07:38:33Z</time>
      </trkpt>
      <trkpt lat="45.37235" lon="5.94721">
        <ele>360.35</ele>
        <time>2013-09-01T07:38:42Z</time>
      </trkpt>
      <trkpt lat="45.37225" lon="5.94696">
        <ele>369.17</ele>
        <time>2013-09-01T07:38:52Z</time>
      </trkpt>
      <trkpt lat="45.37219" lon="5.94671">
        <ele>364.99</ele>
        <time>2013-09-01T07:39:06Z</time>
      </trkpt>
      <trkpt lat="45.37208" lon="5.94648">
        <ele>366.06</ele>
        <time>2013-09-01T07:39:19Z</time>
      </trkpt>
      <trkpt lat="45.372" lon="5.94624">
        <ele>369.39</ele>
        <time>2013-09-01T07:39:31Z</time>
      </trkpt>
      <trkpt lat="45.3716" lon="5.94512">
        <ele>382.88</ele>
        <time>2013-09-01T07:40:31Z</time>
      </trkpt>
      <trkpt lat="45.37145" lon="5.94496">
        <ele>381.85</ele>
        <time>2013-09-01T07:40:46Z</time>
      </trkpt>
      <trkpt lat="45.3714" lon="5.94469">
        <ele>388.25</ele>
        <time>2013-09-01T07:40:56Z</time>
      </trkpt>
      <trkpt lat="45.37144" lon="5.94444">
        <ele>397.06</ele>
        <time>2013-09-01T07:41:10Z</time>
      </trkpt>
      <trkpt lat="45.37152" lon="5.9442">
        <ele>402.99</ele>
        <time>2013-09-01T07:41:21Z</time>
      </trkpt>
      <trkpt lat="45.37161" lon="5.94397">
        <ele>403.85</ele>
        <time>2013-09-01T07:41:36Z</time>
      </trkpt>
      <trkpt lat="45.37169" lon="5.94373">
        <ele>403.99</ele>
        <time>2013-09-01T07:41:47Z</time>
      </trkpt>
      <trkpt lat="45.37177" lon="5.94348">
        <ele>409.69</ele>
        <time>2013-09-01T07:42:01Z</time>
      </trkpt>
      <trkpt lat="45.37197" lon="5.94347">
        <ele>410.45</ele>
        <time>2013-09-01T07:42:13Z</time>
      </trkpt>
      <trkpt lat="45.37209" lon="5.94367">
        <ele>405.14</ele>
        <time>2013-09-01T07:42:21Z</time>
      </trkpt>
      <trkpt lat="45.37215" lon="5.94392">
        <ele>403.47</ele>
        <time>2013-09-01T07:42:30Z</time>
      </trkpt>
      <trkpt lat="45.37222" lon="5.94416">
        <ele>407.15</ele>
        <time>2013-09-01T07:42:40Z</time>
      </trkpt>
      <trkpt lat="45.37238" lon="5.94428">
        <ele>409.35</ele>
        <time>2013-09-01T07:42:50Z</time>
      </trkpt>
      <trkpt lat="45.37258" lon="5.94437">
        <ele>409.67</ele>
        <time>2013-09-01T07:43:00Z</time>
      </trkpt>
      <trkpt lat="45.37275" lon="5.94446">
        <ele>409.36</ele>
        <time>2013-09-01T07:43:10Z</time>
      </trkpt>
      <trkpt lat="45.37292" lon="5.94457">
        <ele>410.82</ele>
        <time>2013-09-01T07:43:21Z</time>
      </trkpt>
      <trkpt lat="45.37311" lon="5.94467">
        <ele>418.69</ele>
        <time>2013-09-01T07:43:32Z</time>
      </trkpt>
      <trkpt lat="45.37329" lon="5.94469">
        <ele>419.48</ele>
        <time>2013-09-01T07:43:44Z</time>
      </trkpt>
      <trkpt lat="45.3735" lon="5.94468">
        <ele>423.93</ele>
        <time>2013-09-01T07:43:58Z</time>
      </trkpt>
      <trkpt lat="45.37367" lon="5.94476">
        <ele>423.49</ele>
        <time>2013-09-01T07:44:06Z</time>
      </trkpt>
      <trkpt lat="45.37385" lon="5.94484">
        <ele>428.98</ele>
        <time>2013-09-01T07:44:16Z</time>
      </trkpt>
      <trkpt lat="45.37403" lon="5.94493">
        <ele>431.01</ele>
        <time>2013-09-01T07:44:25Z</time>
      </trkpt>
      <trkpt lat="45.37422" lon="5.94495">
        <ele>433.33</ele>
        <time>2013-09-01T07:44:37Z</time>
      </trkpt>
      <trkpt lat="45.3744" lon="5.94495">
        <ele>430.05</ele>
        <time>2013-09-01T07:44:48Z</time>
      </trkpt>
      <trkpt lat="45.37459" lon="5.94495">
        <ele>431.3</ele>
        <time>2013-09-01T07:44:59Z</time>
      </trkpt>
      <trkpt lat="45.37477" lon="5.94495">
        <ele>443.55</ele>
        <time>2013-09-01T07:45:11Z</time>
      </trkpt>
      <trkpt lat="45.37497" lon="5.94492">
        <ele>440.12</ele>
        <time>2013-09-01T07:45:22Z</time>
      </trkpt>
      <trkpt lat="45.37516" lon="5.94492">
        <ele>445.61</ele>
        <time>2013-09-01T07:45:36Z</time>
      </trkpt>
      <trkpt lat="45.37535" lon="5.94495">
        <ele>447.48</ele>
        <time>2013-09-01T07:45:46Z</time>
      </trkpt>
      <trkpt lat="45.37553" lon="5.94498">
        <ele>450.94</ele>
        <time>2013-09-01T07:45:56Z</time>
      </trkpt>
      <trkpt lat="45.3757" lon="5.94492">
        <ele>453.55</ele>
        <time>2013-09-01T07:46:08Z</time>
      </trkpt>
      <trkpt lat="45.37587" lon="5.94481">
        <ele>463.66</ele>
        <time>2013-09-01T07:46:23Z</time>
      </trkpt>
      <trkpt lat="45.37606" lon="5.94481">
        <ele>461.12</ele>
        <time>2013-09-01T07:46:34Z</time>
      </trkpt>
      <trkpt lat="45.37623" lon="5.9447">
        <ele>469.78</ele>
        <time>2013-09-01T07:46:47Z</time>
      </trkpt>
      <trkpt lat="45.3764" lon="5.94463">
        <ele>459.73</ele>
        <time>2013-09-01T07:47:00Z</time>
      </trkpt>
      <trkpt lat="45.37659" lon="5.94461">
        <ele>473.41</ele>
        <time>2013-09-01T07:47:17Z</time>
      </trkpt>
      <trkpt lat="45.37677" lon="5.94454">
        <ele>475.35</ele>
        <time>2013-09-01T07:47:29Z</time>
      </trkpt>
      <trkpt lat="45.37697" lon="5.94456">
        <ele>476.74</ele>
        <time>2013-09-01T07:47:40Z</time>
      </trkpt>
      <trkpt lat="45.37715" lon="5.94464">
        <ele>477.79</ele>
        <time>2013-09-01T07:47:51Z</time>
      </trkpt>
      <trkpt lat="45.37733" lon="5.94462">
        <ele>480.93</ele>
        <time>2013-09-01T07:48:06Z</time>
      </trkpt>
      <trkpt lat="45.37751" lon="5.94462">
        <ele>473.71</ele>
        <time>2013-09-01T07:48:19Z</time>
      </trkpt>
      <trkpt lat="45.3777" lon="5.9446">
        <ele>482.38</ele>
        <time>2013-09-01T07:48:35Z</time>
      </trkpt>
      <trkpt lat="45.37787" lon="5.94471">
        <ele>480.74</ele>
        <time>2013-09-01T07:48:46Z</time>
      </trkpt>
      <trkpt lat="45.37805" lon="5.94469">
        <ele>486.97</ele>
        <time>2013-09-01T07:49:01Z</time>
      </trkpt>
      <trkpt lat="45.37823" lon="5.94462">
        <ele>482.75</ele>
        <time>2013-09-01T07:49:16Z</time>
      </trkpt>
      <trkpt lat="45.3784" lon="5.94449">
        <ele>489.76</ele>
        <time>2013-09-01T07:49:39Z</time>
      </trkpt>
      <trkpt lat="45.37856" lon="5.94438">
        <ele>493.02</ele>
        <time>2013-09-01T07:49:55Z</time>
      </trkpt>
      <trkpt lat="45.37876" lon="5.94443">
        <ele>495.7</ele>
        <time>2013-09-01T07:50:05Z</time>
      </trkpt>
      <trkpt lat="45.37891" lon="5.94459">
        <ele>504.8</ele>
        <time>2013-09-01T07:50:19Z</time>
      </trkpt>
      <trkpt lat="45.3791" lon="5.94463">
        <ele>503.09</ele>
        <time>2013-09-01T07:50:25Z</time>
      </trkpt>
      <trkpt lat="45.37926" lon="5.94478">
        <ele>498.02</ele>
        <time>2013-09-01T07:50:41Z</time>
      </trkpt>
      <trkpt lat="45.37931" lon="5.94503">
        <ele>497.68</ele>
        <time>2013-09-01T07:50:55Z</time>
      </trkpt>
      <trkpt lat="45.37949" lon="5.94508">
        <ele>508.08</ele>
        <time>2013-09-01T07:51:16Z</time>
      </trkpt>
      <trkpt lat="45.37967" lon="5.94514">
        <ele>503.44</ele>
        <time>2013-09-01T07:51:28Z</time>
      </trkpt>
      <trkpt lat="45.37986" lon="5.94521">
        <ele>507.79</ele>
        <time>2013-09-01T07:51:42Z</time>
      </trkpt>
      <trkpt lat="45.38004" lon="5.9453">
        <ele>509.54</ele>
        <time>2013-09-01T07:51:57Z</time>
      </trkpt>
      <trkpt lat="45.38022" lon="5.9454">
        <ele>511.06</ele>
        <time>2013-09-01T07:52:10Z</time>
      </trkpt>
      <trkpt lat="45.38042" lon="5.94541">
        <ele>513.48</ele>
        <time>2013-09-01T07:52:25Z</time>
      </trkpt>
      <trkpt lat="45.3806" lon="5.94543">
        <ele>517.83</ele>
        <time>2013-09-01T07:52:41Z</time>
      </trkpt>
      <trkpt lat="45.38079" lon="5.9455">
        <ele>516.9</ele>
        <time>2013-09-01T07:52:57Z</time>
      </trkpt>
      <trkpt lat="45.38098" lon="5.94548">
        <ele>519.44</ele>
        <time>2013-09-01T07:53:11Z</time>
      </trkpt>
      <trkpt lat="45.38116" lon="5.94551">
        <ele>520.16</ele>
        <time>2013-09-01T07:53:26Z</time>
      </trkpt>
      <trkpt lat="45.38133" lon="5.94546">
        <ele>518.53</ele>
        <time>2013-09-01T07:53:50Z</time>
      </trkpt>
      <trkpt lat="45.38152" lon="5.9455">
        <ele>538.25</ele>
        <time>2013-09-01T07:54:09Z</time>
      </trkpt>
      <trkpt lat="45.38171" lon="5.94556">
        <ele>534.13</ele>
        <time>2013-09-01T07:54:22Z</time>
      </trkpt>
      <trkpt lat="45.38189" lon="5.94566">
        <ele>535.53</ele>
        <time>2013-09-01T07:54:28Z</time>
      </trkpt>
      <trkpt lat="45.38206" lon="5.9458">
        <ele>533.92</ele>
        <time>2013-09-01T07:54:37Z</time>
      </trkpt>
      <trkpt lat="45.38224" lon="5.94591">
        <ele>541.26</ele>
        <time>2013-09-01T07:54:51Z</time>
      </trkpt>
      <trkpt lat="45.3821" lon="5.94571">
        <ele>534.3</ele>
        <time>2013-09-01T07:55:15Z</time>
      </trkpt>
      <trkpt lat="45.38197" lon="5.94553">
        <ele>529</ele>
        <time>2013-09-01T07:55:31Z</time>
      </trkpt>
      <trkpt lat="45.38179" lon="5.94546">
        <ele>528.74</ele>
        <time>2013-09-01T07:55:44Z</time>
      </trkpt>
      <trkpt lat="45.38167" lon="5.94522">
        <ele>546.61</ele>
        <time>2013-09-01T07:55:53Z</time>
      </trkpt>
      <trkpt lat="45.38149" lon="5.94517">
        <ele>553.51</ele>
        <time>2013-09-01T07:56:00Z</time>
      </trkpt>
      <trkpt lat="45.38131" lon="5.94512">
        <ele>547.47</ele>
        <time>2013-09-01T07:56:12Z</time>
      </trkpt>
      <trkpt lat="45.38112" lon="5.94508">
        <ele>551.77</ele>
        <time>2013-09-01T07:56:25Z</time>
      </trkpt>
      <trkpt lat="45.38096" lon="5.94496">
        <ele>551.14</ele>
        <time>2013-09-01T07:56:40Z</time>
      </trkpt>
      <trkpt lat="45.38078" lon="5.94488">
        <ele>549.04</ele>
        <time>2013-09-01T07:56:54Z</time>
      </trkpt>
      <trkpt lat="45.3806" lon="5.9448">
        <ele>551.71</ele>
        <time>2013-09-01T07:57:07Z</time>
      </trkpt>
      <trkpt lat="45.38043" lon="5.94468">
        <ele>549.97</ele>
        <time>2013-09-01T07:57:20Z</time>
      </trkpt>
      <trkpt lat="45.38028" lon="5.94453">
        <ele>549.57</ele>
        <time>2013-09-01T07:57:33Z</time>
      </trkpt>
      <trkpt lat="45.38018" lon="5.9443">
        <ele>551.48</ele>
        <time>2013-09-01T07:57:48Z</time>
      </trkpt>
      <trkpt lat="45.38017" lon="5.94404">
        <ele>558.51</ele>
        <time>2013-09-01T07:57:56Z</time>
      </trkpt>
      <trkpt lat="45.38011" lon="5.9438">
        <ele>566.66</ele>
        <time>2013-09-01T07:58:09Z</time>
      </trkpt>
      <trkpt lat="45.37994" lon="5.94368">
        <ele>559.29</ele>
        <time>2013-09-01T07:58:27Z</time>
      </trkpt>
      <trkpt lat="45.37977" lon="5.94355">
        <ele>570.7</ele>
        <time>2013-09-01T07:58:36Z</time>
      </trkpt>
      <trkpt lat="45.37957" lon="5.94352">
        <ele>570.17</ele>
        <time>2013-09-01T07:58:48Z</time>
      </trkpt>
      <trkpt lat="45.3794" lon="5.94344">
        <ele>576.04</ele>
        <time>2013-09-01T07:59:03Z</time>
      </trkpt>
      <trkpt lat="45.37922" lon="5.94333">
        <ele>577.78</ele>
        <time>2013-09-01T07:59:16Z</time>
      </trkpt>
      <trkpt lat="45.37905" lon="5.94323">
        <ele>575.9</ele>
        <time>2013-09-01T07:59:30Z</time>
      </trkpt>
      <trkpt lat="45.37888" lon="5.94312">
        <ele>574.53</ele>
        <time>2013-09-01T07:59:44Z</time>
      </trkpt>
      <trkpt lat="45.37872" lon="5.94299">
        <ele>577.22</ele>
        <time>2013-09-01T07:59:58Z</time>
      </trkpt>
      <trkpt lat="45.37859" lon="5.94279">
        <ele>585.16</ele>
        <time>2013-09-01T08:00:14Z</time>
      </trkpt>
      <trkpt lat="45.37842" lon="5.9426">
        <ele>593</ele>
        <time>2013-09-01T08:00:25Z</time>
      </trkpt>
      <trkpt lat="45.37826" lon="5.94248">
        <ele>589.44</ele>
        <time>2013-09-01T08:00:38Z</time>
      </trkpt>
      <trkpt lat="45.3781" lon="5.94236">
        <ele>591.61</ele>
        <time>2013-09-01T08:00:50Z</time>
      </trkpt>
      <trkpt lat="45.37791" lon="5.94227">
        <ele>585.06</ele>
        <time>2013-09-01T08:01:07Z</time>
      </trkpt>
      <trkpt lat="45.37774" lon="5.94212">
        <ele>590.94</ele>
        <time>2013-09-01T08:01:17Z</time>
      </trkpt>
      <trkpt lat="45.37762" lon="5.94191">
        <ele>596.13</ele>
        <time>2013-09-01T08:01:41Z</time>
      </trkpt>
      <trkpt lat="45.37745" lon="5.94183">
        <ele>600.04</ele>
        <time>2013-09-01T08:01:54Z</time>
      </trkpt>
      <trkpt lat="45.37727" lon="5.94188">
        <ele>617.83</ele>
        <time>2013-09-01T08:02:06Z</time>
      </trkpt>
      <trkpt lat="45.37708" lon="5.94195">
        <ele>614.15</ele>
        <time>2013-09-01T08:02:19Z</time>
      </trkpt>
      <trkpt lat="45.37689" lon="5.94193">
        <ele>617.25</ele>
        <time>2013-09-01T08:02:31Z</time>
      </trkpt>
      <trkpt lat="45.37671" lon="5.94185">
        <ele>607.83</ele>
        <time>2013-09-01T08:02:40Z</time>
      </trkpt>
      <trkpt lat="45.37652" lon="5.9418">
        <ele>614.67</ele>
        <time>2013-09-01T08:02:51Z</time>
      </trkpt>
      <trkpt lat="45.37638" lon="5.94163">
        <ele>608.39</ele>
        <time>2013-09-01T08:03:06Z</time>
      </trkpt>
      <trkpt lat="45.37618" lon="5.94165">
        <ele>627.08</ele>
        <time>2013-09-01T08:03:21Z</time>
      </trkpt>
      <trkpt lat="45.37599" lon="5.94156">
        <ele>622.79</ele>
        <time>2013-09-01T08:03:31Z</time>
      </trkpt>
      <trkpt lat="45.37582" lon="5.94144">
        <ele>616.63</ele>
        <time>2013-09-01T08:03:45Z</time>
      </trkpt>
      <trkpt lat="45.37564" lon="5.9414">
        <ele>619.65</ele>
        <time>2013-09-01T08:03:59Z</time>
      </trkpt>
      <trkpt lat="45.37545" lon="5.94147">
        <ele>630.85</ele>
        <time>2013-09-01T08:04:11Z</time>
      </trkpt>
      <trkpt lat="45.37526" lon="5.94143">
        <ele>627.08</ele>
        <time>2013-09-01T08:04:18Z</time>
      </trkpt>
      <trkpt lat="45.3751" lon="5.9413">
        <ele>613.21</ele>
        <time>2013-09-01T08:04:29Z</time>
      </trkpt>
      <trkpt lat="45.37492" lon="5.94128">
        <ele>618.43</ele>
        <time>2013-09-01T08:04:46Z</time>
      </trkpt>
      <trkpt lat="45.37479" lon="5.94147">
        <ele>637.45</ele>
        <time>2013-09-01T08:08:51Z</time>
      </trkpt>
      <trkpt lat="45.37485" lon="5.94121">
        <ele>629.25</ele>
        <time>2013-09-01T08:11:13Z</time>
      </trkpt>
      <trkpt lat="45.37489" lon="5.94095">
        <ele>631.45</ele>
        <time>2013-09-01T08:11:23Z</time>
      </trkpt>
      <trkpt lat="45.37492" lon="5.9407">
        <ele>630.37</ele>
        <time>2013-09-01T08:11:36Z</time>
      </trkpt>
      <trkpt lat="45.37495" lon="5.94044">
        <ele>618.03</ele>
        <time>2013-09-01T08:11:47Z</time>
      </trkpt>
      <trkpt lat="45.37494" lon="5.94018">
        <ele>619.1</ele>
        <time>2013-09-01T08:12:00Z</time>
      </trkpt>
      <trkpt lat="45.37494" lon="5.93992">
        <ele>628.4</ele>
        <time>2013-09-01T08:12:14Z</time>
      </trkpt>
      <trkpt lat="45.3749" lon="5.93966">
        <ele>630.12</ele>
        <time>2013-09-01T08:12:21Z</time>
      </trkpt>
      <trkpt lat="45.37487" lon="5.9394">
        <ele>649.36</ele>
        <time>2013-09-01T08:12:31Z</time>
      </trkpt>
      <trkpt lat="45.37482" lon="5.93915">
        <ele>649.76</ele>
        <time>2013-09-01T08:12:41Z</time>
      </trkpt>
      <trkpt lat="45.37477" lon="5.93889">
        <ele>656.19</ele>
        <time>2013-09-01T08:12:56Z</time>
      </trkpt>
      <trkpt lat="45.37474" lon="5.93864">
        <ele>648.08</ele>
        <time>2013-09-01T08:13:12Z</time>
      </trkpt>
      <trkpt lat="45.37479" lon="5.93838">
        <ele>642.97</ele>
        <time>2013-09-01T08:13:28Z</time>
      </trkpt>
      <trkpt lat="45.3748" lon="5.93811">
        <ele>639.7</ele>
        <time>2013-09-01T08:13:39Z</time>
      </trkpt>
      <trkpt lat="45.37478" lon="5.93785">
        <ele>649.39</ele>
        <time>2013-09-01T08:13:48Z</time>
      </trkpt>
      <trkpt lat="45.37485" lon="5.93761">
        <ele>663.59</ele>
        <time>2013-09-01T08:14:06Z</time>
      </trkpt>
      <trkpt lat="45.37489" lon="5.93736">
        <ele>661.3</ele>
        <time>2013-09-01T08:14:15Z</time>
      </trkpt>
      <trkpt lat="45.37489" lon="5.93707">
        <ele>667.68</ele>
        <time>2013-09-01T08:14:28Z</time>
      </trkpt>
      <trkpt lat="45.37486" lon="5.93682">
        <ele>665.7</ele>
        <time>2013-09-01T08:14:39Z</time>
      </trkpt>
      <trkpt lat="45.37485" lon="5.93655">
        <ele>660.16</ele>
        <time>2013-09-01T08:14:51Z</time>
      </trkpt>
      <trkpt lat="45.3749" lon="5.93621">
        <ele>678.31</ele>
        <time>2013-09-01T08:15:08Z</time>
      </trkpt>
      <trkpt lat="45.37495" lon="5.93592">
        <ele>675.11</ele>
        <time>2013-09-01T08:15:18Z</time>
      </trkpt>
      <trkpt lat="45.37494" lon="5.93619">
        <ele>685.13</ele>
        <time>2013-09-01T08:16:00Z</time>
      </trkpt>
      <trkpt lat="45.37498" lon="5.93644">
        <ele>686.36</ele>
        <time>2013-09-01T08:16:12Z</time>
      </trkpt>
      <trkpt lat="45.375" lon="5.9367">
        <ele>687.79</ele>
        <time>2013-09-01T08:16:22Z</time>
      </trkpt>
      <trkpt lat="45.37505" lon="5.93696">
        <ele>691.46</ele>
        <time>2013-09-01T08:16:36Z</time>
      </trkpt>
      <trkpt lat="45.37513" lon="5.9372">
        <ele>693.14</ele>
        <time>2013-09-01T08:16:49Z</time>
      </trkpt>
      <trkpt lat="45.37517" lon="5.93746">
        <ele>693.58</ele>
        <time>2013-09-01T08:16:57Z</time>
      </trkpt>
      <trkpt lat="45.37519" lon="5.93773">
        <ele>692.09</ele>
        <time>2013-09-01T08:17:09Z</time>
      </trkpt>
      <trkpt lat="45.37528" lon="5.93797">
        <ele>696.05</ele>
        <time>2013-09-01T08:17:16Z</time>
      </trkpt>
      <trkpt lat="45.37529" lon="5.93825">
        <ele>699.5</ele>
        <time>2013-09-01T08:17:27Z</time>
      </trkpt>
      <trkpt lat="45.37537" lon="5.93849">
        <ele>698.84</ele>
        <time>2013-09-01T08:17:42Z</time>
      </trkpt>
      <trkpt lat="45.37544" lon="5.93874">
        <ele>704.08</ele>
        <time>2013-09-01T08:17:50Z</time>
      </trkpt>
      <trkpt lat="45.37557" lon="5.93895">
        <ele>702.23</ele>
        <time>2013-09-01T08:18:03Z</time>
      </trkpt>
      <trkpt lat="45.37568" lon="5.93917">
        <ele>692.54</ele>
        <time>2013-09-01T08:18:18Z</time>
      </trkpt>
      <trkpt lat="45.37584" lon="5.9393">
        <ele>689.31</ele>
        <time>2013-09-01T08:18:33Z</time>
      </trkpt>
      <trkpt lat="45.376" lon="5.93944">
        <ele>700.07</ele>
        <time>2013-09-01T08:18:41Z</time>
      </trkpt>
      <trkpt lat="45.3761" lon="5.93965">
        <ele>707.72</ele>
        <time>2013-09-01T08:18:51Z</time>
      </trkpt>
      <trkpt lat="45.37622" lon="5.93985">
        <ele>715.02</ele>
        <time>2013-09-01T08:19:00Z</time>
      </trkpt>
      <trkpt lat="45.3763" lon="5.94009">
        <ele>722.92</ele>
        <time>2013-09-01T08:19:12Z</time>
      </trkpt>
      <trkpt lat="45.37645" lon="5.94023">
        <ele>720.77</ele>
        <time>2013-09-01T08:19:23Z</time>
      </trkpt>
      <trkpt lat="45.37642" lon="5.93998">
        <ele>721.53</ele>
        <time>2013-09-01T08:19:49Z</time>
      </trkpt>
      <trkpt lat="45.37632" lon="5.93977">
        <ele>705.32</ele>
        <time>2013-09-01T08:20:02Z</time>
      </trkpt>
      <trkpt lat="45.37623" lon="5.93953">
        <ele>697.45</ele>
        <time>2013-09-01T08:20:23Z</time>
      </trkpt>
      <trkpt lat="45.37606" lon="5.93933">
        <ele>707.87</ele>
        <time>2013-09-01T08:20:33Z</time>
      </trkpt>
      <trkpt lat="45.37595" lon="5.93912">
        <ele>723.52</ele>
        <time>2013-09-01T08:20:42Z</time>
      </trkpt>
      <trkpt lat="45.37582" lon="5.93893">
        <ele>720.92</ele>
        <time>2013-09-01T08:20:54Z</time>
      </trkpt>
      <trkpt lat="45.37577" lon="5.93866">
        <ele>723.36</ele>
        <time>2013-09-01T08:21:12Z</time>
      </trkpt>
      <trkpt lat="45.37578" lon="5.9384">
        <ele>723.57</ele>
        <time>2013-09-01T08:21:30Z</time>
      </trkpt>
      <trkpt lat="45.37578" lon="5.93814">
        <ele>696.3</ele>
        <time>2013-09-01T08:21:52Z</time>
      </trkpt>
      <trkpt lat="45.37585" lon="5.93789">
        <ele>673.98</ele>
        <time>2013-09-01T08:22:05Z</time>
      </trkpt>
      <trkpt lat="45.3759" lon="5.93758">
        <ele>662.33</ele>
        <time>2013-09-01T08:22:21Z</time>
      </trkpt>
      <trkpt lat="45.37598" lon="5.93719">
        <ele>694.2</ele>
        <time>2013-09-01T08:22:47Z</time>
      </trkpt>
      <trkpt lat="45.37603" lon="5.93686">
        <ele>713.54</ele>
        <time>2013-09-01T08:22:54Z</time>
      </trkpt>
      <trkpt lat="45.37595" lon="5.93662">
        <ele>745.83</ele>
        <time>2013-09-01T08:23:01Z</time>
      </trkpt>
      <trkpt lat="45.37584" lon="5.93638">
        <ele>762.34</ele>
        <time>2013-09-01T08:23:09Z</time>
      </trkpt>
      <trkpt lat="45.37583" lon="5.93612">
        <ele>757.25</ele>
        <time>2013-09-01T08:23:26Z</time>
      </trkpt>
      <trkpt lat="45.37579" lon="5.93586">
        <ele>757.18</ele>
        <time>2013-09-01T08:23:32Z</time>
      </trkpt>
      <trkpt lat="45.3756" lon="5.93577">
        <ele>766.67</ele>
        <time>2013-09-01T08:23:39Z</time>
      </trkpt>
      <trkpt lat="45.37555" lon="5.93549">
        <ele>757.73</ele>
        <time>2013-09-01T08:23:52Z</time>
      </trkpt>
      <trkpt lat="45.37559" lon="5.93521">
        <ele>759.09</ele>
        <time>2013-09-01T08:24:02Z</time>
      </trkpt>
      <trkpt lat="45.37551" lon="5.93496">
        <ele>764.09</ele>
        <time>2013-09-01T08:24:19Z</time>
      </trkpt>
      <trkpt lat="45.37549" lon="5.9347">
        <ele>769.81</ele>
        <time>2013-09-01T08:24:30Z</time>
      </trkpt>
      <trkpt lat="45.37552" lon="5.93441">
        <ele>765.71</ele>
        <time>2013-09-01T08:24:37Z</time>
      </trkpt>
      <trkpt lat="45.37554" lon="5.93414">
        <ele>766.8</ele>
        <time>2013-09-01T08:24:50Z</time>
      </trkpt>
      <trkpt lat="45.37564" lon="5.93391">
        <ele>775.81</ele>
        <time>2013-09-01T08:25:00Z</time>
      </trkpt>
      <trkpt lat="45.3758" lon="5.93376">
        <ele>781.76</ele>
        <time>2013-09-01T08:25:15Z</time>
      </trkpt>
      <trkpt lat="45.37595" lon="5.93359">
        <ele>779.65</ele>
        <time>2013-09-01T08:25:27Z</time>
      </trkpt>
      <trkpt lat="45.3761" lon="5.93343">
        <ele>782.93</ele>
        <time>2013-09-01T08:25:38Z</time>
      </trkpt>
      <trkpt lat="45.3762" lon="5.93321">
        <ele>789.96</ele>
        <time>2013-09-01T08:25:50Z</time>
      </trkpt>
      <trkpt lat="45.37627" lon="5.93297">
        <ele>795.25</ele>
        <time>2013-09-01T08:26:04Z</time>
      </trkpt>
      <trkpt lat="45.37642" lon="5.93282">
        <ele>791.14</ele>
        <time>2013-09-01T08:26:13Z</time>
      </trkpt>
      <trkpt lat="45.37662" lon="5.93276">
        <ele>796.51</ele>
        <time>2013-09-01T08:26:27Z</time>
      </trkpt>
      <trkpt lat="45.37674" lon="5.93257">
        <ele>802.03</ele>
        <time>2013-09-01T08:26:36Z</time>
      </trkpt>
      <trkpt lat="45.37686" lon="5.93237">
        <ele>792.54</ele>
        <time>2013-09-01T08:26:50Z</time>
      </trkpt>
      <trkpt lat="45.37701" lon="5.93222">
        <ele>789.36</ele>
        <time>2013-09-01T08:26:59Z</time>
      </trkpt>
      <trkpt lat="45.37717" lon="5.93208">
        <ele>790.8</ele>
        <time>2013-09-01T08:27:13Z</time>
      </trkpt>
      <trkpt lat="45.37724" lon="5.93183">
        <ele>791.17</ele>
        <time>2013-09-01T08:27:22Z</time>
      </trkpt>
      <trkpt lat="45.37733" lon="5.9316">
        <ele>785.93</ele>
        <time>2013-09-01T08:27:35Z</time>
      </trkpt>
      <trkpt lat="45.37748" lon="5.93147">
        <ele>772.89</ele>
        <time>2013-09-01T08:28:16Z</time>
      </trkpt>
      <trkpt lat="45.37761" lon="5.93128">
        <ele>760.11</ele>
        <time>2013-09-01T08:28:30Z</time>
      </trkpt>
      <trkpt lat="45.37779" lon="5.93114">
        <ele>763.17</ele>
        <time>2013-09-01T08:28:53Z</time>
      </trkpt>
      <trkpt lat="45.37798" lon="5.93117">
        <ele>766.9</ele>
        <time>2013-09-01T08:29:01Z</time>
      </trkpt>
      <trkpt lat="45.37816" lon="5.9312">
        <ele>762.69</ele>
        <time>2013-09-01T08:29:19Z</time>
      </trkpt>
      <trkpt lat="45.37835" lon="5.93119">
        <ele>761.71</ele>
        <time>2013-09-01T08:29:52Z</time>
      </trkpt>
      <trkpt lat="45.37853" lon="5.93119">
        <ele>754.99</ele>
        <time>2013-09-01T08:30:21Z</time>
      </trkpt>
      <trkpt lat="45.37871" lon="5.93127">
        <ele>750.77</ele>
        <time>2013-09-01T08:30:27Z</time>
      </trkpt>
      <trkpt lat="45.3789" lon="5.93126">
        <ele>748.41</ele>
        <time>2013-09-01T08:30:33Z</time>
      </trkpt>
      <trkpt lat="45.37907" lon="5.93116">
        <ele>756.1</ele>
        <time>2013-09-01T08:30:42Z</time>
      </trkpt>
      <trkpt lat="45.37926" lon="5.93113">
        <ele>764.65</ele>
        <time>2013-09-01T08:30:54Z</time>
      </trkpt>
      <trkpt lat="45.37943" lon="5.93124">
        <ele>766.25</ele>
        <time>2013-09-01T08:31:04Z</time>
      </trkpt>
      <trkpt lat="45.37958" lon="5.93138">
        <ele>777.43</ele>
        <time>2013-09-01T08:31:22Z</time>
      </trkpt>
      <trkpt lat="45.37979" lon="5.93139">
        <ele>779.84</ele>
        <time>2013-09-01T08:31:26Z</time>
      </trkpt>
      <trkpt lat="45.37998" lon="5.93143">
        <ele>779.64</ele>
        <time>2013-09-01T08:31:31Z</time>
      </trkpt>
      <trkpt lat="45.38019" lon="5.93145">
        <ele>776.25</ele>
        <time>2013-09-01T08:31:37Z</time>
      </trkpt>
      <trkpt lat="45.38038" lon="5.93148">
        <ele>773.45</ele>
        <time>2013-09-01T08:31:49Z</time>
      </trkpt>
      <trkpt lat="45.38059" lon="5.93151">
        <ele>774.88</ele>
        <time>2013-09-01T08:31:54Z</time>
      </trkpt>
      <trkpt lat="45.38077" lon="5.93165">
        <ele>784.32</ele>
        <time>2013-09-01T08:32:03Z</time>
      </trkpt>
      <trkpt lat="45.38095" lon="5.93176">
        <ele>800.75</ele>
        <time>2013-09-01T08:32:15Z</time>
      </trkpt>
      <trkpt lat="45.38116" lon="5.93177">
        <ele>816.26</ele>
        <time>2013-09-01T08:32:23Z</time>
      </trkpt>
      <trkpt lat="45.38138" lon="5.9318">
        <ele>820</ele>
        <time>2013-09-01T08:32:28Z</time>
      </trkpt>
      <trkpt lat="45.38158" lon="5.93184">
        <ele>824.94</ele>
        <time>2013-09-01T08:32:34Z</time>
      </trkpt>
      <trkpt lat="45.38179" lon="5.93183">
        <ele>831.62</ele>
        <time>2013-09-01T08:32:37Z</time>
      </trkpt>
      <trkpt lat="45.38199" lon="5.93195">
        <ele>844.92</ele>
        <time>2013-09-01T08:32:42Z</time>
      </trkpt>
      <trkpt lat="45.38218" lon="5.93192">
        <ele>848.76</ele>
        <time>2013-09-01T08:32:45Z</time>
      </trkpt>
      <trkpt lat="45.38239" lon="5.93193">
        <ele>850.2</ele>
        <time>2013-09-01T08:32:49Z</time>
      </trkpt>
      <trkpt lat="45.38258" lon="5.93196">
        <ele>851.44</ele>
        <time>2013-09-01T08:32:53Z</time>
      </trkpt>
      <trkpt lat="45.38276" lon="5.93203">
        <ele>855.99</ele>
        <time>2013-09-01T08:32:59Z</time>
      </trkpt>
      <trkpt lat="45.38295" lon="5.93213">
        <ele>859.51</ele>
        <time>2013-09-01T08:33:10Z</time>
      </trkpt>
      <trkpt lat="45.38312" lon="5.93221">
        <ele>857.04</ele>
        <time>2013-09-01T08:33:17Z</time>
      </trkpt>
      <trkpt lat="45.38331" lon="5.93227">
        <ele>867.7</ele>
        <time>2013-09-01T08:33:22Z</time>
      </trkpt>
      <trkpt lat="45.38349" lon="5.93235">
        <ele>860.69</ele>
        <time>2013-09-01T08:33:27Z</time>
      </trkpt>
      <trkpt lat="45.38367" lon="5.9324">
        <ele>857.43</ele>
        <time>2013-09-01T08:33:33Z</time>
      </trkpt>
      <trkpt lat="45.38388" lon="5.93242">
        <ele>848.08</ele>
        <time>2013-09-01T08:33:38Z</time>
      </trkpt>
      <trkpt lat="45.38404" lon="5.93229">
        <ele>849.72</ele>
        <time>2013-09-01T08:33:44Z</time>
      </trkpt>
      <trkpt lat="45.38406" lon="5.93202">
        <ele>844.86</ele>
        <time>2013-09-01T08:33:53Z</time>
      </trkpt>
      <trkpt lat="45.38395" lon="5.93181">
        <ele>859.69</ele>
        <time>2013-09-01T08:34:08Z</time>
      </trkpt>
      <trkpt lat="45.38381" lon="5.93163">
        <ele>862.96</ele>
        <time>2013-09-01T08:34:18Z</time>
      </trkpt>
      <trkpt lat="45.38366" lon="5.93146">
        <ele>858.79</ele>
        <time>2013-09-01T08:34:27Z</time>
      </trkpt>
      <trkpt lat="45.3835" lon="5.93131">
        <ele>863.54</ele>
        <time>2013-09-01T08:34:37Z</time>
      </trkpt>
      <trkpt lat="45.38333" lon="5.93121">
        <ele>856.7</ele>
        <time>2013-09-01T08:34:47Z</time>
      </trkpt>
      <trkpt lat="45.38314" lon="5.93109">
        <ele>853.04</ele>
        <time>2013-09-01T08:34:54Z</time>
      </trkpt>
      <trkpt lat="45.38295" lon="5.93098">
        <ele>850.39</ele>
        <time>2013-09-01T08:35:00Z</time>
      </trkpt>
      <trkpt lat="45.38279" lon="5.93082">
        <ele>849.81</ele>
        <time>2013-09-01T08:35:06Z</time>
      </trkpt>
      <trkpt lat="45.38262" lon="5.93066">
        <ele>850.45</ele>
        <time>2013-09-01T08:35:11Z</time>
      </trkpt>
      <trkpt lat="45.38246" lon="5.93052">
        <ele>847.61</ele>
        <time>2013-09-01T08:35:17Z</time>
      </trkpt>
      <trkpt lat="45.38231" lon="5.93035">
        <ele>849.32</ele>
        <time>2013-09-01T08:35:24Z</time>
      </trkpt>
      <trkpt lat="45.38217" lon="5.93015">
        <ele>844.81</ele>
        <time>2013-09-01T08:35:31Z</time>
      </trkpt>
      <trkpt lat="45.38202" lon="5.93">
        <ele>845.92</ele>
        <time>2013-09-01T08:35:37Z</time>
      </trkpt>
      <trkpt lat="45.38187" lon="5.92978">
        <ele>846.75</ele>
        <time>2013-09-01T08:35:43Z</time>
      </trkpt>
      <trkpt lat="45.38174" lon="5.92954">
        <ele>846.05</ele>
        <time>2013-09-01T08:35:49Z</time>
      </trkpt>
      <trkpt lat="45.38164" lon="5.9293">
        <ele>842.75</ele>
        <time>2013-09-01T08:35:55Z</time>
      </trkpt>
      <trkpt lat="45.38152" lon="5.92909">
        <ele>844.71</ele>
        <time>2013-09-01T08:36:01Z</time>
      </trkpt>
      <trkpt lat="45.3814" lon="5.92887">
        <ele>844.9</ele>
        <time>2013-09-01T08:36:06Z</time>
      </trkpt>
      <trkpt lat="45.38125" lon="5.92872">
        <ele>847.16</ele>
        <time>2013-09-01T08:36:11Z</time>
      </trkpt>
      <trkpt lat="45.38108" lon="5.92863">
        <ele>855.46</ele>
        <time>2013-09-01T08:36:16Z</time>
      </trkpt>
      <trkpt lat="45.38089" lon="5.92854">
        <ele>861.1</ele>
        <time>2013-09-01T08:36:21Z</time>
      </trkpt>
      <trkpt lat="45.38072" lon="5.92839">
        <ele>866.06</ele>
        <time>2013-09-01T08:36:26Z</time>
      </trkpt>
      <trkpt lat="45.38059" lon="5.92817">
        <ele>863.11</ele>
        <time>2013-09-01T08:36:31Z</time>
      </trkpt>
      <trkpt lat="45.38046" lon="5.92794">
        <ele>860.33</ele>
        <time>2013-09-01T08:36:37Z</time>
      </trkpt>
      <trkpt lat="45.38031" lon="5.92773">
        <ele>854.13</ele>
        <time>2013-09-01T08:36:45Z</time>
      </trkpt>
      <trkpt lat="45.38012" lon="5.9277">
        <ele>853.86</ele>
        <time>2013-09-01T08:36:51Z</time>
      </trkpt>
      <trkpt lat="45.37993" lon="5.92768">
        <ele>867.83</ele>
        <time>2013-09-01T08:36:56Z</time>
      </trkpt>
      <trkpt lat="45.3797" lon="5.92761">
        <ele>860.48</ele>
        <time>2013-09-01T08:37:01Z</time>
      </trkpt>
      <trkpt lat="45.3795" lon="5.9275">
        <ele>856.13</ele>
        <time>2013-09-01T08:37:05Z</time>
      </trkpt>
      <trkpt lat="45.37933" lon="5.92734">
        <ele>860.5</ele>
        <time>2013-09-01T08:37:09Z</time>
      </trkpt>
      <trkpt lat="45.37918" lon="5.92715">
        <ele>863.82</ele>
        <time>2013-09-01T08:37:14Z</time>
      </trkpt>
      <trkpt lat="45.37905" lon="5.92694">
        <ele>870.62</ele>
        <time>2013-09-01T08:37:20Z</time>
      </trkpt>
      <trkpt lat="45.37894" lon="5.92667">
        <ele>872.71</ele>
        <time>2013-09-01T08:37:26Z</time>
      </trkpt>
      <trkpt lat="45.3789" lon="5.92641">
        <ele>876.43</ele>
        <time>2013-09-01T08:37:31Z</time>
      </trkpt>
      <trkpt lat="45.37892" lon="5.92613">
        <ele>875.54</ele>
        <time>2013-09-01T08:37:36Z</time>
      </trkpt>
      <trkpt lat="45.37897" lon="5.92588">
        <ele>877.55</ele>
        <time>2013-09-01T08:37:41Z</time>
      </trkpt>
      <trkpt lat="45.37906" lon="5.92562">
        <ele>877.02</ele>
        <time>2013-09-01T08:37:46Z</time>
      </trkpt>
      <trkpt lat="45.37916" lon="5.92537">
        <ele>872.1</ele>
        <time>2013-09-01T08:37:51Z</time>
      </trkpt>
      <trkpt lat="45.3793" lon="5.92519">
        <ele>868.4</ele>
        <time>2013-09-01T08:37:56Z</time>
      </trkpt>
      <trkpt lat="45.37946" lon="5.92503">
        <ele>865.72</ele>
        <time>2013-09-01T08:38:01Z</time>
      </trkpt>
      <trkpt lat="45.37955" lon="5.92481">
        <ele>863.9</ele>
        <time>2013-09-01T08:38:07Z</time>
      </trkpt>
      <trkpt lat="45.37967" lon="5.92462">
        <ele>859.63</ele>
        <time>2013-09-01T08:38:12Z</time>
      </trkpt>
      <trkpt lat="45.37984" lon="5.92444">
        <ele>850.88</ele>
        <time>2013-09-01T08:38:17Z</time>
      </trkpt>
      <trkpt lat="45.37997" lon="5.92424">
        <ele>845.27</ele>
        <time>2013-09-01T08:38:22Z</time>
      </trkpt>
      <trkpt lat="45.3801" lon="5.92403">
        <ele>846.56</ele>
        <time>2013-09-01T08:38:28Z</time>
      </trkpt>
      <trkpt lat="45.38025" lon="5.92385">
        <ele>847.85</ele>
        <time>2013-09-01T08:38:35Z</time>
      </trkpt>
      <trkpt lat="45.38026" lon="5.92358">
        <ele>838.83</ele>
        <time>2013-09-01T08:38:44Z</time>
      </trkpt>
      <trkpt lat="45.38033" lon="5.92334">
        <ele>846.74</ele>
        <time>2013-09-01T08:38:51Z</time>
      </trkpt>
      <trkpt lat="45.3804" lon="5.92308">
        <ele>852.19</ele>
        <time>2013-09-01T08:38:59Z</time>
      </trkpt>
      <trkpt lat="45.38045" lon="5.92282">
        <ele>848.49</ele>
        <time>2013-09-01T08:39:08Z</time>
      </trkpt>
      <trkpt lat="45.38048" lon="5.92254">
        <ele>859.6</ele>
        <time>2013-09-01T08:39:17Z</time>
      </trkpt>
      <trkpt lat="45.38051" lon="5.92225">
        <ele>874.44</ele>
        <time>2013-09-01T08:39:24Z</time>
      </trkpt>
      <trkpt lat="45.38048" lon="5.92196">
        <ele>879.98</ele>
        <time>2013-09-01T08:39:31Z</time>
      </trkpt>
      <trkpt lat="45.38036" lon="5.92177">
        <ele>880.96</ele>
        <time>2013-09-01T08:39:37Z</time>
      </trkpt>
      <trkpt lat="45.38016" lon="5.92176">
        <ele>893.79</ele>
        <time>2013-09-01T08:39:44Z</time>
      </trkpt>
      <trkpt lat="45.38" lon="5.92188">
        <ele>895.38</ele>
        <time>2013-09-01T08:39:49Z</time>
      </trkpt>
      <trkpt lat="45.37982" lon="5.92189">
        <ele>889.45</ele>
        <time>2013-09-01T08:39:55Z</time>
      </trkpt>
      <trkpt lat="45.37965" lon="5.92172">
        <ele>883.27</ele>
        <time>2013-09-01T08:39:59Z</time>
      </trkpt>
      <trkpt lat="45.37942" lon="5.92161">
        <ele>886.71</ele>
        <time>2013-09-01T08:40:03Z</time>
      </trkpt>
      <trkpt lat="45.37923" lon="5.92155">
        <ele>892.56</ele>
        <time>2013-09-01T08:40:06Z</time>
      </trkpt>
      <trkpt lat="45.37904" lon="5.92149">
        <ele>899.71</ele>
        <time>2013-09-01T08:40:09Z</time>
      </trkpt>
      <trkpt lat="45.37885" lon="5.92139">
        <ele>905.63</ele>
        <time>2013-09-01T08:40:13Z</time>
      </trkpt>
      <trkpt lat="45.37866" lon="5.92124">
        <ele>906.43</ele>
        <time>2013-09-01T08:40:17Z</time>
      </trkpt>
      <trkpt lat="45.3785" lon="5.92111">
        <ele>910.9</ele>
        <time>2013-09-01T08:40:21Z</time>
      </trkpt>
      <trkpt lat="45.37834" lon="5.92097">
        <ele>908.07</ele>
        <time>2013-09-01T08:40:26Z</time>
      </trkpt>
      <trkpt lat="45.37816" lon="5.92083">
        <ele>904.01</ele>
        <time>2013-09-01T08:40:32Z</time>
      </trkpt>
      <trkpt lat="45.37798" lon="5.92071">
        <ele>907.79</ele>
        <time>2013-09-01T08:40:37Z</time>
      </trkpt>
      <trkpt lat="45.37779" lon="5.9207">
        <ele>907.42</ele>
        <time>2013-09-01T08:40:41Z</time>
      </trkpt>
      <trkpt lat="45.37758" lon="5.92067">
        <ele>906.14</ele>
        <time>2013-09-01T08:40:45Z</time>
      </trkpt>
      <trkpt lat="45.37739" lon="5.92062">
        <ele>905.22</ele>
        <time>2013-09-01T08:40:48Z</time>
      </trkpt>
      <trkpt lat="45.37718" lon="5.9205">
        <ele>902.8</ele>
        <time>2013-09-01T08:40:51Z</time>
      </trkpt>
      <trkpt lat="45.37697" lon="5.92035">
        <ele>896.11</ele>
        <time>2013-09-01T08:40:54Z</time>
      </trkpt>
      <trkpt lat="45.37681" lon="5.92023">
        <ele>891.38</ele>
        <time>2013-09-01T08:40:56Z</time>
      </trkpt>
      <trkpt lat="45.37657" lon="5.92022">
        <ele>887</ele>
        <time>2013-09-01T08:40:59Z</time>
      </trkpt>
      <trkpt lat="45.3763" lon="5.92027">
        <ele>887.32</ele>
        <time>2013-09-01T08:41:02Z</time>
      </trkpt>
      <trkpt lat="45.37605" lon="5.92026">
        <ele>887.99</ele>
        <time>2013-09-01T08:41:05Z</time>
      </trkpt>
      <trkpt lat="45.37587" lon="5.9202">
        <ele>884.69</ele>
        <time>2013-09-01T08:41:07Z</time>
      </trkpt>
      <trkpt lat="45.37564" lon="5.92019">
        <ele>879.44</ele>
        <time>2013-09-01T08:41:10Z</time>
      </trkpt>
      <trkpt lat="45.37541" lon="5.92027">
        <ele>878.01</ele>
        <time>2013-09-01T08:41:12Z</time>
      </trkpt>
      <trkpt lat="45.37521" lon="5.92034">
        <ele>880.51</ele>
        <time>2013-09-01T08:41:14Z</time>
      </trkpt>
      <trkpt lat="45.37502" lon="5.92043">
        <ele>882.05</ele>
        <time>2013-09-01T08:41:16Z</time>
      </trkpt>
      <trkpt lat="45.37483" lon="5.92052">
        <ele>883.72</ele>
        <time>2013-09-01T08:41:18Z</time>
      </trkpt>
      <trkpt lat="45.37466" lon="5.92063">
        <ele>885.73</ele>
        <time>2013-09-01T08:41:20Z</time>
      </trkpt>
      <trkpt lat="45.37448" lon="5.92076">
        <ele>885.11</ele>
        <time>2013-09-01T08:41:22Z</time>
      </trkpt>
      <trkpt lat="45.37434" lon="5.92098">
        <ele>880.93</ele>
        <time>2013-09-01T08:41:25Z</time>
      </trkpt>
      <trkpt lat="45.37422" lon="5.92134">
        <ele>872.43</ele>
        <time>2013-09-01T08:41:34Z</time>
      </trkpt>
      <trkpt lat="45.37415" lon="5.92162">
        <ele>874.27</ele>
        <time>2013-09-01T08:41:43Z</time>
      </trkpt>
      <trkpt lat="45.3741" lon="5.92187">
        <ele>881.83</ele>
        <time>2013-09-01T08:41:53Z</time>
      </trkpt>
      <trkpt lat="45.37398" lon="5.92215">
        <ele>885.27</ele>
        <time>2013-09-01T08:42:06Z</time>
      </trkpt>
      <trkpt lat="45.37378" lon="5.92227">
        <ele>882.78</ele>
        <time>2013-09-01T08:42:17Z</time>
      </trkpt>
      <trkpt lat="45.37361" lon="5.92236">
        <ele>891.62</ele>
        <time>2013-09-01T08:42:28Z</time>
      </trkpt>
      <trkpt lat="45.37348" lon="5.92267">
        <ele>887.38</ele>
        <time>2013-09-01T08:42:42Z</time>
      </trkpt>
      <trkpt lat="45.37347" lon="5.92301">
        <ele>894.38</ele>
        <time>2013-09-01T08:42:57Z</time>
      </trkpt>
      <trkpt lat="45.37331" lon="5.92325">
        <ele>898.54</ele>
        <time>2013-09-01T08:43:10Z</time>
      </trkpt>
      <trkpt lat="45.37304" lon="5.92333">
        <ele>898.73</ele>
        <time>2013-09-01T08:43:26Z</time>
      </trkpt>
      <trkpt lat="45.37284" lon="5.92333">
        <ele>908.66</ele>
        <time>2013-09-01T08:43:40Z</time>
      </trkpt>
      <trkpt lat="45.37266" lon="5.92319">
        <ele>908.8</ele>
        <time>2013-09-01T08:43:54Z</time>
      </trkpt>
      <trkpt lat="45.37245" lon="5.92302">
        <ele>895.24</ele>
        <time>2013-09-01T08:44:07Z</time>
      </trkpt>
      <trkpt lat="45.37234" lon="5.92278">
        <ele>880.95</ele>
        <time>2013-09-01T08:44:19Z</time>
      </trkpt>
      <trkpt lat="45.37219" lon="5.92262">
        <ele>895.01</ele>
        <time>2013-09-01T08:44:31Z</time>
      </trkpt>
      <trkpt lat="45.37203" lon="5.92238">
        <ele>885.1</ele>
        <time>2013-09-01T08:44:45Z</time>
      </trkpt>
      <trkpt lat="45.37184" lon="5.92232">
        <ele>903.34</ele>
        <time>2013-09-01T08:44:57Z</time>
      </trkpt>
      <trkpt lat="45.37165" lon="5.9224">
        <ele>904.86</ele>
        <time>2013-09-01T08:45:07Z</time>
      </trkpt>
      <trkpt lat="45.37148" lon="5.92257">
        <ele>909.56</ele>
        <time>2013-09-01T08:45:20Z</time>
      </trkpt>
      <trkpt lat="45.3713" lon="5.92262">
        <ele>929.96</ele>
        <time>2013-09-01T08:45:30Z</time>
      </trkpt>
      <trkpt lat="45.3711" lon="5.92263">
        <ele>936.16</ele>
        <time>2013-09-01T08:45:45Z</time>
      </trkpt>
      <trkpt lat="45.3709" lon="5.92274">
        <ele>925.89</ele>
        <time>2013-09-01T08:45:54Z</time>
      </trkpt>
      <trkpt lat="45.37072" lon="5.92285">
        <ele>921.45</ele>
        <time>2013-09-01T08:46:06Z</time>
      </trkpt>
      <trkpt lat="45.3705" lon="5.92288">
        <ele>922.43</ele>
        <time>2013-09-01T08:46:18Z</time>
      </trkpt>
      <trkpt lat="45.37033" lon="5.92279">
        <ele>921.63</ele>
        <time>2013-09-01T08:46:27Z</time>
      </trkpt>
      <trkpt lat="45.37017" lon="5.92263">
        <ele>921.64</ele>
        <time>2013-09-01T08:46:40Z</time>
      </trkpt>
      <trkpt lat="45.36998" lon="5.92253">
        <ele>926.72</ele>
        <time>2013-09-01T08:46:53Z</time>
      </trkpt>
      <trkpt lat="45.36982" lon="5.9224">
        <ele>920.24</ele>
        <time>2013-09-01T08:47:06Z</time>
      </trkpt>
      <trkpt lat="45.36964" lon="5.92233">
        <ele>914.26</ele>
        <time>2013-09-01T08:47:21Z</time>
      </trkpt>
      <trkpt lat="45.36946" lon="5.92227">
        <ele>918.2</ele>
        <time>2013-09-01T08:47:30Z</time>
      </trkpt>
      <trkpt lat="45.36929" lon="5.92217">
        <ele>933.93</ele>
        <time>2013-09-01T08:47:41Z</time>
      </trkpt>
      <trkpt lat="45.3691" lon="5.92212">
        <ele>940.09</ele>
        <time>2013-09-01T08:47:53Z</time>
      </trkpt>
      <trkpt lat="45.36893" lon="5.92204">
        <ele>944.17</ele>
        <time>2013-09-01T08:48:03Z</time>
      </trkpt>
      <trkpt lat="45.36876" lon="5.92194">
        <ele>953.37</ele>
        <time>2013-09-01T08:48:14Z</time>
      </trkpt>
      <trkpt lat="45.36859" lon="5.92183">
        <ele>957.84</ele>
        <time>2013-09-01T08:48:26Z</time>
      </trkpt>
      <trkpt lat="45.36848" lon="5.92162">
        <ele>951.31</ele>
        <time>2013-09-01T08:48:42Z</time>
      </trkpt>
      <trkpt lat="45.36849" lon="5.92134">
        <ele>942.89</ele>
        <time>2013-09-01T08:48:50Z</time>
      </trkpt>
      <trkpt lat="45.36852" lon="5.92109">
        <ele>946.25</ele>
        <time>2013-09-01T08:48:58Z</time>
      </trkpt>
      <trkpt lat="45.3685" lon="5.92081">
        <ele>944.13</ele>
        <time>2013-09-01T08:49:10Z</time>
      </trkpt>
      <trkpt lat="45.36838" lon="5.92061">
        <ele>937.78</ele>
        <time>2013-09-01T08:49:24Z</time>
      </trkpt>
      <trkpt lat="45.36819" lon="5.92067">
        <ele>944.72</ele>
        <time>2013-09-01T08:49:32Z</time>
      </trkpt>
      <trkpt lat="45.36803" lon="5.92083">
        <ele>942.56</ele>
        <time>2013-09-01T08:49:43Z</time>
      </trkpt>
      <trkpt lat="45.36789" lon="5.92104">
        <ele>960.12</ele>
        <time>2013-09-01T08:49:53Z</time>
      </trkpt>
      <trkpt lat="45.36773" lon="5.92121">
        <ele>967.71</ele>
        <time>2013-09-01T08:50:05Z</time>
      </trkpt>
      <trkpt lat="45.36754" lon="5.92126">
        <ele>970.28</ele>
        <time>2013-09-01T08:50:17Z</time>
      </trkpt>
      <trkpt lat="45.36736" lon="5.92122">
        <ele>967.49</ele>
        <time>2013-09-01T08:50:33Z</time>
      </trkpt>
      <trkpt lat="45.36716" lon="5.92121">
        <ele>961.43</ele>
        <time>2013-09-01T08:50:45Z</time>
      </trkpt>
      <trkpt lat="45.367" lon="5.92132">
        <ele>985.77</ele>
        <time>2013-09-01T08:51:17Z</time>
      </trkpt>
      <trkpt lat="45.36681" lon="5.92122">
        <ele>1006.71</ele>
        <time>2013-09-01T08:51:51Z</time>
      </trkpt>
      <trkpt lat="45.36665" lon="5.92111">
        <ele>991.38</ele>
        <time>2013-09-01T08:52:06Z</time>
      </trkpt>
      <trkpt lat="45.36649" lon="5.92098">
        <ele>983.05</ele>
        <time>2013-09-01T08:52:17Z</time>
      </trkpt>
      <trkpt lat="45.36633" lon="5.92085">
        <ele>985.63</ele>
        <time>2013-09-01T08:52:28Z</time>
      </trkpt>
      <trkpt lat="45.36616" lon="5.92069">
        <ele>978.26</ele>
        <time>2013-09-01T08:52:42Z</time>
      </trkpt>
      <trkpt lat="45.36599" lon="5.9206">
        <ele>982.07</ele>
        <time>2013-09-01T08:52:57Z</time>
      </trkpt>
      <trkpt lat="45.36579" lon="5.92054">
        <ele>977.64</ele>
        <time>2013-09-01T08:53:11Z</time>
      </trkpt>
      <trkpt lat="45.3656" lon="5.92051">
        <ele>977.18</ele>
        <time>2013-09-01T08:53:21Z</time>
      </trkpt>
      <trkpt lat="45.36542" lon="5.9205">
        <ele>988.47</ele>
        <time>2013-09-01T08:53:31Z</time>
      </trkpt>
      <trkpt lat="45.36524" lon="5.92059">
        <ele>999.2</ele>
        <time>2013-09-01T08:53:40Z</time>
      </trkpt>
      <trkpt lat="45.36505" lon="5.92057">
        <ele>997.6</ele>
        <time>2013-09-01T08:53:52Z</time>
      </trkpt>
      <trkpt lat="45.36486" lon="5.92051">
        <ele>993.7</ele>
        <time>2013-09-01T08:54:03Z</time>
      </trkpt>
      <trkpt lat="45.36468" lon="5.92046">
        <ele>1000.06</ele>
        <time>2013-09-01T08:54:14Z</time>
      </trkpt>
      <trkpt lat="45.36448" lon="5.92045">
        <ele>1006</ele>
        <time>2013-09-01T08:54:25Z</time>
      </trkpt>
      <trkpt lat="45.36429" lon="5.9205">
        <ele>998.91</ele>
        <time>2013-09-01T08:54:37Z</time>
      </trkpt>
      <trkpt lat="45.36411" lon="5.9206">
        <ele>990.88</ele>
        <time>2013-09-01T08:54:48Z</time>
      </trkpt>
      <trkpt lat="45.36393" lon="5.92057">
        <ele>985.7</ele>
        <time>2013-09-01T08:54:58Z</time>
      </trkpt>
      <trkpt lat="45.36374" lon="5.9205">
        <ele>988.5</ele>
        <time>2013-09-01T08:55:10Z</time>
      </trkpt>
      <trkpt lat="45.36355" lon="5.92046">
        <ele>990.11</ele>
        <time>2013-09-01T08:55:20Z</time>
      </trkpt>
      <trkpt lat="45.36339" lon="5.92034">
        <ele>996.67</ele>
        <time>2013-09-01T08:55:31Z</time>
      </trkpt>
      <trkpt lat="45.36324" lon="5.92017">
        <ele>986.88</ele>
        <time>2013-09-01T08:55:40Z</time>
      </trkpt>
      <trkpt lat="45.36311" lon="5.91998">
        <ele>1007.15</ele>
        <time>2013-09-01T08:55:49Z</time>
      </trkpt>
      <trkpt lat="45.36293" lon="5.91992">
        <ele>1006.64</ele>
        <time>2013-09-01T08:55:59Z</time>
      </trkpt>
      <trkpt lat="45.36274" lon="5.91987">
        <ele>1011.52</ele>
        <time>2013-09-01T08:56:10Z</time>
      </trkpt>
      <trkpt lat="45.36257" lon="5.91977">
        <ele>1005.84</ele>
        <time>2013-09-01T08:56:20Z</time>
      </trkpt>
      <trkpt lat="45.36242" lon="5.91961">
        <ele>1014.32</ele>
        <time>2013-09-01T08:56:31Z</time>
      </trkpt>
      <trkpt lat="45.36223" lon="5.91961">
        <ele>1009.44</ele>
        <time>2013-09-01T08:56:41Z</time>
      </trkpt>
      <trkpt lat="45.36203" lon="5.91965">
        <ele>1014.11</ele>
        <time>2013-09-01T08:56:50Z</time>
      </trkpt>
      <trkpt lat="45.36184" lon="5.91964">
        <ele>1010.01</ele>
        <time>2013-09-01T08:57:00Z</time>
      </trkpt>
      <trkpt lat="45.36167" lon="5.91957">
        <ele>1007.33</ele>
        <time>2013-09-01T08:57:08Z</time>
      </trkpt>
      <trkpt lat="45.36152" lon="5.91942">
        <ele>991.67</ele>
        <time>2013-09-01T08:57:16Z</time>
      </trkpt>
      <trkpt lat="45.36134" lon="5.91932">
        <ele>987.71</ele>
        <time>2013-09-01T08:57:24Z</time>
      </trkpt>
      <trkpt lat="45.36117" lon="5.91921">
        <ele>999.65</ele>
        <time>2013-09-01T08:57:32Z</time>
      </trkpt>
      <trkpt lat="45.36102" lon="5.91903">
        <ele>996.75</ele>
        <time>2013-09-01T08:57:43Z</time>
      </trkpt>
      <trkpt lat="45.36085" lon="5.91889">
        <ele>1000.21</ele>
        <time>2013-09-01T08:57:54Z</time>
      </trkpt>
      <trkpt lat="45.3607" lon="5.91874">
        <ele>1004.41</ele>
        <time>2013-09-01T08:58:01Z</time>
      </trkpt>
      <trkpt lat="45.36057" lon="5.91852">
        <ele>997.6</ele>
        <time>2013-09-01T08:58:11Z</time>
      </trkpt>
      <trkpt lat="45.3604" lon="5.91838">
        <ele>1005.93</ele>
        <time>2013-09-01T08:58:20Z</time>
      </trkpt>
      <trkpt lat="45.36024" lon="5.91827">
        <ele>1017.09</ele>
        <time>2013-09-01T08:58:29Z</time>
      </trkpt>
      <trkpt lat="45.36008" lon="5.91814">
        <ele>1021.22</ele>
        <time>2013-09-01T08:58:37Z</time>
      </trkpt>
      <trkpt lat="45.35992" lon="5.91803">
        <ele>1026.69</ele>
        <time>2013-09-01T08:58:47Z</time>
      </trkpt>
      <trkpt lat="45.35975" lon="5.91792">
        <ele>1018.73</ele>
        <time>2013-09-01T08:58:58Z</time>
      </trkpt>
      <trkpt lat="45.35957" lon="5.91786">
        <ele>1020.3</ele>
        <time>2013-09-01T08:59:07Z</time>
      </trkpt>
      <trkpt lat="45.35939" lon="5.91784">
        <ele>1028.58</ele>
        <time>2013-09-01T08:59:16Z</time>
      </trkpt>
      <trkpt lat="45.35919" lon="5.91779">
        <ele>1040.54</ele>
        <time>2013-09-01T08:59:25Z</time>
      </trkpt>
      <trkpt lat="45.359" lon="5.91776">
        <ele>1048.55</ele>
        <time>2013-09-01T08:59:36Z</time>
      </trkpt>
      <trkpt lat="45.35881" lon="5.91774">
        <ele>1051.04</ele>
        <time>2013-09-01T08:59:50Z</time>
      </trkpt>
      <trkpt lat="45.35862" lon="5.91779">
        <ele>1052.12</ele>
        <time>2013-09-01T09:00:00Z</time>
      </trkpt>
      <trkpt lat="45.35843" lon="5.91784">
        <ele>1053.04</ele>
        <time>2013-09-01T09:00:12Z</time>
      </trkpt>
      <trkpt lat="45.35824" lon="5.91781">
        <ele>1043.72</ele>
        <time>2013-09-01T09:00:22Z</time>
      </trkpt>
      <trkpt lat="45.35806" lon="5.91786">
        <ele>1037.67</ele>
        <time>2013-09-01T09:00:32Z</time>
      </trkpt>
      <trkpt lat="45.35787" lon="5.91791">
        <ele>1034.07</ele>
        <time>2013-09-01T09:00:43Z</time>
      </trkpt>
      <trkpt lat="45.35769" lon="5.91798">
        <ele>1025.88</ele>
        <time>2013-09-01T09:00:53Z</time>
      </trkpt>
      <trkpt lat="45.3575" lon="5.91805">
        <ele>1029.18</ele>
        <time>2013-09-01T09:01:02Z</time>
      </trkpt>
      <trkpt lat="45.3573" lon="5.91809">
        <ele>1037.3</ele>
        <time>2013-09-01T09:01:11Z</time>
      </trkpt>
      <trkpt lat="45.35711" lon="5.91812">
        <ele>1046.65</ele>
        <time>2013-09-01T09:01:21Z</time>
      </trkpt>
      <trkpt lat="45.35695" lon="5.91823">
        <ele>1056.93</ele>
        <time>2013-09-01T09:01:30Z</time>
      </trkpt>
      <trkpt lat="45.35677" lon="5.91832">
        <ele>1063.86</ele>
        <time>2013-09-01T09:01:41Z</time>
      </trkpt>
      <trkpt lat="45.3566" lon="5.91842">
        <ele>1060.56</ele>
        <time>2013-09-01T09:01:51Z</time>
      </trkpt>
      <trkpt lat="45.35589" lon="5.91871">
        <ele>1053.72</ele>
        <time>2013-09-01T09:02:58Z</time>
      </trkpt>
      <trkpt lat="45.35572" lon="5.91879">
        <ele>1059.17</ele>
        <time>2013-09-01T09:04:06Z</time>
      </trkpt>
      <trkpt lat="45.35551" lon="5.91874">
        <ele>1064.39</ele>
        <time>2013-09-01T09:04:11Z</time>
      </trkpt>
      <trkpt lat="45.3553" lon="5.91864">
        <ele>1064.2</ele>
        <time>2013-09-01T09:04:15Z</time>
      </trkpt>
      <trkpt lat="45.35509" lon="5.91853">
        <ele>1061.73</ele>
        <time>2013-09-01T09:04:18Z</time>
      </trkpt>
      <trkpt lat="45.35486" lon="5.91841">
        <ele>1059.8</ele>
        <time>2013-09-01T09:04:21Z</time>
      </trkpt>
      <trkpt lat="45.3546" lon="5.91831">
        <ele>1055.83</ele>
        <time>2013-09-01T09:04:24Z</time>
      </trkpt>
      <trkpt lat="45.35441" lon="5.91829">
        <ele>1051.41</ele>
        <time>2013-09-01T09:04:26Z</time>
      </trkpt>
      <trkpt lat="45.35416" lon="5.91829">
        <ele>1048.32</ele>
        <time>2013-09-01T09:04:29Z</time>
      </trkpt>
      <trkpt lat="45.35391" lon="5.91823">
        <ele>1043.52</ele>
        <time>2013-09-01T09:04:32Z</time>
      </trkpt>
      <trkpt lat="45.35373" lon="5.9181">
        <ele>1039.8</ele>
        <time>2013-09-01T09:04:35Z</time>
      </trkpt>
      <trkpt lat="45.35353" lon="5.91802">
        <ele>1032.98</ele>
        <time>2013-09-01T09:04:40Z</time>
      </trkpt>
      <trkpt lat="45.35344" lon="5.91826">
        <ele>1030.57</ele>
        <time>2013-09-01T09:04:45Z</time>
      </trkpt>
      <trkpt lat="45.35337" lon="5.91857">
        <ele>1033.39</ele>
        <time>2013-09-01T09:04:49Z</time>
      </trkpt>
      <trkpt lat="45.3532" lon="5.91868">
        <ele>1042.64</ele>
        <time>2013-09-01T09:04:55Z</time>
      </trkpt>
      <trkpt lat="45.35304" lon="5.91856">
        <ele>1049.51</ele>
        <time>2013-09-01T09:05:01Z</time>
      </trkpt>
      <trkpt lat="45.35284" lon="5.91837">
        <ele>1051.62</ele>
        <time>2013-09-01T09:05:06Z</time>
      </trkpt>
      <trkpt lat="45.3527" lon="5.91815">
        <ele>1043.6</ele>
        <time>2013-09-01T09:05:10Z</time>
      </trkpt>
      <trkpt lat="45.35256" lon="5.91793">
        <ele>1034.3</ele>
        <time>2013-09-01T09:05:14Z</time>
      </trkpt>
      <trkpt lat="45.3524" lon="5.91768">
        <ele>1029.12</ele>
        <time>2013-09-01T09:05:18Z</time>
      </trkpt>
      <trkpt lat="45.35224" lon="5.91756">
        <ele>1024.51</ele>
        <time>2013-09-01T09:05:21Z</time>
      </trkpt>
      <trkpt lat="45.35197" lon="5.91756">
        <ele>1014.98</ele>
        <time>2013-09-01T09:05:28Z</time>
      </trkpt>
      <trkpt lat="45.35178" lon="5.9176">
        <ele>1031.24</ele>
        <time>2013-09-01T09:05:46Z</time>
      </trkpt>
      <trkpt lat="45.35159" lon="5.91767">
        <ele>1023.24</ele>
        <time>2013-09-01T09:05:56Z</time>
      </trkpt>
      <trkpt lat="45.35139" lon="5.91775">
        <ele>1017.03</ele>
        <time>2013-09-01T09:06:05Z</time>
      </trkpt>
      <trkpt lat="45.35121" lon="5.91783">
        <ele>1012.84</ele>
        <time>2013-09-01T09:06:12Z</time>
      </trkpt>
      <trkpt lat="45.35103" lon="5.91791">
        <ele>1014.16</ele>
        <time>2013-09-01T09:06:19Z</time>
      </trkpt>
      <trkpt lat="45.35085" lon="5.91793">
        <ele>1018.27</ele>
        <time>2013-09-01T09:06:25Z</time>
      </trkpt>
      <trkpt lat="45.35066" lon="5.91791">
        <ele>1018.13</ele>
        <time>2013-09-01T09:06:32Z</time>
      </trkpt>
      <trkpt lat="45.35048" lon="5.91786">
        <ele>1020.33</ele>
        <time>2013-09-01T09:06:38Z</time>
      </trkpt>
      <trkpt lat="45.35029" lon="5.91783">
        <ele>1019.61</ele>
        <time>2013-09-01T09:06:43Z</time>
      </trkpt>
      <trkpt lat="45.35009" lon="5.91782">
        <ele>1016.97</ele>
        <time>2013-09-01T09:06:49Z</time>
      </trkpt>
      <trkpt lat="45.34986" lon="5.91782">
        <ele>1009.5</ele>
        <time>2013-09-01T09:06:56Z</time>
      </trkpt>
      <trkpt lat="45.34967" lon="5.91791">
        <ele>1014.83</ele>
        <time>2013-09-01T09:07:02Z</time>
      </trkpt>
      <trkpt lat="45.34948" lon="5.91795">
        <ele>1018.63</ele>
        <time>2013-09-01T09:07:50Z</time>
      </trkpt>
      <trkpt lat="45.34929" lon="5.91786">
        <ele>1022.78</ele>
        <time>2013-09-01T09:07:55Z</time>
      </trkpt>
      <trkpt lat="45.34908" lon="5.91776">
        <ele>1022.22</ele>
        <time>2013-09-01T09:07:59Z</time>
      </trkpt>
      <trkpt lat="45.3489" lon="5.91767">
        <ele>1021.19</ele>
        <time>2013-09-01T09:08:04Z</time>
      </trkpt>
      <trkpt lat="45.34872" lon="5.9176">
        <ele>1030.21</ele>
        <time>2013-09-01T09:08:16Z</time>
      </trkpt>
      <trkpt lat="45.34852" lon="5.91752">
        <ele>1018.13</ele>
        <time>2013-09-01T09:08:22Z</time>
      </trkpt>
      <trkpt lat="45.34833" lon="5.91741">
        <ele>1012.44</ele>
        <time>2013-09-01T09:08:27Z</time>
      </trkpt>
      <trkpt lat="45.34813" lon="5.91731">
        <ele>1008.55</ele>
        <time>2013-09-01T09:08:31Z</time>
      </trkpt>
      <trkpt lat="45.34793" lon="5.91726">
        <ele>1001.66</ele>
        <time>2013-09-01T09:08:36Z</time>
      </trkpt>
      <trkpt lat="45.34775" lon="5.91723">
        <ele>999.72</ele>
        <time>2013-09-01T09:08:40Z</time>
      </trkpt>
      <trkpt lat="45.34755" lon="5.91716">
        <ele>996.78</ele>
        <time>2013-09-01T09:08:44Z</time>
      </trkpt>
      <trkpt lat="45.34737" lon="5.91704">
        <ele>994.47</ele>
        <time>2013-09-01T09:08:48Z</time>
      </trkpt>
      <trkpt lat="45.34716" lon="5.91711">
        <ele>991.49</ele>
        <time>2013-09-01T09:08:53Z</time>
      </trkpt>
      <trkpt lat="45.34703" lon="5.91733">
        <ele>985.66</ele>
        <time>2013-09-01T09:08:59Z</time>
      </trkpt>
      <trkpt lat="45.34687" lon="5.91754">
        <ele>977.95</ele>
        <time>2013-09-01T09:09:05Z</time>
      </trkpt>
      <trkpt lat="45.34672" lon="5.91768">
        <ele>975.17</ele>
        <time>2013-09-01T09:09:10Z</time>
      </trkpt>
      <trkpt lat="45.34654" lon="5.91785">
        <ele>967.4</ele>
        <time>2013-09-01T09:09:20Z</time>
      </trkpt>
      <trkpt lat="45.3464" lon="5.91803">
        <ele>993.63</ele>
        <time>2013-09-01T09:09:46Z</time>
      </trkpt>
      <trkpt lat="45.34623" lon="5.91809">
        <ele>1000.3</ele>
        <time>2013-09-01T09:09:55Z</time>
      </trkpt>
      <trkpt lat="45.34604" lon="5.91815">
        <ele>1006.51</ele>
        <time>2013-09-01T09:10:09Z</time>
      </trkpt>
      <trkpt lat="45.34586" lon="5.91822">
        <ele>993.12</ele>
        <time>2013-09-01T09:10:22Z</time>
      </trkpt>
      <trkpt lat="45.34569" lon="5.91834">
        <ele>993.09</ele>
        <time>2013-09-01T09:10:33Z</time>
      </trkpt>
      <trkpt lat="45.34549" lon="5.9184">
        <ele>993.54</ele>
        <time>2013-09-01T09:10:41Z</time>
      </trkpt>
      <trkpt lat="45.3453" lon="5.91842">
        <ele>988.36</ele>
        <time>2013-09-01T09:10:46Z</time>
      </trkpt>
      <trkpt lat="45.34511" lon="5.91836">
        <ele>980.05</ele>
        <time>2013-09-01T09:10:51Z</time>
      </trkpt>
      <trkpt lat="45.34491" lon="5.91824">
        <ele>970.48</ele>
        <time>2013-09-01T09:10:57Z</time>
      </trkpt>
      <trkpt lat="45.3447" lon="5.91819">
        <ele>967.02</ele>
        <time>2013-09-01T09:11:03Z</time>
      </trkpt>
      <trkpt lat="45.34452" lon="5.91812">
        <ele>978.62</ele>
        <time>2013-09-01T09:11:11Z</time>
      </trkpt>
      <trkpt lat="45.34441" lon="5.91791">
        <ele>1001.56</ele>
        <time>2013-09-01T09:11:57Z</time>
      </trkpt>
      <trkpt lat="45.34435" lon="5.91766">
        <ele>991.58</ele>
        <time>2013-09-01T09:12:22Z</time>
      </trkpt>
      <trkpt lat="45.34419" lon="5.91755">
        <ele>975.23</ele>
        <time>2013-09-01T09:12:36Z</time>
      </trkpt>
      <trkpt lat="45.34401" lon="5.91747">
        <ele>978.63</ele>
        <time>2013-09-01T09:12:52Z</time>
      </trkpt>
      <trkpt lat="45.34379" lon="5.91748">
        <ele>984.24</ele>
        <time>2013-09-01T09:13:18Z</time>
      </trkpt>
      <trkpt lat="45.3436" lon="5.91747">
        <ele>980.15</ele>
        <time>2013-09-01T09:13:25Z</time>
      </trkpt>
      <trkpt lat="45.34342" lon="5.91736">
        <ele>968.17</ele>
        <time>2013-09-01T09:13:33Z</time>
      </trkpt>
      <trkpt lat="45.34327" lon="5.91721">
        <ele>955.1</ele>
        <time>2013-09-01T09:13:42Z</time>
      </trkpt>
      <trkpt lat="45.34317" lon="5.917">
        <ele>973.51</ele>
        <time>2013-09-01T09:14:05Z</time>
      </trkpt>
      <trkpt lat="45.34316" lon="5.91673">
        <ele>971.54</ele>
        <time>2013-09-01T09:14:11Z</time>
      </trkpt>
      <trkpt lat="45.34331" lon="5.9166">
        <ele>963.69</ele>
        <time>2013-09-01T09:14:28Z</time>
      </trkpt>
      <trkpt lat="45.34348" lon="5.9165">
        <ele>973.76</ele>
        <time>2013-09-01T09:15:18Z</time>
      </trkpt>
      <trkpt lat="45.34368" lon="5.91641">
        <ele>968.49</ele>
        <time>2013-09-01T09:15:37Z</time>
      </trkpt>
      <trkpt lat="45.34385" lon="5.91632">
        <ele>962.93</ele>
        <time>2013-09-01T09:15:46Z</time>
      </trkpt>
      <trkpt lat="45.34373" lon="5.91613">
        <ele>969.22</ele>
        <time>2013-09-01T09:17:02Z</time>
      </trkpt>
      <trkpt lat="45.34364" lon="5.9159">
        <ele>961.38</ele>
        <time>2013-09-01T09:17:10Z</time>
      </trkpt>
      <trkpt lat="45.34365" lon="5.91562">
        <ele>950.84</ele>
        <time>2013-09-01T09:17:15Z</time>
      </trkpt>
      <trkpt lat="45.34376" lon="5.91536">
        <ele>932.57</ele>
        <time>2013-09-01T09:17:21Z</time>
      </trkpt>
      <trkpt lat="45.34391" lon="5.91518">
        <ele>913.16</ele>
        <time>2013-09-01T09:17:29Z</time>
      </trkpt>
      <trkpt lat="45.34408" lon="5.91502">
        <ele>904.07</ele>
        <time>2013-09-01T09:17:35Z</time>
      </trkpt>
      <trkpt lat="45.34428" lon="5.91492">
        <ele>886.96</ele>
        <time>2013-09-01T09:17:45Z</time>
      </trkpt>
      <trkpt lat="45.34446" lon="5.91478">
        <ele>888.44</ele>
        <time>2013-09-01T09:17:49Z</time>
      </trkpt>
      <trkpt lat="45.34463" lon="5.91458">
        <ele>907.23</ele>
        <time>2013-09-01T09:17:53Z</time>
      </trkpt>
      <trkpt lat="45.34478" lon="5.91442">
        <ele>919.88</ele>
        <time>2013-09-01T09:17:58Z</time>
      </trkpt>
      <trkpt lat="45.34496" lon="5.91433">
        <ele>925.36</ele>
        <time>2013-09-01T09:18:05Z</time>
      </trkpt>
      <trkpt lat="45.345" lon="5.91405">
        <ele>920.52</ele>
        <time>2013-09-01T09:18:14Z</time>
      </trkpt>
      <trkpt lat="45.34489" lon="5.91384">
        <ele>920.79</ele>
        <time>2013-09-01T09:18:19Z</time>
      </trkpt>
      <trkpt lat="45.34471" lon="5.91373">
        <ele>924.95</ele>
        <time>2013-09-01T09:18:25Z</time>
      </trkpt>
      <trkpt lat="45.34452" lon="5.91365">
        <ele>927.13</ele>
        <time>2013-09-01T09:18:31Z</time>
      </trkpt>
      <trkpt lat="45.3444" lon="5.91344">
        <ele>928.06</ele>
        <time>2013-09-01T09:18:37Z</time>
      </trkpt>
      <trkpt lat="45.34434" lon="5.9132">
        <ele>930.3</ele>
        <time>2013-09-01T09:18:43Z</time>
      </trkpt>
      <trkpt lat="45.34423" lon="5.91298">
        <ele>924</ele>
        <time>2013-09-01T09:18:49Z</time>
      </trkpt>
      <trkpt lat="45.34403" lon="5.91295">
        <ele>925.32</ele>
        <time>2013-09-01T09:18:56Z</time>
      </trkpt>
      <trkpt lat="45.34383" lon="5.91289">
        <ele>928.72</ele>
        <time>2013-09-01T09:19:03Z</time>
      </trkpt>
      <trkpt lat="45.34362" lon="5.91283">
        <ele>929.5</ele>
        <time>2013-09-01T09:19:10Z</time>
      </trkpt>
      <trkpt lat="45.3434" lon="5.91274">
        <ele>926.47</ele>
        <time>2013-09-01T09:19:15Z</time>
      </trkpt>
      <trkpt lat="45.34323" lon="5.91266">
        <ele>926.35</ele>
        <time>2013-09-01T09:19:19Z</time>
      </trkpt>
      <trkpt lat="45.34305" lon="5.91258">
        <ele>926.02</ele>
        <time>2013-09-01T09:19:24Z</time>
      </trkpt>
      <trkpt lat="45.34288" lon="5.91248">
        <ele>927.16</ele>
        <time>2013-09-01T09:19:35Z</time>
      </trkpt>
      <trkpt lat="45.34273" lon="5.91231">
        <ele>930.86</ele>
        <time>2013-09-01T09:19:49Z</time>
      </trkpt>
      <trkpt lat="45.34266" lon="5.91206">
        <ele>931.23</ele>
        <time>2013-09-01T09:20:00Z</time>
      </trkpt>
      <trkpt lat="45.34265" lon="5.9118">
        <ele>935.71</ele>
        <time>2013-09-01T09:20:08Z</time>
      </trkpt>
      <trkpt lat="45.34266" lon="5.91153">
        <ele>941.38</ele>
        <time>2013-09-01T09:20:22Z</time>
      </trkpt>
      <trkpt lat="45.34269" lon="5.91127">
        <ele>937.59</ele>
        <time>2013-09-01T09:20:32Z</time>
      </trkpt>
      <trkpt lat="45.34272" lon="5.911">
        <ele>938.73</ele>
        <time>2013-09-01T09:20:43Z</time>
      </trkpt>
      <trkpt lat="45.3428" lon="5.91074">
        <ele>934.22</ele>
        <time>2013-09-01T09:20:51Z</time>
      </trkpt>
      <trkpt lat="45.34284" lon="5.91049">
        <ele>934.43</ele>
        <time>2013-09-01T09:20:58Z</time>
      </trkpt>
      <trkpt lat="45.34286" lon="5.91023">
        <ele>938.32</ele>
        <time>2013-09-01T09:21:03Z</time>
      </trkpt>
      <trkpt lat="45.3429" lon="5.90993">
        <ele>935.76</ele>
        <time>2013-09-01T09:21:08Z</time>
      </trkpt>
      <trkpt lat="45.34292" lon="5.90967">
        <ele>937.18</ele>
        <time>2013-09-01T09:21:17Z</time>
      </trkpt>
      <trkpt lat="45.34272" lon="5.90962">
        <ele>937.48</ele>
        <time>2013-09-01T09:21:24Z</time>
      </trkpt>
      <trkpt lat="45.34252" lon="5.90965">
        <ele>935.32</ele>
        <time>2013-09-01T09:21:29Z</time>
      </trkpt>
      <trkpt lat="45.34233" lon="5.90967">
        <ele>939.35</ele>
        <time>2013-09-01T09:21:36Z</time>
      </trkpt>
      <trkpt lat="45.3422" lon="5.9095">
        <ele>940.67</ele>
        <time>2013-09-01T09:21:42Z</time>
      </trkpt>
      <trkpt lat="45.34222" lon="5.90922">
        <ele>940.86</ele>
        <time>2013-09-01T09:21:47Z</time>
      </trkpt>
      <trkpt lat="45.34223" lon="5.90893">
        <ele>939.84</ele>
        <time>2013-09-01T09:21:51Z</time>
      </trkpt>
      <trkpt lat="45.34222" lon="5.90866">
        <ele>940.48</ele>
        <time>2013-09-01T09:21:55Z</time>
      </trkpt>
      <trkpt lat="45.34218" lon="5.90838">
        <ele>941.4</ele>
        <time>2013-09-01T09:21:58Z</time>
      </trkpt>
      <trkpt lat="45.34209" lon="5.9081">
        <ele>940.61</ele>
        <time>2013-09-01T09:22:01Z</time>
      </trkpt>
      <trkpt lat="45.34192" lon="5.90795">
        <ele>936.34</ele>
        <time>2013-09-01T09:22:05Z</time>
      </trkpt>
      <trkpt lat="45.34175" lon="5.90808">
        <ele>931.07</ele>
        <time>2013-09-01T09:22:10Z</time>
      </trkpt>
      <trkpt lat="45.34162" lon="5.90827">
        <ele>934.01</ele>
        <time>2013-09-01T09:22:17Z</time>
      </trkpt>
      <trkpt lat="45.34146" lon="5.90842">
        <ele>934.05</ele>
        <time>2013-09-01T09:22:28Z</time>
      </trkpt>
      <trkpt lat="45.3413" lon="5.90853">
        <ele>925.01</ele>
        <time>2013-09-01T09:22:39Z</time>
      </trkpt>
      <trkpt lat="45.3411" lon="5.90857">
        <ele>935.01</ele>
        <time>2013-09-01T09:22:46Z</time>
      </trkpt>
      <trkpt lat="45.34091" lon="5.90848">
        <ele>942.26</ele>
        <time>2013-09-01T09:22:53Z</time>
      </trkpt>
      <trkpt lat="45.34074" lon="5.90836">
        <ele>946.17</ele>
        <time>2013-09-01T09:23:19Z</time>
      </trkpt>
      <trkpt lat="45.34059" lon="5.90822">
        <ele>947.7</ele>
        <time>2013-09-01T09:23:24Z</time>
      </trkpt>
      <trkpt lat="45.34039" lon="5.90808">
        <ele>950.49</ele>
        <time>2013-09-01T09:23:29Z</time>
      </trkpt>
      <trkpt lat="45.34022" lon="5.90788">
        <ele>949.31</ele>
        <time>2013-09-01T09:23:33Z</time>
      </trkpt>
      <trkpt lat="45.34026" lon="5.9076">
        <ele>942.93</ele>
        <time>2013-09-01T09:23:37Z</time>
      </trkpt>
      <trkpt lat="45.3404" lon="5.90736">
        <ele>935.77</ele>
        <time>2013-09-01T09:23:41Z</time>
      </trkpt>
      <trkpt lat="45.34046" lon="5.90706">
        <ele>925.93</ele>
        <time>2013-09-01T09:23:45Z</time>
      </trkpt>
      <trkpt lat="45.34049" lon="5.90678">
        <ele>911.48</ele>
        <time>2013-09-01T09:23:51Z</time>
      </trkpt>
      <trkpt lat="45.34043" lon="5.90651">
        <ele>906.1</ele>
        <time>2013-09-01T09:23:54Z</time>
      </trkpt>
      <trkpt lat="45.34037" lon="5.90623">
        <ele>904.91</ele>
        <time>2013-09-01T09:23:57Z</time>
      </trkpt>
      <trkpt lat="45.34027" lon="5.90599">
        <ele>909.86</ele>
        <time>2013-09-01T09:24:00Z</time>
      </trkpt>
      <trkpt lat="45.34014" lon="5.90582">
        <ele>913.73</ele>
        <time>2013-09-01T09:24:03Z</time>
      </trkpt>
      <trkpt lat="45.33995" lon="5.9058">
        <ele>923.09</ele>
        <time>2013-09-01T09:24:08Z</time>
      </trkpt>
      <trkpt lat="45.33977" lon="5.90588">
        <ele>932.74</ele>
        <time>2013-09-01T09:24:12Z</time>
      </trkpt>
      <trkpt lat="45.33957" lon="5.906">
        <ele>941.78</ele>
        <time>2013-09-01T09:24:16Z</time>
      </trkpt>
      <trkpt lat="45.33941" lon="5.90611">
        <ele>943.74</ele>
        <time>2013-09-01T09:24:20Z</time>
      </trkpt>
      <trkpt lat="45.33915" lon="5.90618">
        <ele>937.1</ele>
        <time>2013-09-01T09:24:26Z</time>
      </trkpt>
      <trkpt lat="45.33898" lon="5.90605">
        <ele>943.3</ele>
        <time>2013-09-01T09:24:32Z</time>
      </trkpt>
      <trkpt lat="45.33878" lon="5.90609">
        <ele>942.15</ele>
        <time>2013-09-01T09:24:38Z</time>
      </trkpt>
      <trkpt lat="45.33857" lon="5.90612">
        <ele>943.11</ele>
        <time>2013-09-01T09:24:44Z</time>
      </trkpt>
      <trkpt lat="45.33834" lon="5.90606">
        <ele>944.73</ele>
        <time>2013-09-01T09:24:52Z</time>
      </trkpt>
      <trkpt lat="45.33813" lon="5.90597">
        <ele>938.05</ele>
        <time>2013-09-01T09:24:57Z</time>
      </trkpt>
      <trkpt lat="45.33795" lon="5.90587">
        <ele>937.03</ele>
        <time>2013-09-01T09:25:01Z</time>
      </trkpt>
      <trkpt lat="45.33778" lon="5.90578">
        <ele>938.26</ele>
        <time>2013-09-01T09:25:05Z</time>
      </trkpt>
      <trkpt lat="45.33757" lon="5.9057">
        <ele>939.86</ele>
        <time>2013-09-01T09:25:10Z</time>
      </trkpt>
      <trkpt lat="45.33737" lon="5.90563">
        <ele>939.75</ele>
        <time>2013-09-01T09:25:14Z</time>
      </trkpt>
      <trkpt lat="45.33718" lon="5.90561">
        <ele>941.91</ele>
        <time>2013-09-01T09:25:18Z</time>
      </trkpt>
      <trkpt lat="45.337" lon="5.90559">
        <ele>940.18</ele>
        <time>2013-09-01T09:25:22Z</time>
      </trkpt>
      <trkpt lat="45.3368" lon="5.90551">
        <ele>941.16</ele>
        <time>2013-09-01T09:25:26Z</time>
      </trkpt>
      <trkpt lat="45.33661" lon="5.90538">
        <ele>941.01</ele>
        <time>2013-09-01T09:25:30Z</time>
      </trkpt>
      <trkpt lat="45.33654" lon="5.90509">
        <ele>936.05</ele>
        <time>2013-09-01T09:25:34Z</time>
      </trkpt>
      <trkpt lat="45.33649" lon="5.90481">
        <ele>930.48</ele>
        <time>2013-09-01T09:25:37Z</time>
      </trkpt>
      <trkpt lat="45.3363" lon="5.9046">
        <ele>924.98</ele>
        <time>2013-09-01T09:25:41Z</time>
      </trkpt>
      <trkpt lat="45.33611" lon="5.90468">
        <ele>922.47</ele>
        <time>2013-09-01T09:25:44Z</time>
      </trkpt>
      <trkpt lat="45.33599" lon="5.90488">
        <ele>918.41</ele>
        <time>2013-09-01T09:25:47Z</time>
      </trkpt>
      <trkpt lat="45.33586" lon="5.90508">
        <ele>917.27</ele>
        <time>2013-09-01T09:25:50Z</time>
      </trkpt>
      <trkpt lat="45.33564" lon="5.90517">
        <ele>912.78</ele>
        <time>2013-09-01T09:25:53Z</time>
      </trkpt>
      <trkpt lat="45.3354" lon="5.90532">
        <ele>911.73</ele>
        <time>2013-09-01T09:25:56Z</time>
      </trkpt>
      <trkpt lat="45.3352" lon="5.90555">
        <ele>910.39</ele>
        <time>2013-09-01T09:25:59Z</time>
      </trkpt>
      <trkpt lat="45.33503" lon="5.90569">
        <ele>910.54</ele>
        <time>2013-09-01T09:26:01Z</time>
      </trkpt>
      <trkpt lat="45.33486" lon="5.90579">
        <ele>909.63</ele>
        <time>2013-09-01T09:26:03Z</time>
      </trkpt>
      <trkpt lat="45.3346" lon="5.90587">
        <ele>910.79</ele>
        <time>2013-09-01T09:26:06Z</time>
      </trkpt>
      <trkpt lat="45.3344" lon="5.90589">
        <ele>910.93</ele>
        <time>2013-09-01T09:26:09Z</time>
      </trkpt>
      <trkpt lat="45.33422" lon="5.90581">
        <ele>911.62</ele>
        <time>2013-09-01T09:26:12Z</time>
      </trkpt>
      <trkpt lat="45.33405" lon="5.90564">
        <ele>910.68</ele>
        <time>2013-09-01T09:26:15Z</time>
      </trkpt>
      <trkpt lat="45.33387" lon="5.90549">
        <ele>911.81</ele>
        <time>2013-09-01T09:26:18Z</time>
      </trkpt>
      <trkpt lat="45.33365" lon="5.90541">
        <ele>912.43</ele>
        <time>2013-09-01T09:26:21Z</time>
      </trkpt>
      <trkpt lat="45.33343" lon="5.90535">
        <ele>911.17</ele>
        <time>2013-09-01T09:26:24Z</time>
      </trkpt>
      <trkpt lat="45.33317" lon="5.90528">
        <ele>910.47</ele>
        <time>2013-09-01T09:26:27Z</time>
      </trkpt>
      <trkpt lat="45.33299" lon="5.90521">
        <ele>909.96</ele>
        <time>2013-09-01T09:26:29Z</time>
      </trkpt>
      <trkpt lat="45.3328" lon="5.90514">
        <ele>909.05</ele>
        <time>2013-09-01T09:26:31Z</time>
      </trkpt>
      <trkpt lat="45.33261" lon="5.90505">
        <ele>907.85</ele>
        <time>2013-09-01T09:26:33Z</time>
      </trkpt>
      <trkpt lat="45.33242" lon="5.90496">
        <ele>906.99</ele>
        <time>2013-09-01T09:26:35Z</time>
      </trkpt>
      <trkpt lat="45.33224" lon="5.90485">
        <ele>904.5</ele>
        <time>2013-09-01T09:26:37Z</time>
      </trkpt>
      <trkpt lat="45.33207" lon="5.90474">
        <ele>902.48</ele>
        <time>2013-09-01T09:26:39Z</time>
      </trkpt>
      <trkpt lat="45.33184" lon="5.90464">
        <ele>899.52</ele>
        <time>2013-09-01T09:26:42Z</time>
      </trkpt>
      <trkpt lat="45.33164" lon="5.90475">
        <ele>896.52</ele>
        <time>2013-09-01T09:26:45Z</time>
      </trkpt>
      <trkpt lat="45.33144" lon="5.90481">
        <ele>893.15</ele>
        <time>2013-09-01T09:26:48Z</time>
      </trkpt>
      <trkpt lat="45.33123" lon="5.90479">
        <ele>892.52</ele>
        <time>2013-09-01T09:26:51Z</time>
      </trkpt>
      <trkpt lat="45.33101" lon="5.90474">
        <ele>890.67</ele>
        <time>2013-09-01T09:26:54Z</time>
      </trkpt>
      <trkpt lat="45.33081" lon="5.90471">
        <ele>887.23</ele>
        <time>2013-09-01T09:26:57Z</time>
      </trkpt>
      <trkpt lat="45.33059" lon="5.90467">
        <ele>882.37</ele>
        <time>2013-09-01T09:27:00Z</time>
      </trkpt>
      <trkpt lat="45.33043" lon="5.90449">
        <ele>884.77</ele>
        <time>2013-09-01T09:27:06Z</time>
      </trkpt>
      <trkpt lat="45.33027" lon="5.90435">
        <ele>885.6</ele>
        <time>2013-09-01T09:27:11Z</time>
      </trkpt>
      <trkpt lat="45.33008" lon="5.90432">
        <ele>887.24</ele>
        <time>2013-09-01T09:27:19Z</time>
      </trkpt>
      <trkpt lat="45.32989" lon="5.90441">
        <ele>887.19</ele>
        <time>2013-09-01T09:27:27Z</time>
      </trkpt>
      <trkpt lat="45.32971" lon="5.90448">
        <ele>890.82</ele>
        <time>2013-09-01T09:27:34Z</time>
      </trkpt>
      <trkpt lat="45.32953" lon="5.90447">
        <ele>893.63</ele>
        <time>2013-09-01T09:27:41Z</time>
      </trkpt>
      <trkpt lat="45.32935" lon="5.90441">
        <ele>898.41</ele>
        <time>2013-09-01T09:27:49Z</time>
      </trkpt>
      <trkpt lat="45.32916" lon="5.90436">
        <ele>896.06</ele>
        <time>2013-09-01T09:27:58Z</time>
      </trkpt>
      <trkpt lat="45.32898" lon="5.90426">
        <ele>902.68</ele>
        <time>2013-09-01T09:28:06Z</time>
      </trkpt>
      <trkpt lat="45.32881" lon="5.90414">
        <ele>907.47</ele>
        <time>2013-09-01T09:28:15Z</time>
      </trkpt>
      <trkpt lat="45.32865" lon="5.904">
        <ele>917.39</ele>
        <time>2013-09-01T09:28:25Z</time>
      </trkpt>
      <trkpt lat="45.32853" lon="5.90381">
        <ele>914.6</ele>
        <time>2013-09-01T09:28:32Z</time>
      </trkpt>
      <trkpt lat="45.32843" lon="5.90359">
        <ele>909.46</ele>
        <time>2013-09-01T09:28:38Z</time>
      </trkpt>
      <trkpt lat="45.32835" lon="5.90335">
        <ele>910.89</ele>
        <time>2013-09-01T09:28:45Z</time>
      </trkpt>
      <trkpt lat="45.32825" lon="5.9031">
        <ele>914.84</ele>
        <time>2013-09-01T09:28:52Z</time>
      </trkpt>
      <trkpt lat="45.32817" lon="5.90286">
        <ele>916.33</ele>
        <time>2013-09-01T09:28:58Z</time>
      </trkpt>
      <trkpt lat="45.32808" lon="5.90261">
        <ele>917.75</ele>
        <time>2013-09-01T09:29:04Z</time>
      </trkpt>
      <trkpt lat="45.328" lon="5.90237">
        <ele>916.15</ele>
        <time>2013-09-01T09:29:09Z</time>
      </trkpt>
      <trkpt lat="45.32791" lon="5.9021">
        <ele>911.36</ele>
        <time>2013-09-01T09:29:15Z</time>
      </trkpt>
      <trkpt lat="45.3278" lon="5.90186">
        <ele>913.39</ele>
        <time>2013-09-01T09:29:20Z</time>
      </trkpt>
      <trkpt lat="45.32769" lon="5.90162">
        <ele>910.79</ele>
        <time>2013-09-01T09:29:25Z</time>
      </trkpt>
      <trkpt lat="45.32754" lon="5.90138">
        <ele>907.82</ele>
        <time>2013-09-01T09:29:30Z</time>
      </trkpt>
      <trkpt lat="45.3274" lon="5.90118">
        <ele>909.29</ele>
        <time>2013-09-01T09:29:35Z</time>
      </trkpt>
      <trkpt lat="45.32727" lon="5.90095">
        <ele>909.86</ele>
        <time>2013-09-01T09:29:41Z</time>
      </trkpt>
      <trkpt lat="45.32712" lon="5.90069">
        <ele>908.79</ele>
        <time>2013-09-01T09:29:46Z</time>
      </trkpt>
      <trkpt lat="45.32698" lon="5.90045">
        <ele>911.64</ele>
        <time>2013-09-01T09:29:50Z</time>
      </trkpt>
      <trkpt lat="45.32685" lon="5.90025">
        <ele>914.58</ele>
        <time>2013-09-01T09:29:54Z</time>
      </trkpt>
      <trkpt lat="45.32671" lon="5.89999">
        <ele>918.1</ele>
        <time>2013-09-01T09:29:58Z</time>
      </trkpt>
      <trkpt lat="45.32659" lon="5.89978">
        <ele>917.26</ele>
        <time>2013-09-01T09:30:02Z</time>
      </trkpt>
      <trkpt lat="45.32647" lon="5.89959">
        <ele>917.23</ele>
        <time>2013-09-01T09:30:06Z</time>
      </trkpt>
      <trkpt lat="45.32633" lon="5.89937">
        <ele>916.5</ele>
        <time>2013-09-01T09:30:11Z</time>
      </trkpt>
      <trkpt lat="45.32619" lon="5.89917">
        <ele>912.88</ele>
        <time>2013-09-01T09:30:15Z</time>
      </trkpt>
      <trkpt lat="45.32605" lon="5.89899">
        <ele>915.72</ele>
        <time>2013-09-01T09:30:19Z</time>
      </trkpt>
      <trkpt lat="45.32593" lon="5.89881">
        <ele>916.7</ele>
        <time>2013-09-01T09:30:23Z</time>
      </trkpt>
      <trkpt lat="45.32578" lon="5.8986">
        <ele>916.16</ele>
        <time>2013-09-01T09:30:29Z</time>
      </trkpt>
      <trkpt lat="45.32562" lon="5.8984">
        <ele>913.77</ele>
        <time>2013-09-01T09:30:35Z</time>
      </trkpt>
      <trkpt lat="45.32547" lon="5.89821">
        <ele>912.88</ele>
        <time>2013-09-01T09:30:42Z</time>
      </trkpt>
      <trkpt lat="45.32531" lon="5.898">
        <ele>913.46</ele>
        <time>2013-09-01T09:30:49Z</time>
      </trkpt>
      <trkpt lat="45.32515" lon="5.89783">
        <ele>915.13</ele>
        <time>2013-09-01T09:30:54Z</time>
      </trkpt>
      <trkpt lat="45.32497" lon="5.89766">
        <ele>921.78</ele>
        <time>2013-09-01T09:31:00Z</time>
      </trkpt>
      <trkpt lat="45.32485" lon="5.89743">
        <ele>921.33</ele>
        <time>2013-09-01T09:31:06Z</time>
      </trkpt>
      <trkpt lat="45.32476" lon="5.8972">
        <ele>914.03</ele>
        <time>2013-09-01T09:31:12Z</time>
      </trkpt>
      <trkpt lat="45.32468" lon="5.89697">
        <ele>914.79</ele>
        <time>2013-09-01T09:31:18Z</time>
      </trkpt>
      <trkpt lat="45.32458" lon="5.8967">
        <ele>917.4</ele>
        <time>2013-09-01T09:31:24Z</time>
      </trkpt>
      <trkpt lat="45.32445" lon="5.89646">
        <ele>919.17</ele>
        <time>2013-09-01T09:31:29Z</time>
      </trkpt>
      <trkpt lat="45.32435" lon="5.89622">
        <ele>922.83</ele>
        <time>2013-09-01T09:31:34Z</time>
      </trkpt>
      <trkpt lat="45.32427" lon="5.89597">
        <ele>924.53</ele>
        <time>2013-09-01T09:31:38Z</time>
      </trkpt>
      <trkpt lat="45.32422" lon="5.89562">
        <ele>921.77</ele>
        <time>2013-09-01T09:31:46Z</time>
      </trkpt>
      <trkpt lat="45.3241" lon="5.89539">
        <ele>924.7</ele>
        <time>2013-09-01T09:31:51Z</time>
      </trkpt>
      <trkpt lat="45.32307" lon="5.89406">
        <ele>943.23</ele>
        <time>2013-09-01T09:33:23Z</time>
      </trkpt>
      <trkpt lat="45.32286" lon="5.89392">
        <ele>940.07</ele>
        <time>2013-09-01T09:33:35Z</time>
      </trkpt>
      <trkpt lat="45.32271" lon="5.89376">
        <ele>941.94</ele>
        <time>2013-09-01T09:33:44Z</time>
      </trkpt>
      <trkpt lat="45.32261" lon="5.89354">
        <ele>940.45</ele>
        <time>2013-09-01T09:34:00Z</time>
      </trkpt>
      <trkpt lat="45.32249" lon="5.89334">
        <ele>939.5</ele>
        <time>2013-09-01T09:34:14Z</time>
      </trkpt>
      <trkpt lat="45.32223" lon="5.89316">
        <ele>960.82</ele>
        <time>2013-09-01T09:34:31Z</time>
      </trkpt>
      <trkpt lat="45.32215" lon="5.89293">
        <ele>966.68</ele>
        <time>2013-09-01T09:34:43Z</time>
      </trkpt>
      <trkpt lat="45.32206" lon="5.89271">
        <ele>958.02</ele>
        <time>2013-09-01T09:34:54Z</time>
      </trkpt>
      <trkpt lat="45.32193" lon="5.89252">
        <ele>957.25</ele>
        <time>2013-09-01T09:35:08Z</time>
      </trkpt>
      <trkpt lat="45.32179" lon="5.89235">
        <ele>954.69</ele>
        <time>2013-09-01T09:35:19Z</time>
      </trkpt>
      <trkpt lat="45.32168" lon="5.89215">
        <ele>959.49</ele>
        <time>2013-09-01T09:35:26Z</time>
      </trkpt>
      <trkpt lat="45.32153" lon="5.89196">
        <ele>962.24</ele>
        <time>2013-09-01T09:35:31Z</time>
      </trkpt>
      <trkpt lat="45.32138" lon="5.89183">
        <ele>959.74</ele>
        <time>2013-09-01T09:35:39Z</time>
      </trkpt>
      <trkpt lat="45.32121" lon="5.89171">
        <ele>963.97</ele>
        <time>2013-09-01T09:35:48Z</time>
      </trkpt>
      <trkpt lat="45.32106" lon="5.89152">
        <ele>961.34</ele>
        <time>2013-09-01T09:35:54Z</time>
      </trkpt>
      <trkpt lat="45.32088" lon="5.89137">
        <ele>958.65</ele>
        <time>2013-09-01T09:35:58Z</time>
      </trkpt>
      <trkpt lat="45.32069" lon="5.89132">
        <ele>957.99</ele>
        <time>2013-09-01T09:36:03Z</time>
      </trkpt>
      <trkpt lat="45.32048" lon="5.89123">
        <ele>960.75</ele>
        <time>2013-09-01T09:36:11Z</time>
      </trkpt>
      <trkpt lat="45.32033" lon="5.89105">
        <ele>962.98</ele>
        <time>2013-09-01T09:36:15Z</time>
      </trkpt>
      <trkpt lat="45.32014" lon="5.8909">
        <ele>962.25</ele>
        <time>2013-09-01T09:36:20Z</time>
      </trkpt>
      <trkpt lat="45.31992" lon="5.89101">
        <ele>961.52</ele>
        <time>2013-09-01T09:36:24Z</time>
      </trkpt>
      <trkpt lat="45.31972" lon="5.89102">
        <ele>958.9</ele>
        <time>2013-09-01T09:36:27Z</time>
      </trkpt>
      <trkpt lat="45.31952" lon="5.891">
        <ele>956.25</ele>
        <time>2013-09-01T09:36:30Z</time>
      </trkpt>
      <trkpt lat="45.3195" lon="5.89115">
        <ele>948.88</ele>
        <time>2013-09-01T14:02:08Z</time>
      </trkpt>
      <trkpt lat="45.31934" lon="5.89095">
        <ele>952.28</ele>
        <time>2013-09-01T14:05:55Z</time>
      </trkpt>
      <trkpt lat="45.31928" lon="5.89069">
        <ele>954.71</ele>
        <time>2013-09-01T14:06:03Z</time>
      </trkpt>
      <trkpt lat="45.31921" lon="5.89038">
        <ele>954.57</ele>
        <time>2013-09-01T14:06:07Z</time>
      </trkpt>
      <trkpt lat="45.31912" lon="5.89007">
        <ele>957.82</ele>
        <time>2013-09-01T14:06:12Z</time>
      </trkpt>
      <trkpt lat="45.31899" lon="5.88976">
        <ele>956.25</ele>
        <time>2013-09-01T14:06:16Z</time>
      </trkpt>
      <trkpt lat="45.31889" lon="5.88955">
        <ele>951.68</ele>
        <time>2013-09-01T14:06:20Z</time>
      </trkpt>
      <trkpt lat="45.31879" lon="5.88931">
        <ele>949.79</ele>
        <time>2013-09-01T14:06:24Z</time>
      </trkpt>
      <trkpt lat="45.31864" lon="5.88915">
        <ele>948.92</ele>
        <time>2013-09-01T14:06:29Z</time>
      </trkpt>
      <trkpt lat="45.31846" lon="5.88905">
        <ele>943.67</ele>
        <time>2013-09-01T14:06:35Z</time>
      </trkpt>
      <trkpt lat="45.31826" lon="5.88897">
        <ele>943.12</ele>
        <time>2013-09-01T14:06:39Z</time>
      </trkpt>
      <trkpt lat="45.31807" lon="5.88887">
        <ele>940.66</ele>
        <time>2013-09-01T14:06:43Z</time>
      </trkpt>
      <trkpt lat="45.3179" lon="5.88875">
        <ele>937.18</ele>
        <time>2013-09-01T14:06:48Z</time>
      </trkpt>
      <trkpt lat="45.31774" lon="5.88863">
        <ele>930.89</ele>
        <time>2013-09-01T14:06:51Z</time>
      </trkpt>
      <trkpt lat="45.31757" lon="5.88851">
        <ele>933.1</ele>
        <time>2013-09-01T14:06:55Z</time>
      </trkpt>
      <trkpt lat="45.31738" lon="5.88845">
        <ele>934.48</ele>
        <time>2013-09-01T14:07:00Z</time>
      </trkpt>
      <trkpt lat="45.3172" lon="5.8883">
        <ele>927.81</ele>
        <time>2013-09-01T14:07:06Z</time>
      </trkpt>
      <trkpt lat="45.317" lon="5.88818">
        <ele>924.97</ele>
        <time>2013-09-01T14:07:11Z</time>
      </trkpt>
      <trkpt lat="45.31683" lon="5.88804">
        <ele>928.91</ele>
        <time>2013-09-01T14:07:15Z</time>
      </trkpt>
      <trkpt lat="45.31667" lon="5.88789">
        <ele>930.11</ele>
        <time>2013-09-01T14:07:19Z</time>
      </trkpt>
      <trkpt lat="45.31649" lon="5.88783">
        <ele>933.19</ele>
        <time>2013-09-01T14:07:23Z</time>
      </trkpt>
      <trkpt lat="45.31631" lon="5.88791">
        <ele>934.89</ele>
        <time>2013-09-01T14:07:26Z</time>
      </trkpt>
      <trkpt lat="45.31613" lon="5.88805">
        <ele>937.98</ele>
        <time>2013-09-01T14:07:30Z</time>
      </trkpt>
      <trkpt lat="45.31592" lon="5.88815">
        <ele>937.8</ele>
        <time>2013-09-01T14:07:35Z</time>
      </trkpt>
      <trkpt lat="45.31571" lon="5.8882">
        <ele>940.51</ele>
        <time>2013-09-01T14:07:39Z</time>
      </trkpt>
      <trkpt lat="45.31549" lon="5.8882">
        <ele>945.15</ele>
        <time>2013-09-01T14:07:43Z</time>
      </trkpt>
      <trkpt lat="45.3153" lon="5.88815">
        <ele>947.95</ele>
        <time>2013-09-01T14:07:47Z</time>
      </trkpt>
      <trkpt lat="45.31512" lon="5.88806">
        <ele>948.84</ele>
        <time>2013-09-01T14:07:51Z</time>
      </trkpt>
      <trkpt lat="45.31494" lon="5.888">
        <ele>949.54</ele>
        <time>2013-09-01T14:07:55Z</time>
      </trkpt>
      <trkpt lat="45.31476" lon="5.88794">
        <ele>947.17</ele>
        <time>2013-09-01T14:07:59Z</time>
      </trkpt>
      <trkpt lat="45.31455" lon="5.88789">
        <ele>948.28</ele>
        <time>2013-09-01T14:08:04Z</time>
      </trkpt>
      <trkpt lat="45.31436" lon="5.88789">
        <ele>940.48</ele>
        <time>2013-09-01T14:08:09Z</time>
      </trkpt>
      <trkpt lat="45.31417" lon="5.88783">
        <ele>937.44</ele>
        <time>2013-09-01T14:08:13Z</time>
      </trkpt>
      <trkpt lat="45.31399" lon="5.88779">
        <ele>937.8</ele>
        <time>2013-09-01T14:08:17Z</time>
      </trkpt>
      <trkpt lat="45.31378" lon="5.88772">
        <ele>936.81</ele>
        <time>2013-09-01T14:08:21Z</time>
      </trkpt>
      <trkpt lat="45.31358" lon="5.88764">
        <ele>933.43</ele>
        <time>2013-09-01T14:08:26Z</time>
      </trkpt>
      <trkpt lat="45.31339" lon="5.8875">
        <ele>935.72</ele>
        <time>2013-09-01T14:08:31Z</time>
      </trkpt>
      <trkpt lat="45.3132" lon="5.88743">
        <ele>937.74</ele>
        <time>2013-09-01T14:08:37Z</time>
      </trkpt>
      <trkpt lat="45.31299" lon="5.88741">
        <ele>942.69</ele>
        <time>2013-09-01T14:08:43Z</time>
      </trkpt>
      <trkpt lat="45.31279" lon="5.88746">
        <ele>948.99</ele>
        <time>2013-09-01T14:08:49Z</time>
      </trkpt>
      <trkpt lat="45.31263" lon="5.88733">
        <ele>948.08</ele>
        <time>2013-09-01T14:08:57Z</time>
      </trkpt>
      <trkpt lat="45.31266" lon="5.88705">
        <ele>950</ele>
        <time>2013-09-01T14:09:04Z</time>
      </trkpt>
      <trkpt lat="45.3128" lon="5.88688">
        <ele>943.58</ele>
        <time>2013-09-01T14:09:12Z</time>
      </trkpt>
      <trkpt lat="45.31287" lon="5.88662">
        <ele>955.1</ele>
        <time>2013-09-01T14:09:46Z</time>
      </trkpt>
      <trkpt lat="45.31297" lon="5.88638">
        <ele>956.57</ele>
        <time>2013-09-01T14:09:51Z</time>
      </trkpt>
      <trkpt lat="45.31306" lon="5.88615">
        <ele>963.25</ele>
        <time>2013-09-01T14:09:57Z</time>
      </trkpt>
      <trkpt lat="45.31315" lon="5.8859">
        <ele>966.63</ele>
        <time>2013-09-01T14:10:05Z</time>
      </trkpt>
      <trkpt lat="45.31334" lon="5.88592">
        <ele>974.1</ele>
        <time>2013-09-01T14:10:16Z</time>
      </trkpt>
      <trkpt lat="45.31351" lon="5.88606">
        <ele>971.44</ele>
        <time>2013-09-01T14:10:23Z</time>
      </trkpt>
      <trkpt lat="45.3137" lon="5.88605">
        <ele>963.59</ele>
        <time>2013-09-01T14:10:29Z</time>
      </trkpt>
      <trkpt lat="45.3139" lon="5.88609">
        <ele>965.6</ele>
        <time>2013-09-01T14:10:40Z</time>
      </trkpt>
      <trkpt lat="45.31403" lon="5.88592">
        <ele>971.94</ele>
        <time>2013-09-01T14:10:52Z</time>
      </trkpt>
      <trkpt lat="45.31407" lon="5.88567">
        <ele>973.09</ele>
        <time>2013-09-01T14:11:08Z</time>
      </trkpt>
      <trkpt lat="45.31417" lon="5.88542">
        <ele>977.39</ele>
        <time>2013-09-01T14:11:23Z</time>
      </trkpt>
      <trkpt lat="45.31426" lon="5.88519">
        <ele>985.73</ele>
        <time>2013-09-01T14:11:36Z</time>
      </trkpt>
      <trkpt lat="45.31441" lon="5.88499">
        <ele>998.39</ele>
        <time>2013-09-01T14:11:47Z</time>
      </trkpt>
      <trkpt lat="45.31454" lon="5.88481">
        <ele>991.22</ele>
        <time>2013-09-01T14:12:17Z</time>
      </trkpt>
      <trkpt lat="45.31467" lon="5.88462">
        <ele>996.44</ele>
        <time>2013-09-01T14:12:40Z</time>
      </trkpt>
      <trkpt lat="45.31475" lon="5.88439">
        <ele>995.46</ele>
        <time>2013-09-01T14:13:04Z</time>
      </trkpt>
      <trkpt lat="45.31484" lon="5.88416">
        <ele>999.99</ele>
        <time>2013-09-01T14:13:30Z</time>
      </trkpt>
      <trkpt lat="45.31494" lon="5.88394">
        <ele>1004.52</ele>
        <time>2013-09-01T14:13:52Z</time>
      </trkpt>
      <trkpt lat="45.31505" lon="5.88373">
        <ele>1009.05</ele>
        <time>2013-09-01T14:14:15Z</time>
      </trkpt>
      <trkpt lat="45.31515" lon="5.88351">
        <ele>1010.73</ele>
        <time>2013-09-01T14:14:40Z</time>
      </trkpt>
      <trkpt lat="45.31524" lon="5.88329">
        <ele>1013.92</ele>
        <time>2013-09-01T14:15:06Z</time>
      </trkpt>
      <trkpt lat="45.31535" lon="5.88309">
        <ele>1022.25</ele>
        <time>2013-09-01T14:15:29Z</time>
      </trkpt>
      <trkpt lat="45.31547" lon="5.88288">
        <ele>1025.7</ele>
        <time>2013-09-01T14:15:55Z</time>
      </trkpt>
      <trkpt lat="45.31556" lon="5.88266">
        <ele>1031.45</ele>
        <time>2013-09-01T14:16:16Z</time>
      </trkpt>
      <trkpt lat="45.31567" lon="5.88244">
        <ele>1040.14</ele>
        <time>2013-09-01T14:16:40Z</time>
      </trkpt>
      <trkpt lat="45.31576" lon="5.88222">
        <ele>1045.93</ele>
        <time>2013-09-01T14:17:05Z</time>
      </trkpt>
      <trkpt lat="45.31586" lon="5.88199">
        <ele>1050.82</ele>
        <time>2013-09-01T14:17:33Z</time>
      </trkpt>
      <trkpt lat="45.31596" lon="5.88177">
        <ele>1054.06</ele>
        <time>2013-09-01T14:18:01Z</time>
      </trkpt>
      <trkpt lat="45.31606" lon="5.88155">
        <ele>1057.05</ele>
        <time>2013-09-01T14:18:27Z</time>
      </trkpt>
      <trkpt lat="45.31616" lon="5.88132">
        <ele>1053.38</ele>
        <time>2013-09-01T14:18:55Z</time>
      </trkpt>
      <trkpt lat="45.3163" lon="5.88115">
        <ele>1060.77</ele>
        <time>2013-09-01T14:19:18Z</time>
      </trkpt>
      <trkpt lat="45.31635" lon="5.8809">
        <ele>1077.05</ele>
        <time>2013-09-01T14:19:45Z</time>
      </trkpt>
      <trkpt lat="45.31636" lon="5.88065">
        <ele>1083.24</ele>
        <time>2013-09-01T14:20:13Z</time>
      </trkpt>
      <trkpt lat="45.31637" lon="5.88039">
        <ele>1089.01</ele>
        <time>2013-09-01T14:20:50Z</time>
      </trkpt>
      <trkpt lat="45.31635" lon="5.88012">
        <ele>1091.39</ele>
        <time>2013-09-01T14:21:14Z</time>
      </trkpt>
      <trkpt lat="45.31627" lon="5.87988">
        <ele>1097.3</ele>
        <time>2013-09-01T14:22:15Z</time>
      </trkpt>
      <trkpt lat="45.31613" lon="5.87972">
        <ele>1100.98</ele>
        <time>2013-09-01T14:23:02Z</time>
      </trkpt>
      <trkpt lat="45.31597" lon="5.87956">
        <ele>1112.15</ele>
        <time>2013-09-01T14:23:40Z</time>
      </trkpt>
      <trkpt lat="45.31585" lon="5.87935">
        <ele>1122.19</ele>
        <time>2013-09-01T14:24:13Z</time>
      </trkpt>
      <trkpt lat="45.3158" lon="5.8791">
        <ele>1118.75</ele>
        <time>2013-09-01T14:24:43Z</time>
      </trkpt>
      <trkpt lat="45.31578" lon="5.87885">
        <ele>1115.41</ele>
        <time>2013-09-01T14:25:14Z</time>
      </trkpt>
      <trkpt lat="45.31574" lon="5.8786">
        <ele>1118.6</ele>
        <time>2013-09-01T14:25:48Z</time>
      </trkpt>
      <trkpt lat="45.31571" lon="5.87834">
        <ele>1131.72</ele>
        <time>2013-09-01T14:26:28Z</time>
      </trkpt>
      <trkpt lat="45.31562" lon="5.87812">
        <ele>1129.14</ele>
        <time>2013-09-01T14:26:53Z</time>
      </trkpt>
      <trkpt lat="45.31553" lon="5.8779">
        <ele>1135.35</ele>
        <time>2013-09-01T14:27:26Z</time>
      </trkpt>
      <trkpt lat="45.31548" lon="5.87764">
        <ele>1142.64</ele>
        <time>2013-09-01T14:27:58Z</time>
      </trkpt>
      <trkpt lat="45.31537" lon="5.87744">
        <ele>1142.18</ele>
        <time>2013-09-01T14:28:25Z</time>
      </trkpt>
      <trkpt lat="45.31555" lon="5.8774">
        <ele>1146.19</ele>
        <time>2013-09-01T14:29:43Z</time>
      </trkpt>
      <trkpt lat="45.31571" lon="5.87755">
        <ele>1149.34</ele>
        <time>2013-09-01T14:29:51Z</time>
      </trkpt>
      <trkpt lat="45.31568" lon="5.87781">
        <ele>1147.15</ele>
        <time>2013-09-01T14:32:23Z</time>
      </trkpt>
      <trkpt lat="45.31586" lon="5.87782">
        <ele>1162.2</ele>
        <time>2013-09-01T14:34:46Z</time>
      </trkpt>
      <trkpt lat="45.31607" lon="5.87798">
        <ele>1157.09</ele>
        <time>2013-09-01T14:34:53Z</time>
      </trkpt>
      <trkpt lat="45.31624" lon="5.87819">
        <ele>1148.12</ele>
        <time>2013-09-01T14:34:56Z</time>
      </trkpt>
      <trkpt lat="45.31642" lon="5.87827">
        <ele>1143.65</ele>
        <time>2013-09-01T14:34:59Z</time>
      </trkpt>
      <trkpt lat="45.31662" lon="5.87819">
        <ele>1140.6</ele>
        <time>2013-09-01T14:35:03Z</time>
      </trkpt>
      <trkpt lat="45.3168" lon="5.8781">
        <ele>1138.84</ele>
        <time>2013-09-01T14:35:07Z</time>
      </trkpt>
      <trkpt lat="45.317" lon="5.87802">
        <ele>1142.47</ele>
        <time>2013-09-01T14:35:13Z</time>
      </trkpt>
      <trkpt lat="45.31719" lon="5.87804">
        <ele>1138.49</ele>
        <time>2013-09-01T14:35:17Z</time>
      </trkpt>
      <trkpt lat="45.31737" lon="5.87805">
        <ele>1136.03</ele>
        <time>2013-09-01T14:35:20Z</time>
      </trkpt>
      <trkpt lat="45.31754" lon="5.87795">
        <ele>1133.71</ele>
        <time>2013-09-01T14:35:24Z</time>
      </trkpt>
      <trkpt lat="45.31776" lon="5.8779">
        <ele>1130.82</ele>
        <time>2013-09-01T14:35:28Z</time>
      </trkpt>
      <trkpt lat="45.31797" lon="5.87797">
        <ele>1129.25</ele>
        <time>2013-09-01T14:35:32Z</time>
      </trkpt>
      <trkpt lat="45.31813" lon="5.87808">
        <ele>1130.38</ele>
        <time>2013-09-01T14:35:36Z</time>
      </trkpt>
      <trkpt lat="45.31827" lon="5.8783">
        <ele>1130.56</ele>
        <time>2013-09-01T14:35:40Z</time>
      </trkpt>
      <trkpt lat="45.31833" lon="5.8786">
        <ele>1128.52</ele>
        <time>2013-09-01T14:35:44Z</time>
      </trkpt>
      <trkpt lat="45.31844" lon="5.87886">
        <ele>1122.9</ele>
        <time>2013-09-01T14:35:48Z</time>
      </trkpt>
      <trkpt lat="45.31861" lon="5.87898">
        <ele>1122.28</ele>
        <time>2013-09-01T14:35:57Z</time>
      </trkpt>
      <trkpt lat="45.31882" lon="5.87903">
        <ele>1129.55</ele>
        <time>2013-09-01T14:36:02Z</time>
      </trkpt>
      <trkpt lat="45.31903" lon="5.87911">
        <ele>1137.75</ele>
        <time>2013-09-01T14:36:07Z</time>
      </trkpt>
      <trkpt lat="45.31921" lon="5.87917">
        <ele>1142.99</ele>
        <time>2013-09-01T14:36:13Z</time>
      </trkpt>
      <trkpt lat="45.31941" lon="5.87924">
        <ele>1149.63</ele>
        <time>2013-09-01T14:36:22Z</time>
      </trkpt>
      <trkpt lat="45.31961" lon="5.87927">
        <ele>1146.95</ele>
        <time>2013-09-01T14:36:29Z</time>
      </trkpt>
      <trkpt lat="45.31978" lon="5.87936">
        <ele>1153.55</ele>
        <time>2013-09-01T14:36:38Z</time>
      </trkpt>
      <trkpt lat="45.31996" lon="5.87947">
        <ele>1143.54</ele>
        <time>2013-09-01T14:36:45Z</time>
      </trkpt>
      <trkpt lat="45.32013" lon="5.87959">
        <ele>1136.17</ele>
        <time>2013-09-01T14:36:51Z</time>
      </trkpt>
      <trkpt lat="45.32027" lon="5.87982">
        <ele>1125.49</ele>
        <time>2013-09-01T14:36:56Z</time>
      </trkpt>
      <trkpt lat="45.32037" lon="5.88008">
        <ele>1117.4</ele>
        <time>2013-09-01T14:37:02Z</time>
      </trkpt>
      <trkpt lat="45.32053" lon="5.88024">
        <ele>1117.36</ele>
        <time>2013-09-01T14:37:09Z</time>
      </trkpt>
      <trkpt lat="45.32072" lon="5.88021">
        <ele>1126.04</ele>
        <time>2013-09-01T14:37:20Z</time>
      </trkpt>
      <trkpt lat="45.32092" lon="5.88014">
        <ele>1136.64</ele>
        <time>2013-09-01T14:37:30Z</time>
      </trkpt>
      <trkpt lat="45.32112" lon="5.8802">
        <ele>1133.34</ele>
        <time>2013-09-01T14:37:37Z</time>
      </trkpt>
      <trkpt lat="45.32126" lon="5.88039">
        <ele>1134.26</ele>
        <time>2013-09-01T14:37:44Z</time>
      </trkpt>
      <trkpt lat="45.32138" lon="5.88061">
        <ele>1141.01</ele>
        <time>2013-09-01T14:37:53Z</time>
      </trkpt>
      <trkpt lat="45.32153" lon="5.88076">
        <ele>1151.1</ele>
        <time>2013-09-01T14:38:05Z</time>
      </trkpt>
      <trkpt lat="45.32169" lon="5.8809">
        <ele>1158.64</ele>
        <time>2013-09-01T14:38:18Z</time>
      </trkpt>
      <trkpt lat="45.32184" lon="5.88105">
        <ele>1150.64</ele>
        <time>2013-09-01T14:38:29Z</time>
      </trkpt>
      <trkpt lat="45.32201" lon="5.88116">
        <ele>1149.86</ele>
        <time>2013-09-01T14:38:37Z</time>
      </trkpt>
      <trkpt lat="45.32219" lon="5.88125">
        <ele>1158.47</ele>
        <time>2013-09-01T14:38:49Z</time>
      </trkpt>
      <trkpt lat="45.32237" lon="5.88136">
        <ele>1164.74</ele>
        <time>2013-09-01T14:38:59Z</time>
      </trkpt>
      <trkpt lat="45.32248" lon="5.88158">
        <ele>1168.22</ele>
        <time>2013-09-01T14:39:09Z</time>
      </trkpt>
      <trkpt lat="45.32258" lon="5.8818">
        <ele>1175.81</ele>
        <time>2013-09-01T14:39:19Z</time>
      </trkpt>
      <trkpt lat="45.32267" lon="5.88203">
        <ele>1168.43</ele>
        <time>2013-09-01T14:39:31Z</time>
      </trkpt>
      <trkpt lat="45.32271" lon="5.88228">
        <ele>1158.06</ele>
        <time>2013-09-01T14:39:43Z</time>
      </trkpt>
      <trkpt lat="45.3227" lon="5.88254">
        <ele>1155.96</ele>
        <time>2013-09-01T14:39:56Z</time>
      </trkpt>
      <trkpt lat="45.32268" lon="5.88281">
        <ele>1150.18</ele>
        <time>2013-09-01T14:40:10Z</time>
      </trkpt>
      <trkpt lat="45.32264" lon="5.88308">
        <ele>1140.92</ele>
        <time>2013-09-01T14:40:23Z</time>
      </trkpt>
      <trkpt lat="45.32262" lon="5.88335">
        <ele>1143.42</ele>
        <time>2013-09-01T14:40:32Z</time>
      </trkpt>
      <trkpt lat="45.32256" lon="5.8836">
        <ele>1150.81</ele>
        <time>2013-09-01T14:40:43Z</time>
      </trkpt>
      <trkpt lat="45.3225" lon="5.88384">
        <ele>1158.73</ele>
        <time>2013-09-01T14:40:54Z</time>
      </trkpt>
      <trkpt lat="45.32243" lon="5.88409">
        <ele>1162.27</ele>
        <time>2013-09-01T14:41:04Z</time>
      </trkpt>
      <trkpt lat="45.32247" lon="5.88436">
        <ele>1165.99</ele>
        <time>2013-09-01T14:41:14Z</time>
      </trkpt>
      <trkpt lat="45.3225" lon="5.88464">
        <ele>1172.86</ele>
        <time>2013-09-01T14:41:25Z</time>
      </trkpt>
      <trkpt lat="45.32256" lon="5.8849">
        <ele>1174.29</ele>
        <time>2013-09-01T14:41:36Z</time>
      </trkpt>
      <trkpt lat="45.32261" lon="5.88515">
        <ele>1172.62</ele>
        <time>2013-09-01T14:41:46Z</time>
      </trkpt>
      <trkpt lat="45.32274" lon="5.88533">
        <ele>1167.06</ele>
        <time>2013-09-01T14:41:57Z</time>
      </trkpt>
      <trkpt lat="45.32292" lon="5.8854">
        <ele>1183.9</ele>
        <time>2013-09-01T14:42:16Z</time>
      </trkpt>
      <trkpt lat="45.32312" lon="5.88541">
        <ele>1192.07</ele>
        <time>2013-09-01T14:42:32Z</time>
      </trkpt>
      <trkpt lat="45.3233" lon="5.88553">
        <ele>1195.48</ele>
        <time>2013-09-01T14:42:46Z</time>
      </trkpt>
      <trkpt lat="45.32348" lon="5.88563">
        <ele>1196.44</ele>
        <time>2013-09-01T14:42:53Z</time>
      </trkpt>
      <trkpt lat="45.32365" lon="5.88575">
        <ele>1192.94</ele>
        <time>2013-09-01T14:43:03Z</time>
      </trkpt>
      <trkpt lat="45.32381" lon="5.88587">
        <ele>1193.64</ele>
        <time>2013-09-01T14:43:15Z</time>
      </trkpt>
      <trkpt lat="45.32398" lon="5.88602">
        <ele>1190.24</ele>
        <time>2013-09-01T14:43:27Z</time>
      </trkpt>
      <trkpt lat="45.32416" lon="5.88612">
        <ele>1194.33</ele>
        <time>2013-09-01T14:43:41Z</time>
      </trkpt>
      <trkpt lat="45.32434" lon="5.88622">
        <ele>1191.98</ele>
        <time>2013-09-01T14:43:52Z</time>
      </trkpt>
      <trkpt lat="45.32452" lon="5.88612">
        <ele>1190.03</ele>
        <time>2013-09-01T14:44:03Z</time>
      </trkpt>
      <trkpt lat="45.32466" lon="5.88592">
        <ele>1186.37</ele>
        <time>2013-09-01T14:44:16Z</time>
      </trkpt>
      <trkpt lat="45.32479" lon="5.88574">
        <ele>1187.47</ele>
        <time>2013-09-01T14:44:24Z</time>
      </trkpt>
      <trkpt lat="45.3249" lon="5.88552">
        <ele>1185.21</ele>
        <time>2013-09-01T14:44:34Z</time>
      </trkpt>
      <trkpt lat="45.325" lon="5.88531">
        <ele>1184.6</ele>
        <time>2013-09-01T14:44:43Z</time>
      </trkpt>
      <trkpt lat="45.32512" lon="5.88507">
        <ele>1189.6</ele>
        <time>2013-09-01T14:44:54Z</time>
      </trkpt>
      <trkpt lat="45.32522" lon="5.88483">
        <ele>1193.39</ele>
        <time>2013-09-01T14:45:02Z</time>
      </trkpt>
      <trkpt lat="45.32533" lon="5.88461">
        <ele>1192.06</ele>
        <time>2013-09-01T14:45:11Z</time>
      </trkpt>
      <trkpt lat="45.32544" lon="5.88438">
        <ele>1192.11</ele>
        <time>2013-09-01T14:45:22Z</time>
      </trkpt>
      <trkpt lat="45.32554" lon="5.88416">
        <ele>1199.34</ele>
        <time>2013-09-01T14:45:31Z</time>
      </trkpt>
      <trkpt lat="45.32565" lon="5.88395">
        <ele>1207.35</ele>
        <time>2013-09-01T14:45:40Z</time>
      </trkpt>
      <trkpt lat="45.32657" lon="5.88368">
        <ele>1214.95</ele>
        <time>2013-09-01T14:46:27Z</time>
      </trkpt>
      <trkpt lat="45.32666" lon="5.88346">
        <ele>1206.77</ele>
        <time>2013-09-01T14:46:38Z</time>
      </trkpt>
      <trkpt lat="45.32672" lon="5.8832">
        <ele>1210.23</ele>
        <time>2013-09-01T14:46:49Z</time>
      </trkpt>
      <trkpt lat="45.3269" lon="5.88331">
        <ele>1207.08</ele>
        <time>2013-09-01T14:47:03Z</time>
      </trkpt>
      <trkpt lat="45.32696" lon="5.88361">
        <ele>1196.07</ele>
        <time>2013-09-01T14:47:09Z</time>
      </trkpt>
      <trkpt lat="45.32709" lon="5.88388">
        <ele>1190.23</ele>
        <time>2013-09-01T14:47:12Z</time>
      </trkpt>
      <trkpt lat="45.32725" lon="5.88408">
        <ele>1186.5</ele>
        <time>2013-09-01T14:47:16Z</time>
      </trkpt>
      <trkpt lat="45.32744" lon="5.88413">
        <ele>1183.04</ele>
        <time>2013-09-01T14:47:25Z</time>
      </trkpt>
      <trkpt lat="45.32764" lon="5.88426">
        <ele>1183.69</ele>
        <time>2013-09-01T14:47:30Z</time>
      </trkpt>
      <trkpt lat="45.32781" lon="5.88439">
        <ele>1187.63</ele>
        <time>2013-09-01T14:47:35Z</time>
      </trkpt>
      <trkpt lat="45.328" lon="5.88445">
        <ele>1198.37</ele>
        <time>2013-09-01T14:47:42Z</time>
      </trkpt>
      <trkpt lat="45.3282" lon="5.88438">
        <ele>1205.87</ele>
        <time>2013-09-01T14:47:50Z</time>
      </trkpt>
      <trkpt lat="45.32838" lon="5.88429">
        <ele>1208.77</ele>
        <time>2013-09-01T14:47:55Z</time>
      </trkpt>
      <trkpt lat="45.32847" lon="5.88406">
        <ele>1215.14</ele>
        <time>2013-09-01T14:48:05Z</time>
      </trkpt>
      <trkpt lat="45.32859" lon="5.88386">
        <ele>1220.71</ele>
        <time>2013-09-01T14:48:18Z</time>
      </trkpt>
      <trkpt lat="45.32877" lon="5.88378">
        <ele>1216.42</ele>
        <time>2013-09-01T14:48:31Z</time>
      </trkpt>
      <trkpt lat="45.32893" lon="5.88394">
        <ele>1214.23</ele>
        <time>2013-09-01T14:48:39Z</time>
      </trkpt>
      <trkpt lat="45.3291" lon="5.88406">
        <ele>1211.03</ele>
        <time>2013-09-01T14:48:48Z</time>
      </trkpt>
      <trkpt lat="45.32925" lon="5.88421">
        <ele>1207.29</ele>
        <time>2013-09-01T14:48:58Z</time>
      </trkpt>
      <trkpt lat="45.32933" lon="5.88444">
        <ele>1206.27</ele>
        <time>2013-09-01T14:49:06Z</time>
      </trkpt>
      <trkpt lat="45.3294" lon="5.88472">
        <ele>1203.15</ele>
        <time>2013-09-01T14:49:16Z</time>
      </trkpt>
      <trkpt lat="45.32953" lon="5.88491">
        <ele>1198.03</ele>
        <time>2013-09-01T14:49:26Z</time>
      </trkpt>
      <trkpt lat="45.32957" lon="5.88518">
        <ele>1199.27</ele>
        <time>2013-09-01T14:49:33Z</time>
      </trkpt>
      <trkpt lat="45.32948" lon="5.88546">
        <ele>1196.6</ele>
        <time>2013-09-01T14:49:39Z</time>
      </trkpt>
      <trkpt lat="45.32956" lon="5.8857">
        <ele>1196.37</ele>
        <time>2013-09-01T14:49:46Z</time>
      </trkpt>
      <trkpt lat="45.32967" lon="5.88592">
        <ele>1198.98</ele>
        <time>2013-09-01T14:49:54Z</time>
      </trkpt>
      <trkpt lat="45.32984" lon="5.88605">
        <ele>1209.25</ele>
        <time>2013-09-01T14:50:03Z</time>
      </trkpt>
      <trkpt lat="45.33002" lon="5.88599">
        <ele>1210.72</ele>
        <time>2013-09-01T14:50:17Z</time>
      </trkpt>
      <trkpt lat="45.33021" lon="5.88607">
        <ele>1209.48</ele>
        <time>2013-09-01T14:50:28Z</time>
      </trkpt>
      <trkpt lat="45.33034" lon="5.8863">
        <ele>1217.54</ele>
        <time>2013-09-01T14:50:34Z</time>
      </trkpt>
      <trkpt lat="45.3304" lon="5.88654">
        <ele>1217.49</ele>
        <time>2013-09-01T14:50:42Z</time>
      </trkpt>
      <trkpt lat="45.3305" lon="5.88677">
        <ele>1212.05</ele>
        <time>2013-09-01T14:50:50Z</time>
      </trkpt>
      <trkpt lat="45.33059" lon="5.887">
        <ele>1211.44</ele>
        <time>2013-09-01T14:50:58Z</time>
      </trkpt>
      <trkpt lat="45.33067" lon="5.88728">
        <ele>1208.48</ele>
        <time>2013-09-01T14:51:06Z</time>
      </trkpt>
      <trkpt lat="45.33066" lon="5.88754">
        <ele>1207.34</ele>
        <time>2013-09-01T14:51:13Z</time>
      </trkpt>
      <trkpt lat="45.33069" lon="5.8878">
        <ele>1198.34</ele>
        <time>2013-09-01T14:51:21Z</time>
      </trkpt>
      <trkpt lat="45.3307" lon="5.88807">
        <ele>1199.25</ele>
        <time>2013-09-01T14:51:29Z</time>
      </trkpt>
      <trkpt lat="45.33074" lon="5.88832">
        <ele>1218.08</ele>
        <time>2013-09-01T14:51:37Z</time>
      </trkpt>
      <trkpt lat="45.33084" lon="5.88858">
        <ele>1212.58</ele>
        <time>2013-09-01T14:51:46Z</time>
      </trkpt>
      <trkpt lat="45.33098" lon="5.88878">
        <ele>1211.09</ele>
        <time>2013-09-01T14:51:54Z</time>
      </trkpt>
      <trkpt lat="45.33111" lon="5.88897">
        <ele>1222.59</ele>
        <time>2013-09-01T14:52:02Z</time>
      </trkpt>
      <trkpt lat="45.33128" lon="5.88911">
        <ele>1233.01</ele>
        <time>2013-09-01T14:52:11Z</time>
      </trkpt>
      <trkpt lat="45.33145" lon="5.88923">
        <ele>1230.03</ele>
        <time>2013-09-01T14:52:21Z</time>
      </trkpt>
      <trkpt lat="45.33162" lon="5.88934">
        <ele>1237.55</ele>
        <time>2013-09-01T14:52:32Z</time>
      </trkpt>
      <trkpt lat="45.33181" lon="5.88937">
        <ele>1238.53</ele>
        <time>2013-09-01T14:52:42Z</time>
      </trkpt>
      <trkpt lat="45.332" lon="5.88936">
        <ele>1234.66</ele>
        <time>2013-09-01T14:52:50Z</time>
      </trkpt>
      <trkpt lat="45.33221" lon="5.88938">
        <ele>1239.3</ele>
        <time>2013-09-01T14:52:57Z</time>
      </trkpt>
      <trkpt lat="45.33239" lon="5.88939">
        <ele>1246.28</ele>
        <time>2013-09-01T14:53:06Z</time>
      </trkpt>
      <trkpt lat="45.33258" lon="5.8893">
        <ele>1247.48</ele>
        <time>2013-09-01T14:53:13Z</time>
      </trkpt>
      <trkpt lat="45.33274" lon="5.88915">
        <ele>1242.45</ele>
        <time>2013-09-01T14:53:23Z</time>
      </trkpt>
      <trkpt lat="45.33293" lon="5.88916">
        <ele>1227.48</ele>
        <time>2013-09-01T14:53:36Z</time>
      </trkpt>
      <trkpt lat="45.3331" lon="5.88928">
        <ele>1226.84</ele>
        <time>2013-09-01T14:53:43Z</time>
      </trkpt>
      <trkpt lat="45.33328" lon="5.88939">
        <ele>1230.72</ele>
        <time>2013-09-01T14:53:52Z</time>
      </trkpt>
      <trkpt lat="45.33346" lon="5.88948">
        <ele>1236.02</ele>
        <time>2013-09-01T14:54:00Z</time>
      </trkpt>
      <trkpt lat="45.33365" lon="5.88956">
        <ele>1238.38</ele>
        <time>2013-09-01T14:54:07Z</time>
      </trkpt>
      <trkpt lat="45.33383" lon="5.88967">
        <ele>1238.3</ele>
        <time>2013-09-01T14:54:17Z</time>
      </trkpt>
      <trkpt lat="45.33402" lon="5.88974">
        <ele>1239.36</ele>
        <time>2013-09-01T14:54:24Z</time>
      </trkpt>
      <trkpt lat="45.33418" lon="5.88985">
        <ele>1242.1</ele>
        <time>2013-09-01T14:54:31Z</time>
      </trkpt>
      <trkpt lat="45.33437" lon="5.88998">
        <ele>1236.57</ele>
        <time>2013-09-01T14:54:37Z</time>
      </trkpt>
      <trkpt lat="45.33454" lon="5.89008">
        <ele>1233.32</ele>
        <time>2013-09-01T14:54:43Z</time>
      </trkpt>
      <trkpt lat="45.33469" lon="5.89025">
        <ele>1239.04</ele>
        <time>2013-09-01T14:54:52Z</time>
      </trkpt>
      <trkpt lat="45.33489" lon="5.89036">
        <ele>1237.82</ele>
        <time>2013-09-01T14:54:59Z</time>
      </trkpt>
      <trkpt lat="45.33507" lon="5.89049">
        <ele>1242.12</ele>
        <time>2013-09-01T14:55:06Z</time>
      </trkpt>
      <trkpt lat="45.33525" lon="5.89061">
        <ele>1248.24</ele>
        <time>2013-09-01T14:55:14Z</time>
      </trkpt>
      <trkpt lat="45.33543" lon="5.89068">
        <ele>1248.83</ele>
        <time>2013-09-01T14:55:21Z</time>
      </trkpt>
      <trkpt lat="45.33563" lon="5.8908">
        <ele>1250.41</ele>
        <time>2013-09-01T14:55:30Z</time>
      </trkpt>
      <trkpt lat="45.33583" lon="5.89088">
        <ele>1247.96</ele>
        <time>2013-09-01T14:55:37Z</time>
      </trkpt>
      <trkpt lat="45.33601" lon="5.89094">
        <ele>1250.29</ele>
        <time>2013-09-01T14:55:45Z</time>
      </trkpt>
      <trkpt lat="45.33619" lon="5.89097">
        <ele>1252.62</ele>
        <time>2013-09-01T14:55:51Z</time>
      </trkpt>
      <trkpt lat="45.33637" lon="5.89102">
        <ele>1259.13</ele>
        <time>2013-09-01T14:55:59Z</time>
      </trkpt>
      <trkpt lat="45.33656" lon="5.89111">
        <ele>1250.6</ele>
        <time>2013-09-01T14:56:07Z</time>
      </trkpt>
      <trkpt lat="45.33675" lon="5.89122">
        <ele>1247.96</ele>
        <time>2013-09-01T14:56:13Z</time>
      </trkpt>
      <trkpt lat="45.33692" lon="5.89132">
        <ele>1252</ele>
        <time>2013-09-01T14:56:19Z</time>
      </trkpt>
      <trkpt lat="45.33708" lon="5.89143">
        <ele>1253.35</ele>
        <time>2013-09-01T14:56:25Z</time>
      </trkpt>
      <trkpt lat="45.33726" lon="5.89152">
        <ele>1260.79</ele>
        <time>2013-09-01T14:56:34Z</time>
      </trkpt>
      <trkpt lat="45.33744" lon="5.89163">
        <ele>1261.79</ele>
        <time>2013-09-01T14:56:44Z</time>
      </trkpt>
      <trkpt lat="45.33763" lon="5.89173">
        <ele>1255.44</ele>
        <time>2013-09-01T14:56:54Z</time>
      </trkpt>
      <trkpt lat="45.33781" lon="5.89181">
        <ele>1258.5</ele>
        <time>2013-09-01T14:57:01Z</time>
      </trkpt>
      <trkpt lat="45.33804" lon="5.89191">
        <ele>1255.77</ele>
        <time>2013-09-01T14:57:06Z</time>
      </trkpt>
      <trkpt lat="45.33823" lon="5.89197">
        <ele>1258.11</ele>
        <time>2013-09-01T14:57:13Z</time>
      </trkpt>
      <trkpt lat="45.33841" lon="5.89202">
        <ele>1259.84</ele>
        <time>2013-09-01T14:57:23Z</time>
      </trkpt>
      <trkpt lat="45.33858" lon="5.89211">
        <ele>1262.47</ele>
        <time>2013-09-01T14:57:31Z</time>
      </trkpt>
      <trkpt lat="45.33874" lon="5.89224">
        <ele>1267.26</ele>
        <time>2013-09-01T14:57:40Z</time>
      </trkpt>
      <trkpt lat="45.33893" lon="5.8923">
        <ele>1268.69</ele>
        <time>2013-09-01T14:57:52Z</time>
      </trkpt>
      <trkpt lat="45.33913" lon="5.89234">
        <ele>1266.11</ele>
        <time>2013-09-01T14:57:59Z</time>
      </trkpt>
      <trkpt lat="45.33931" lon="5.89235">
        <ele>1270.86</ele>
        <time>2013-09-01T14:58:03Z</time>
      </trkpt>
      <trkpt lat="45.33949" lon="5.89243">
        <ele>1276.15</ele>
        <time>2013-09-01T14:58:09Z</time>
      </trkpt>
      <trkpt lat="45.33967" lon="5.89254">
        <ele>1279.99</ele>
        <time>2013-09-01T14:58:17Z</time>
      </trkpt>
      <trkpt lat="45.33986" lon="5.89258">
        <ele>1284.11</ele>
        <time>2013-09-01T14:58:25Z</time>
      </trkpt>
      <trkpt lat="45.34003" lon="5.89249">
        <ele>1285.38</ele>
        <time>2013-09-01T14:58:32Z</time>
      </trkpt>
      <trkpt lat="45.34019" lon="5.8923">
        <ele>1276.89</ele>
        <time>2013-09-01T14:58:40Z</time>
      </trkpt>
      <trkpt lat="45.34029" lon="5.89205">
        <ele>1272.33</ele>
        <time>2013-09-01T14:58:50Z</time>
      </trkpt>
      <trkpt lat="45.34043" lon="5.89188">
        <ele>1271.17</ele>
        <time>2013-09-01T14:58:57Z</time>
      </trkpt>
      <trkpt lat="45.3406" lon="5.89174">
        <ele>1265.69</ele>
        <time>2013-09-01T14:59:06Z</time>
      </trkpt>
      <trkpt lat="45.34079" lon="5.89168">
        <ele>1266.26</ele>
        <time>2013-09-01T14:59:13Z</time>
      </trkpt>
      <trkpt lat="45.34097" lon="5.89159">
        <ele>1264.97</ele>
        <time>2013-09-01T14:59:20Z</time>
      </trkpt>
      <trkpt lat="45.34118" lon="5.89168">
        <ele>1261.83</ele>
        <time>2013-09-01T14:59:29Z</time>
      </trkpt>
      <trkpt lat="45.34132" lon="5.89187">
        <ele>1257.68</ele>
        <time>2013-09-01T14:59:34Z</time>
      </trkpt>
      <trkpt lat="45.34144" lon="5.89206">
        <ele>1257.71</ele>
        <time>2013-09-01T14:59:40Z</time>
      </trkpt>
      <trkpt lat="45.34156" lon="5.8923">
        <ele>1254.95</ele>
        <time>2013-09-01T14:59:47Z</time>
      </trkpt>
      <trkpt lat="45.34168" lon="5.89251">
        <ele>1249.83</ele>
        <time>2013-09-01T14:59:55Z</time>
      </trkpt>
      <trkpt lat="45.34186" lon="5.89258">
        <ele>1250.43</ele>
        <time>2013-09-01T15:00:05Z</time>
      </trkpt>
      <trkpt lat="45.34207" lon="5.89254">
        <ele>1261.75</ele>
        <time>2013-09-01T15:00:12Z</time>
      </trkpt>
      <trkpt lat="45.34224" lon="5.89243">
        <ele>1270.39</ele>
        <time>2013-09-01T15:00:19Z</time>
      </trkpt>
      <trkpt lat="45.3424" lon="5.89228">
        <ele>1277.18</ele>
        <time>2013-09-01T15:00:25Z</time>
      </trkpt>
      <trkpt lat="45.34257" lon="5.89212">
        <ele>1282.05</ele>
        <time>2013-09-01T15:00:31Z</time>
      </trkpt>
      <trkpt lat="45.34278" lon="5.89203">
        <ele>1280.32</ele>
        <time>2013-09-01T15:00:36Z</time>
      </trkpt>
      <trkpt lat="45.34297" lon="5.89198">
        <ele>1281.08</ele>
        <time>2013-09-01T15:00:40Z</time>
      </trkpt>
      <trkpt lat="45.34316" lon="5.89204">
        <ele>1279.85</ele>
        <time>2013-09-01T15:00:45Z</time>
      </trkpt>
      <trkpt lat="45.34335" lon="5.89215">
        <ele>1272.96</ele>
        <time>2013-09-01T15:00:52Z</time>
      </trkpt>
      <trkpt lat="45.34351" lon="5.89235">
        <ele>1273.4</ele>
        <time>2013-09-01T15:00:56Z</time>
      </trkpt>
      <trkpt lat="45.3436" lon="5.8926">
        <ele>1268.99</ele>
        <time>2013-09-01T15:01:02Z</time>
      </trkpt>
      <trkpt lat="45.34357" lon="5.89286">
        <ele>1260.68</ele>
        <time>2013-09-01T15:01:08Z</time>
      </trkpt>
      <trkpt lat="45.34353" lon="5.89312">
        <ele>1260.66</ele>
        <time>2013-09-01T15:01:14Z</time>
      </trkpt>
      <trkpt lat="45.34363" lon="5.89336">
        <ele>1263.35</ele>
        <time>2013-09-01T15:01:21Z</time>
      </trkpt>
      <trkpt lat="45.34382" lon="5.89347">
        <ele>1262.52</ele>
        <time>2013-09-01T15:01:30Z</time>
      </trkpt>
      <trkpt lat="45.34402" lon="5.89354">
        <ele>1262.69</ele>
        <time>2013-09-01T15:01:36Z</time>
      </trkpt>
      <trkpt lat="45.34422" lon="5.8935">
        <ele>1267.7</ele>
        <time>2013-09-01T15:01:42Z</time>
      </trkpt>
      <trkpt lat="45.3444" lon="5.89343">
        <ele>1272.39</ele>
        <time>2013-09-01T15:01:50Z</time>
      </trkpt>
      <trkpt lat="45.34447" lon="5.89319">
        <ele>1272.77</ele>
        <time>2013-09-01T15:01:55Z</time>
      </trkpt>
      <trkpt lat="45.34468" lon="5.89307">
        <ele>1270.32</ele>
        <time>2013-09-01T15:01:59Z</time>
      </trkpt>
      <trkpt lat="45.34489" lon="5.89304">
        <ele>1271.91</ele>
        <time>2013-09-01T15:02:02Z</time>
      </trkpt>
      <trkpt lat="45.34508" lon="5.89311">
        <ele>1269.73</ele>
        <time>2013-09-01T15:02:05Z</time>
      </trkpt>
      <trkpt lat="45.34529" lon="5.89315">
        <ele>1267.82</ele>
        <time>2013-09-01T15:02:09Z</time>
      </trkpt>
      <trkpt lat="45.34547" lon="5.89316">
        <ele>1270.7</ele>
        <time>2013-09-01T15:02:13Z</time>
      </trkpt>
      <trkpt lat="45.34567" lon="5.89321">
        <ele>1267.39</ele>
        <time>2013-09-01T15:02:19Z</time>
      </trkpt>
      <trkpt lat="45.34589" lon="5.89324">
        <ele>1267.93</ele>
        <time>2013-09-01T15:02:24Z</time>
      </trkpt>
      <trkpt lat="45.3461" lon="5.89333">
        <ele>1266.81</ele>
        <time>2013-09-01T15:02:28Z</time>
      </trkpt>
      <trkpt lat="45.34627" lon="5.89344">
        <ele>1265.19</ele>
        <time>2013-09-01T15:02:32Z</time>
      </trkpt>
      <trkpt lat="45.34643" lon="5.89357">
        <ele>1262.75</ele>
        <time>2013-09-01T15:02:36Z</time>
      </trkpt>
      <trkpt lat="45.34664" lon="5.89368">
        <ele>1260.53</ele>
        <time>2013-09-01T15:02:40Z</time>
      </trkpt>
      <trkpt lat="45.34682" lon="5.89378">
        <ele>1257.67</ele>
        <time>2013-09-01T15:02:43Z</time>
      </trkpt>
      <trkpt lat="45.34699" lon="5.89395">
        <ele>1251.37</ele>
        <time>2013-09-01T15:02:47Z</time>
      </trkpt>
      <trkpt lat="45.34714" lon="5.89414">
        <ele>1241.6</ele>
        <time>2013-09-01T15:02:52Z</time>
      </trkpt>
      <trkpt lat="45.34719" lon="5.89442">
        <ele>1246.51</ele>
        <time>2013-09-01T15:02:59Z</time>
      </trkpt>
      <trkpt lat="45.3472" lon="5.89468">
        <ele>1252.37</ele>
        <time>2013-09-01T15:03:55Z</time>
      </trkpt>
      <trkpt lat="45.34718" lon="5.89441">
        <ele>1278.63</ele>
        <time>2013-09-01T15:04:21Z</time>
      </trkpt>
      <trkpt lat="45.34716" lon="5.89413">
        <ele>1264.06</ele>
        <time>2013-09-01T15:04:31Z</time>
      </trkpt>
      <trkpt lat="45.34708" lon="5.89387">
        <ele>1268.35</ele>
        <time>2013-09-01T15:04:44Z</time>
      </trkpt>
      <trkpt lat="45.347" lon="5.89364">
        <ele>1269.52</ele>
        <time>2013-09-01T15:04:55Z</time>
      </trkpt>
      <trkpt lat="45.34714" lon="5.89348">
        <ele>1264.05</ele>
        <time>2013-09-01T15:05:11Z</time>
      </trkpt>
      <trkpt lat="45.34731" lon="5.89361">
        <ele>1256.49</ele>
        <time>2013-09-01T15:05:21Z</time>
      </trkpt>
      <trkpt lat="45.34748" lon="5.89373">
        <ele>1264.03</ele>
        <time>2013-09-01T15:05:35Z</time>
      </trkpt>
      <trkpt lat="45.3476" lon="5.89392">
        <ele>1265.58</ele>
        <time>2013-09-01T15:05:48Z</time>
      </trkpt>
      <trkpt lat="45.34774" lon="5.8941">
        <ele>1279.13</ele>
        <time>2013-09-01T15:06:04Z</time>
      </trkpt>
      <trkpt lat="45.34789" lon="5.89428">
        <ele>1282.51</ele>
        <time>2013-09-01T15:06:21Z</time>
      </trkpt>
      <trkpt lat="45.34805" lon="5.89442">
        <ele>1280.59</ele>
        <time>2013-09-01T15:06:32Z</time>
      </trkpt>
      <trkpt lat="45.34819" lon="5.8946">
        <ele>1282.52</ele>
        <time>2013-09-01T15:06:44Z</time>
      </trkpt>
      <trkpt lat="45.34831" lon="5.8948">
        <ele>1291.01</ele>
        <time>2013-09-01T15:06:58Z</time>
      </trkpt>
      <trkpt lat="45.34845" lon="5.89499">
        <ele>1283.56</ele>
        <time>2013-09-01T15:07:11Z</time>
      </trkpt>
      <trkpt lat="45.3486" lon="5.89514">
        <ele>1289.29</ele>
        <time>2013-09-01T15:07:23Z</time>
      </trkpt>
      <trkpt lat="45.3487" lon="5.89537">
        <ele>1289.17</ele>
        <time>2013-09-01T15:07:34Z</time>
      </trkpt>
      <trkpt lat="45.34881" lon="5.89558">
        <ele>1291.72</ele>
        <time>2013-09-01T15:07:46Z</time>
      </trkpt>
      <trkpt lat="45.34898" lon="5.89571">
        <ele>1295.68</ele>
        <time>2013-09-01T15:08:00Z</time>
      </trkpt>
      <trkpt lat="45.34913" lon="5.89586">
        <ele>1292.78</ele>
        <time>2013-09-01T15:08:12Z</time>
      </trkpt>
      <trkpt lat="45.34926" lon="5.89605">
        <ele>1291.53</ele>
        <time>2013-09-01T15:08:24Z</time>
      </trkpt>
      <trkpt lat="45.34939" lon="5.89624">
        <ele>1294.46</ele>
        <time>2013-09-01T15:08:37Z</time>
      </trkpt>
      <trkpt lat="45.3495" lon="5.89646">
        <ele>1293.56</ele>
        <time>2013-09-01T15:08:49Z</time>
      </trkpt>
      <trkpt lat="45.34965" lon="5.89665">
        <ele>1298.48</ele>
        <time>2013-09-01T15:08:59Z</time>
      </trkpt>
      <trkpt lat="45.3498" lon="5.89681">
        <ele>1306.43</ele>
        <time>2013-09-01T15:09:12Z</time>
      </trkpt>
      <trkpt lat="45.34996" lon="5.89697">
        <ele>1308.62</ele>
        <time>2013-09-01T15:09:26Z</time>
      </trkpt>
      <trkpt lat="45.3501" lon="5.89715">
        <ele>1301.13</ele>
        <time>2013-09-01T15:09:37Z</time>
      </trkpt>
      <trkpt lat="45.35023" lon="5.89734">
        <ele>1302.25</ele>
        <time>2013-09-01T15:09:47Z</time>
      </trkpt>
      <trkpt lat="45.35036" lon="5.89753">
        <ele>1304.51</ele>
        <time>2013-09-01T15:09:57Z</time>
      </trkpt>
      <trkpt lat="45.35052" lon="5.89768">
        <ele>1304.23</ele>
        <time>2013-09-01T15:10:07Z</time>
      </trkpt>
      <trkpt lat="45.35067" lon="5.89787">
        <ele>1305.45</ele>
        <time>2013-09-01T15:10:16Z</time>
      </trkpt>
      <trkpt lat="45.35079" lon="5.89808">
        <ele>1308.82</ele>
        <time>2013-09-01T15:10:26Z</time>
      </trkpt>
      <trkpt lat="45.35094" lon="5.89825">
        <ele>1310.55</ele>
        <time>2013-09-01T15:10:33Z</time>
      </trkpt>
      <trkpt lat="45.35107" lon="5.89844">
        <ele>1302.19</ele>
        <time>2013-09-01T15:10:44Z</time>
      </trkpt>
      <trkpt lat="45.35119" lon="5.89864">
        <ele>1309.3</ele>
        <time>2013-09-01T15:10:53Z</time>
      </trkpt>
      <trkpt lat="45.35132" lon="5.89883">
        <ele>1314.97</ele>
        <time>2013-09-01T15:11:03Z</time>
      </trkpt>
      <trkpt lat="45.35141" lon="5.89906">
        <ele>1318.6</ele>
        <time>2013-09-01T15:11:13Z</time>
      </trkpt>
      <trkpt lat="45.3515" lon="5.89929">
        <ele>1317.92</ele>
        <time>2013-09-01T15:11:23Z</time>
      </trkpt>
      <trkpt lat="45.35159" lon="5.89952">
        <ele>1314.79</ele>
        <time>2013-09-01T15:11:32Z</time>
      </trkpt>
      <trkpt lat="45.35173" lon="5.89972">
        <ele>1315.96</ele>
        <time>2013-09-01T15:11:41Z</time>
      </trkpt>
      <trkpt lat="45.35184" lon="5.89994">
        <ele>1316.24</ele>
        <time>2013-09-01T15:11:51Z</time>
      </trkpt>
      <trkpt lat="45.35194" lon="5.90016">
        <ele>1318.86</ele>
        <time>2013-09-01T15:12:01Z</time>
      </trkpt>
      <trkpt lat="45.35203" lon="5.9004">
        <ele>1325.8</ele>
        <time>2013-09-01T15:12:09Z</time>
      </trkpt>
      <trkpt lat="45.35213" lon="5.90062">
        <ele>1324.03</ele>
        <time>2013-09-01T15:12:18Z</time>
      </trkpt>
      <trkpt lat="45.35222" lon="5.90086">
        <ele>1322.65</ele>
        <time>2013-09-01T15:12:26Z</time>
      </trkpt>
      <trkpt lat="45.35231" lon="5.90108">
        <ele>1323.09</ele>
        <time>2013-09-01T15:12:33Z</time>
      </trkpt>
      <trkpt lat="45.35236" lon="5.90135">
        <ele>1321.65</ele>
        <time>2013-09-01T15:12:40Z</time>
      </trkpt>
      <trkpt lat="45.35238" lon="5.90165">
        <ele>1318.51</ele>
        <time>2013-09-01T15:12:46Z</time>
      </trkpt>
      <trkpt lat="45.35244" lon="5.90191">
        <ele>1314.36</ele>
        <time>2013-09-01T15:12:52Z</time>
      </trkpt>
      <trkpt lat="45.35248" lon="5.90216">
        <ele>1308.11</ele>
        <time>2013-09-01T15:13:00Z</time>
      </trkpt>
      <trkpt lat="45.3525" lon="5.90244">
        <ele>1310.84</ele>
        <time>2013-09-01T15:13:10Z</time>
      </trkpt>
      <trkpt lat="45.35252" lon="5.90272">
        <ele>1305.84</ele>
        <time>2013-09-01T15:13:19Z</time>
      </trkpt>
      <trkpt lat="45.35254" lon="5.90297">
        <ele>1305.23</ele>
        <time>2013-09-01T15:13:27Z</time>
      </trkpt>
      <trkpt lat="45.35258" lon="5.90325">
        <ele>1316.3</ele>
        <time>2013-09-01T15:13:35Z</time>
      </trkpt>
      <trkpt lat="45.35263" lon="5.90352">
        <ele>1321.88</ele>
        <time>2013-09-01T15:13:43Z</time>
      </trkpt>
      <trkpt lat="45.35271" lon="5.90377">
        <ele>1328.95</ele>
        <time>2013-09-01T15:13:50Z</time>
      </trkpt>
      <trkpt lat="45.35279" lon="5.90401">
        <ele>1329.4</ele>
        <time>2013-09-01T15:13:59Z</time>
      </trkpt>
      <trkpt lat="45.35289" lon="5.90425">
        <ele>1335.76</ele>
        <time>2013-09-01T15:14:23Z</time>
      </trkpt>
      <trkpt lat="45.35295" lon="5.90451">
        <ele>1330.16</ele>
        <time>2013-09-01T15:14:31Z</time>
      </trkpt>
      <trkpt lat="45.35299" lon="5.90477">
        <ele>1329.31</ele>
        <time>2013-09-01T15:14:38Z</time>
      </trkpt>
      <trkpt lat="45.35303" lon="5.90505">
        <ele>1327.02</ele>
        <time>2013-09-01T15:14:45Z</time>
      </trkpt>
      <trkpt lat="45.35307" lon="5.90533">
        <ele>1329.75</ele>
        <time>2013-09-01T15:16:38Z</time>
      </trkpt>
      <trkpt lat="45.3532" lon="5.9055">
        <ele>1326.82</ele>
        <time>2013-09-01T15:16:44Z</time>
      </trkpt>
      <trkpt lat="45.35341" lon="5.90558">
        <ele>1319.94</ele>
        <time>2013-09-01T15:16:50Z</time>
      </trkpt>
      <trkpt lat="45.35363" lon="5.90563">
        <ele>1319.07</ele>
        <time>2013-09-01T15:16:54Z</time>
      </trkpt>
      <trkpt lat="45.35383" lon="5.90569">
        <ele>1319.07</ele>
        <time>2013-09-01T15:16:57Z</time>
      </trkpt>
      <trkpt lat="45.35407" lon="5.90567">
        <ele>1319.41</ele>
        <time>2013-09-01T15:17:00Z</time>
      </trkpt>
      <trkpt lat="45.35427" lon="5.90575">
        <ele>1317.4</ele>
        <time>2013-09-01T15:17:03Z</time>
      </trkpt>
      <trkpt lat="45.35449" lon="5.90582">
        <ele>1315.75</ele>
        <time>2013-09-01T15:17:06Z</time>
      </trkpt>
      <trkpt lat="45.35468" lon="5.90594">
        <ele>1307.6</ele>
        <time>2013-09-01T15:17:11Z</time>
      </trkpt>
      <trkpt lat="45.35487" lon="5.90608">
        <ele>1297.28</ele>
        <time>2013-09-01T15:17:16Z</time>
      </trkpt>
      <trkpt lat="45.35506" lon="5.9063">
        <ele>1290.58</ele>
        <time>2013-09-01T15:17:19Z</time>
      </trkpt>
      <trkpt lat="45.35531" lon="5.90644">
        <ele>1290.15</ele>
        <time>2013-09-01T15:17:21Z</time>
      </trkpt>
      <trkpt lat="45.35557" lon="5.90662">
        <ele>1291.4</ele>
        <time>2013-09-01T15:17:23Z</time>
      </trkpt>
      <trkpt lat="45.35581" lon="5.9068">
        <ele>1292.36</ele>
        <time>2013-09-01T15:17:25Z</time>
      </trkpt>
      <trkpt lat="45.35602" lon="5.90699">
        <ele>1292.77</ele>
        <time>2013-09-01T15:17:27Z</time>
      </trkpt>
      <trkpt lat="45.3562" lon="5.90715">
        <ele>1293.07</ele>
        <time>2013-09-01T15:17:29Z</time>
      </trkpt>
      <trkpt lat="45.35639" lon="5.90727">
        <ele>1291.99</ele>
        <time>2013-09-01T15:17:31Z</time>
      </trkpt>
      <trkpt lat="45.35657" lon="5.90741">
        <ele>1293.38</ele>
        <time>2013-09-01T15:17:33Z</time>
      </trkpt>
      <trkpt lat="45.3567" lon="5.90758">
        <ele>1293.28</ele>
        <time>2013-09-01T15:17:35Z</time>
      </trkpt>
      <trkpt lat="45.35685" lon="5.90782">
        <ele>1292.47</ele>
        <time>2013-09-01T15:17:38Z</time>
      </trkpt>
      <trkpt lat="45.35704" lon="5.90808">
        <ele>1291.32</ele>
        <time>2013-09-01T15:17:41Z</time>
      </trkpt>
      <trkpt lat="45.35724" lon="5.90832">
        <ele>1289.03</ele>
        <time>2013-09-01T15:17:44Z</time>
      </trkpt>
      <trkpt lat="45.35744" lon="5.90849">
        <ele>1281.91</ele>
        <time>2013-09-01T15:17:48Z</time>
      </trkpt>
      <trkpt lat="45.35761" lon="5.90864">
        <ele>1280.66</ele>
        <time>2013-09-01T15:17:51Z</time>
      </trkpt>
      <trkpt lat="45.35775" lon="5.90882">
        <ele>1279.61</ele>
        <time>2013-09-01T15:17:56Z</time>
      </trkpt>
      <trkpt lat="45.35791" lon="5.90901">
        <ele>1287.88</ele>
        <time>2013-09-01T15:18:05Z</time>
      </trkpt>
      <trkpt lat="45.35811" lon="5.90901">
        <ele>1286.28</ele>
        <time>2013-09-01T15:18:22Z</time>
      </trkpt>
      <trkpt lat="45.35811" lon="5.90929">
        <ele>1278.94</ele>
        <time>2013-09-01T15:18:29Z</time>
      </trkpt>
      <trkpt lat="45.35821" lon="5.90952">
        <ele>1271.54</ele>
        <time>2013-09-01T15:18:33Z</time>
      </trkpt>
      <trkpt lat="45.35831" lon="5.90978">
        <ele>1260.89</ele>
        <time>2013-09-01T15:18:42Z</time>
      </trkpt>
      <trkpt lat="45.35838" lon="5.91006">
        <ele>1252.51</ele>
        <time>2013-09-01T15:18:46Z</time>
      </trkpt>
      <trkpt lat="45.35843" lon="5.91032">
        <ele>1242.91</ele>
        <time>2013-09-01T15:18:49Z</time>
      </trkpt>
      <trkpt lat="45.35851" lon="5.9106">
        <ele>1234.64</ele>
        <time>2013-09-01T15:18:52Z</time>
      </trkpt>
      <trkpt lat="45.35863" lon="5.91084">
        <ele>1230.42</ele>
        <time>2013-09-01T15:18:56Z</time>
      </trkpt>
      <trkpt lat="45.35877" lon="5.91101">
        <ele>1226.01</ele>
        <time>2013-09-01T15:19:02Z</time>
      </trkpt>
      <trkpt lat="45.35891" lon="5.9112">
        <ele>1221.61</ele>
        <time>2013-09-01T15:19:08Z</time>
      </trkpt>
      <trkpt lat="45.35907" lon="5.91135">
        <ele>1216.86</ele>
        <time>2013-09-01T15:19:15Z</time>
      </trkpt>
      <trkpt lat="45.35925" lon="5.91142">
        <ele>1211.76</ele>
        <time>2013-09-01T15:19:32Z</time>
      </trkpt>
      <trkpt lat="45.35949" lon="5.91153">
        <ele>1210.89</ele>
        <time>2013-09-01T15:19:37Z</time>
      </trkpt>
      <trkpt lat="45.3594" lon="5.91178">
        <ele>1214.98</ele>
        <time>2013-09-01T15:19:50Z</time>
      </trkpt>
      <trkpt lat="45.35925" lon="5.91196">
        <ele>1211.63</ele>
        <time>2013-09-01T15:19:56Z</time>
      </trkpt>
      <trkpt lat="45.3591" lon="5.91215">
        <ele>1203.9</ele>
        <time>2013-09-01T15:20:01Z</time>
      </trkpt>
      <trkpt lat="45.35893" lon="5.91229">
        <ele>1196.23</ele>
        <time>2013-09-01T15:20:07Z</time>
      </trkpt>
      <trkpt lat="45.35878" lon="5.91246">
        <ele>1191.85</ele>
        <time>2013-09-01T15:20:11Z</time>
      </trkpt>
      <trkpt lat="45.35856" lon="5.91259">
        <ele>1186.45</ele>
        <time>2013-09-01T15:20:15Z</time>
      </trkpt>
      <trkpt lat="45.35834" lon="5.9127">
        <ele>1177.38</ele>
        <time>2013-09-01T15:20:54Z</time>
      </trkpt>
      <trkpt lat="45.35817" lon="5.91294">
        <ele>1171.84</ele>
        <time>2013-09-01T15:21:01Z</time>
      </trkpt>
      <trkpt lat="45.35798" lon="5.9131">
        <ele>1172.22</ele>
        <time>2013-09-01T15:21:04Z</time>
      </trkpt>
      <trkpt lat="45.3578" lon="5.91315">
        <ele>1172.26</ele>
        <time>2013-09-01T15:21:07Z</time>
      </trkpt>
      <trkpt lat="45.35762" lon="5.9132">
        <ele>1171.37</ele>
        <time>2013-09-01T15:21:10Z</time>
      </trkpt>
      <trkpt lat="45.3574" lon="5.91333">
        <ele>1168.28</ele>
        <time>2013-09-01T15:21:14Z</time>
      </trkpt>
      <trkpt lat="45.35713" lon="5.91342">
        <ele>1164.61</ele>
        <time>2013-09-01T15:21:17Z</time>
      </trkpt>
      <trkpt lat="45.35692" lon="5.91344">
        <ele>1157.91</ele>
        <time>2013-09-01T15:21:20Z</time>
      </trkpt>
      <trkpt lat="45.35674" lon="5.91341">
        <ele>1150.65</ele>
        <time>2013-09-01T15:21:24Z</time>
      </trkpt>
      <trkpt lat="45.35655" lon="5.91344">
        <ele>1149.08</ele>
        <time>2013-09-01T15:21:29Z</time>
      </trkpt>
      <trkpt lat="45.35632" lon="5.91346">
        <ele>1135.66</ele>
        <time>2013-09-01T15:21:35Z</time>
      </trkpt>
      <trkpt lat="45.35611" lon="5.91349">
        <ele>1128.96</ele>
        <time>2013-09-01T15:21:40Z</time>
      </trkpt>
      <trkpt lat="45.35589" lon="5.91355">
        <ele>1132.58</ele>
        <time>2013-09-01T15:21:45Z</time>
      </trkpt>
      <trkpt lat="45.35572" lon="5.91341">
        <ele>1131.05</ele>
        <time>2013-09-01T15:21:49Z</time>
      </trkpt>
      <trkpt lat="45.35553" lon="5.91333">
        <ele>1126.73</ele>
        <time>2013-09-01T15:21:53Z</time>
      </trkpt>
      <trkpt lat="45.35534" lon="5.91329">
        <ele>1124.31</ele>
        <time>2013-09-01T15:21:56Z</time>
      </trkpt>
      <trkpt lat="45.35513" lon="5.91326">
        <ele>1121.14</ele>
        <time>2013-09-01T15:22:00Z</time>
      </trkpt>
      <trkpt lat="45.35496" lon="5.91315">
        <ele>1116.09</ele>
        <time>2013-09-01T15:22:07Z</time>
      </trkpt>
      <trkpt lat="45.35471" lon="5.91305">
        <ele>1096.04</ele>
        <time>2013-09-01T15:22:16Z</time>
      </trkpt>
      <trkpt lat="45.35456" lon="5.91286">
        <ele>1080</ele>
        <time>2013-09-01T15:22:22Z</time>
      </trkpt>
      <trkpt lat="45.35441" lon="5.91261">
        <ele>1073.31</ele>
        <time>2013-09-01T15:22:26Z</time>
      </trkpt>
      <trkpt lat="45.35427" lon="5.91243">
        <ele>1071.25</ele>
        <time>2013-09-01T15:22:29Z</time>
      </trkpt>
      <trkpt lat="45.3541" lon="5.91227">
        <ele>1066.56</ele>
        <time>2013-09-01T15:22:34Z</time>
      </trkpt>
      <trkpt lat="45.35392" lon="5.91223">
        <ele>1057.72</ele>
        <time>2013-09-01T15:22:40Z</time>
      </trkpt>
      <trkpt lat="45.35372" lon="5.91224">
        <ele>1048.69</ele>
        <time>2013-09-01T15:22:45Z</time>
      </trkpt>
      <trkpt lat="45.35352" lon="5.9123">
        <ele>1055.88</ele>
        <time>2013-09-01T15:22:53Z</time>
      </trkpt>
      <trkpt lat="45.35335" lon="5.9125">
        <ele>1086.6</ele>
        <time>2013-09-01T15:23:19Z</time>
      </trkpt>
      <trkpt lat="45.35339" lon="5.91279">
        <ele>1091.94</ele>
        <time>2013-09-01T15:23:23Z</time>
      </trkpt>
      <trkpt lat="45.35341" lon="5.91307">
        <ele>1091.35</ele>
        <time>2013-09-01T15:23:31Z</time>
      </trkpt>
      <trkpt lat="45.35352" lon="5.91335">
        <ele>1088.39</ele>
        <time>2013-09-01T15:23:36Z</time>
      </trkpt>
      <trkpt lat="45.35362" lon="5.91362">
        <ele>1087.47</ele>
        <time>2013-09-01T15:23:39Z</time>
      </trkpt>
      <trkpt lat="45.35372" lon="5.91386">
        <ele>1089.33</ele>
        <time>2013-09-01T15:23:42Z</time>
      </trkpt>
      <trkpt lat="45.35376" lon="5.9142">
        <ele>1088.18</ele>
        <time>2013-09-01T15:23:45Z</time>
      </trkpt>
      <trkpt lat="45.35379" lon="5.91457">
        <ele>1083.44</ele>
        <time>2013-09-01T15:23:48Z</time>
      </trkpt>
      <trkpt lat="45.35379" lon="5.91491">
        <ele>1078.49</ele>
        <time>2013-09-01T15:23:51Z</time>
      </trkpt>
      <trkpt lat="45.35388" lon="5.91521">
        <ele>1069.54</ele>
        <time>2013-09-01T15:23:55Z</time>
      </trkpt>
      <trkpt lat="45.35401" lon="5.9154">
        <ele>1064.12</ele>
        <time>2013-09-01T15:23:59Z</time>
      </trkpt>
      <trkpt lat="45.35417" lon="5.91562">
        <ele>1064.34</ele>
        <time>2013-09-01T15:24:03Z</time>
      </trkpt>
      <trkpt lat="45.35431" lon="5.91583">
        <ele>1063.42</ele>
        <time>2013-09-01T15:24:07Z</time>
      </trkpt>
      <trkpt lat="45.35443" lon="5.91605">
        <ele>1059.31</ele>
        <time>2013-09-01T15:24:10Z</time>
      </trkpt>
      <trkpt lat="45.35454" lon="5.91638">
        <ele>1057.18</ele>
        <time>2013-09-01T15:24:13Z</time>
      </trkpt>
      <trkpt lat="45.35459" lon="5.91669">
        <ele>1058.18</ele>
        <time>2013-09-01T15:24:16Z</time>
      </trkpt>
      <trkpt lat="45.35455" lon="5.91704">
        <ele>1059.38</ele>
        <time>2013-09-01T15:24:20Z</time>
      </trkpt>
      <trkpt lat="45.35443" lon="5.91739">
        <ele>1055.99</ele>
        <time>2013-09-01T15:24:23Z</time>
      </trkpt>
      <trkpt lat="45.35429" lon="5.91765">
        <ele>1054.32</ele>
        <time>2013-09-01T15:24:25Z</time>
      </trkpt>
      <trkpt lat="45.35416" lon="5.91792">
        <ele>1054.47</ele>
        <time>2013-09-01T15:24:28Z</time>
      </trkpt>
      <trkpt lat="45.35407" lon="5.91816">
        <ele>1049.29</ele>
        <time>2013-09-01T15:24:32Z</time>
      </trkpt>
      <trkpt lat="45.35385" lon="5.91824">
        <ele>1046.22</ele>
        <time>2013-09-01T15:24:37Z</time>
      </trkpt>
      <trkpt lat="45.35366" lon="5.9181">
        <ele>1043.76</ele>
        <time>2013-09-01T15:24:41Z</time>
      </trkpt>
      <trkpt lat="45.35348" lon="5.91824">
        <ele>1031.84</ele>
        <time>2013-09-01T15:24:49Z</time>
      </trkpt>
      <trkpt lat="45.35332" lon="5.91839">
        <ele>1034.28</ele>
        <time>2013-09-01T15:24:52Z</time>
      </trkpt>
      <trkpt lat="45.35322" lon="5.9186">
        <ele>1033.45</ele>
        <time>2013-09-01T15:24:57Z</time>
      </trkpt>
      <trkpt lat="45.35314" lon="5.91885">
        <ele>1023.52</ele>
        <time>2013-09-01T15:25:04Z</time>
      </trkpt>
      <trkpt lat="45.3531" lon="5.91909">
        <ele>1024.74</ele>
        <time>2013-09-01T15:25:09Z</time>
      </trkpt>
      <trkpt lat="45.35303" lon="5.91936">
        <ele>1027.65</ele>
        <time>2013-09-01T15:25:13Z</time>
      </trkpt>
      <trkpt lat="45.35298" lon="5.91961">
        <ele>1029.61</ele>
        <time>2013-09-01T15:25:16Z</time>
      </trkpt>
      <trkpt lat="45.353" lon="5.91986">
        <ele>1029.49</ele>
        <time>2013-09-01T15:25:20Z</time>
      </trkpt>
      <trkpt lat="45.35289" lon="5.92013">
        <ele>1019.99</ele>
        <time>2013-09-01T15:25:30Z</time>
      </trkpt>
      <trkpt lat="45.35272" lon="5.92028">
        <ele>1015.03</ele>
        <time>2013-09-01T15:25:35Z</time>
      </trkpt>
      <trkpt lat="45.3525" lon="5.92035">
        <ele>1005.95</ele>
        <time>2013-09-01T15:25:39Z</time>
      </trkpt>
      <trkpt lat="45.35233" lon="5.92047">
        <ele>1002.94</ele>
        <time>2013-09-01T15:25:42Z</time>
      </trkpt>
      <trkpt lat="45.35216" lon="5.92064">
        <ele>1002.35</ele>
        <time>2013-09-01T15:25:46Z</time>
      </trkpt>
      <trkpt lat="45.35203" lon="5.92084">
        <ele>1001.72</ele>
        <time>2013-09-01T15:25:55Z</time>
      </trkpt>
      <trkpt lat="45.35187" lon="5.92097">
        <ele>997.48</ele>
        <time>2013-09-01T15:25:59Z</time>
      </trkpt>
      <trkpt lat="45.35169" lon="5.92103">
        <ele>993.14</ele>
        <time>2013-09-01T15:26:03Z</time>
      </trkpt>
      <trkpt lat="45.35147" lon="5.92105">
        <ele>983.8</ele>
        <time>2013-09-01T15:26:08Z</time>
      </trkpt>
      <trkpt lat="45.35129" lon="5.92116">
        <ele>977.63</ele>
        <time>2013-09-01T15:26:13Z</time>
      </trkpt>
      <trkpt lat="45.35109" lon="5.92127">
        <ele>969.94</ele>
        <time>2013-09-01T15:26:18Z</time>
      </trkpt>
      <trkpt lat="45.35091" lon="5.9214">
        <ele>972.62</ele>
        <time>2013-09-01T15:26:23Z</time>
      </trkpt>
      <trkpt lat="45.35072" lon="5.92151">
        <ele>973.19</ele>
        <time>2013-09-01T15:26:28Z</time>
      </trkpt>
      <trkpt lat="45.35054" lon="5.92162">
        <ele>975.41</ele>
        <time>2013-09-01T15:26:38Z</time>
      </trkpt>
      <trkpt lat="45.35053" lon="5.9219">
        <ele>971.67</ele>
        <time>2013-09-01T15:27:25Z</time>
      </trkpt>
      <trkpt lat="45.35038" lon="5.92205">
        <ele>958.88</ele>
        <time>2013-09-01T15:28:18Z</time>
      </trkpt>
      <trkpt lat="45.35012" lon="5.92201">
        <ele>943.39</ele>
        <time>2013-09-01T15:28:29Z</time>
      </trkpt>
      <trkpt lat="45.34994" lon="5.92187">
        <ele>917.07</ele>
        <time>2013-09-01T15:28:36Z</time>
      </trkpt>
      <trkpt lat="45.34972" lon="5.92187">
        <ele>904.88</ele>
        <time>2013-09-01T15:28:51Z</time>
      </trkpt>
      <trkpt lat="45.34947" lon="5.92191">
        <ele>952.57</ele>
        <time>2013-09-01T15:29:10Z</time>
      </trkpt>
      <trkpt lat="45.34927" lon="5.92196">
        <ele>957.72</ele>
        <time>2013-09-01T15:29:16Z</time>
      </trkpt>
      <trkpt lat="45.34906" lon="5.92196">
        <ele>944.4</ele>
        <time>2013-09-01T15:29:51Z</time>
      </trkpt>
      <trkpt lat="45.3489" lon="5.92212">
        <ele>938.11</ele>
        <time>2013-09-01T15:30:14Z</time>
      </trkpt>
      <trkpt lat="45.34876" lon="5.92232">
        <ele>925.41</ele>
        <time>2013-09-01T15:30:25Z</time>
      </trkpt>
      <trkpt lat="45.34858" lon="5.92242">
        <ele>913.94</ele>
        <time>2013-09-01T15:30:32Z</time>
      </trkpt>
      <trkpt lat="45.34842" lon="5.92254">
        <ele>907.16</ele>
        <time>2013-09-01T15:30:41Z</time>
      </trkpt>
      <trkpt lat="45.3484" lon="5.92279">
        <ele>899.64</ele>
        <time>2013-09-01T15:30:51Z</time>
      </trkpt>
      <trkpt lat="45.34856" lon="5.92294">
        <ele>877.09</ele>
        <time>2013-09-01T15:31:02Z</time>
      </trkpt>
      <trkpt lat="45.34871" lon="5.92311">
        <ele>864.38</ele>
        <time>2013-09-01T15:31:10Z</time>
      </trkpt>
      <trkpt lat="45.34884" lon="5.92332">
        <ele>852.66</ele>
        <time>2013-09-01T15:31:21Z</time>
      </trkpt>
      <trkpt lat="45.34901" lon="5.92349">
        <ele>843.34</ele>
        <time>2013-09-01T15:31:29Z</time>
      </trkpt>
      <trkpt lat="45.34915" lon="5.92367">
        <ele>827.55</ele>
        <time>2013-09-01T15:31:36Z</time>
      </trkpt>
      <trkpt lat="45.34909" lon="5.92393">
        <ele>817.17</ele>
        <time>2013-09-01T15:31:49Z</time>
      </trkpt>
      <trkpt lat="45.34923" lon="5.92409">
        <ele>824.59</ele>
        <time>2013-09-01T15:32:08Z</time>
      </trkpt>
      <trkpt lat="45.34914" lon="5.92432">
        <ele>814.54</ele>
        <time>2013-09-01T15:32:59Z</time>
      </trkpt>
      <trkpt lat="45.34935" lon="5.92437">
        <ele>795.13</ele>
        <time>2013-09-01T15:33:09Z</time>
      </trkpt>
      <trkpt lat="45.34964" lon="5.92585">
        <ele>711.12</ele>
        <time>2013-09-01T15:34:32Z</time>
      </trkpt>
      <trkpt lat="45.34944" lon="5.9261">
        <ele>691.65</ele>
        <time>2013-09-01T15:34:38Z</time>
      </trkpt>
      <trkpt lat="45.34925" lon="5.92631">
        <ele>683.59</ele>
        <time>2013-09-01T15:34:42Z</time>
      </trkpt>
      <trkpt lat="45.34907" lon="5.92636">
        <ele>689.4</ele>
        <time>2013-09-01T15:34:56Z</time>
      </trkpt>
      <trkpt lat="45.34893" lon="5.92657">
        <ele>695.14</ele>
        <time>2013-09-01T15:35:08Z</time>
      </trkpt>
      <trkpt lat="45.34902" lon="5.92682">
        <ele>680.74</ele>
        <time>2013-09-01T15:35:15Z</time>
      </trkpt>
      <trkpt lat="45.34919" lon="5.92691">
        <ele>674.4</ele>
        <time>2013-09-01T15:35:22Z</time>
      </trkpt>
      <trkpt lat="45.3494" lon="5.92687">
        <ele>659.33</ele>
        <time>2013-09-01T15:35:28Z</time>
      </trkpt>
      <trkpt lat="45.34959" lon="5.92699">
        <ele>649.4</ele>
        <time>2013-09-01T15:35:31Z</time>
      </trkpt>
      <trkpt lat="45.34976" lon="5.92709">
        <ele>636.39</ele>
        <time>2013-09-01T15:35:34Z</time>
      </trkpt>
      <trkpt lat="45.34993" lon="5.92728">
        <ele>625.11</ele>
        <time>2013-09-01T15:35:38Z</time>
      </trkpt>
      <trkpt lat="45.34999" lon="5.92753">
        <ele>604.87</ele>
        <time>2013-09-01T15:35:46Z</time>
      </trkpt>
      <trkpt lat="45.34984" lon="5.92769">
        <ele>599.1</ele>
        <time>2013-09-01T15:35:50Z</time>
      </trkpt>
      <trkpt lat="45.3497" lon="5.92785">
        <ele>601.92</ele>
        <time>2013-09-01T15:35:53Z</time>
      </trkpt>
      <trkpt lat="45.34951" lon="5.928">
        <ele>603.48</ele>
        <time>2013-09-01T15:35:56Z</time>
      </trkpt>
      <trkpt lat="45.34929" lon="5.92803">
        <ele>601.29</ele>
        <time>2013-09-01T15:35:59Z</time>
      </trkpt>
      <trkpt lat="45.34911" lon="5.92811">
        <ele>599.3</ele>
        <time>2013-09-01T15:36:01Z</time>
      </trkpt>
      <trkpt lat="45.34888" lon="5.92821">
        <ele>596.57</ele>
        <time>2013-09-01T15:36:04Z</time>
      </trkpt>
      <trkpt lat="45.34871" lon="5.92832">
        <ele>589.8</ele>
        <time>2013-09-01T15:36:08Z</time>
      </trkpt>
      <trkpt lat="45.3487" lon="5.92859">
        <ele>593.74</ele>
        <time>2013-09-01T15:36:17Z</time>
      </trkpt>
      <trkpt lat="45.34886" lon="5.92877">
        <ele>590.72</ele>
        <time>2013-09-01T15:36:23Z</time>
      </trkpt>
      <trkpt lat="45.34901" lon="5.92897">
        <ele>580.56</ele>
        <time>2013-09-01T15:36:28Z</time>
      </trkpt>
      <trkpt lat="45.34911" lon="5.92924">
        <ele>569.21</ele>
        <time>2013-09-01T15:36:32Z</time>
      </trkpt>
      <trkpt lat="45.34924" lon="5.92947">
        <ele>559.23</ele>
        <time>2013-09-01T15:36:36Z</time>
      </trkpt>
      <trkpt lat="45.34935" lon="5.92968">
        <ele>551.56</ele>
        <time>2013-09-01T15:36:40Z</time>
      </trkpt>
      <trkpt lat="45.34951" lon="5.92988">
        <ele>547.57</ele>
        <time>2013-09-01T15:36:44Z</time>
      </trkpt>
      <trkpt lat="45.34967" lon="5.93009">
        <ele>541.39</ele>
        <time>2013-09-01T15:36:48Z</time>
      </trkpt>
      <trkpt lat="45.34983" lon="5.93022">
        <ele>533.38</ele>
        <time>2013-09-01T15:36:52Z</time>
      </trkpt>
      <trkpt lat="45.35001" lon="5.93037">
        <ele>530.19</ele>
        <time>2013-09-01T15:36:56Z</time>
      </trkpt>
      <trkpt lat="45.35014" lon="5.93058">
        <ele>529.35</ele>
        <time>2013-09-01T15:37:00Z</time>
      </trkpt>
      <trkpt lat="45.35032" lon="5.93078">
        <ele>526.76</ele>
        <time>2013-09-01T15:37:05Z</time>
      </trkpt>
      <trkpt lat="45.35054" lon="5.93087">
        <ele>522.73</ele>
        <time>2013-09-01T15:37:09Z</time>
      </trkpt>
      <trkpt lat="45.35073" lon="5.93097">
        <ele>519.72</ele>
        <time>2013-09-01T15:37:14Z</time>
      </trkpt>
      <trkpt lat="45.35087" lon="5.93116">
        <ele>506.81</ele>
        <time>2013-09-01T15:37:22Z</time>
      </trkpt>
      <trkpt lat="45.35105" lon="5.93128">
        <ele>494.32</ele>
        <time>2013-09-01T15:37:28Z</time>
      </trkpt>
      <trkpt lat="45.35127" lon="5.9314">
        <ele>482.8</ele>
        <time>2013-09-01T15:37:34Z</time>
      </trkpt>
      <trkpt lat="45.35149" lon="5.93147">
        <ele>472.39</ele>
        <time>2013-09-01T15:37:38Z</time>
      </trkpt>
      <trkpt lat="45.35166" lon="5.93155">
        <ele>471.25</ele>
        <time>2013-09-01T15:37:41Z</time>
      </trkpt>
      <trkpt lat="45.35187" lon="5.93159">
        <ele>465.94</ele>
        <time>2013-09-01T15:37:45Z</time>
      </trkpt>
      <trkpt lat="45.35206" lon="5.93174">
        <ele>466.56</ele>
        <time>2013-09-01T15:37:48Z</time>
      </trkpt>
      <trkpt lat="45.35221" lon="5.93191">
        <ele>476.51</ele>
        <time>2013-09-01T15:37:50Z</time>
      </trkpt>
      <trkpt lat="45.3524" lon="5.93204">
        <ele>487.05</ele>
        <time>2013-09-01T15:37:52Z</time>
      </trkpt>
      <trkpt lat="45.35258" lon="5.93216">
        <ele>495.97</ele>
        <time>2013-09-01T15:37:54Z</time>
      </trkpt>
      <trkpt lat="45.35279" lon="5.93229">
        <ele>502.49</ele>
        <time>2013-09-01T15:37:56Z</time>
      </trkpt>
      <trkpt lat="45.35306" lon="5.93243">
        <ele>508.29</ele>
        <time>2013-09-01T15:37:58Z</time>
      </trkpt>
      <trkpt lat="45.35326" lon="5.93255">
        <ele>510.3</ele>
        <time>2013-09-01T15:38:00Z</time>
      </trkpt>
      <trkpt lat="45.35345" lon="5.93265">
        <ele>510.63</ele>
        <time>2013-09-01T15:38:03Z</time>
      </trkpt>
      <trkpt lat="45.35362" lon="5.93283">
        <ele>502.48</ele>
        <time>2013-09-01T15:38:07Z</time>
      </trkpt>
      <trkpt lat="45.35375" lon="5.93306">
        <ele>494.61</ele>
        <time>2013-09-01T15:38:12Z</time>
      </trkpt>
      <trkpt lat="45.35389" lon="5.93328">
        <ele>486.82</ele>
        <time>2013-09-01T15:38:17Z</time>
      </trkpt>
      <trkpt lat="45.35403" lon="5.93347">
        <ele>480.99</ele>
        <time>2013-09-01T15:38:23Z</time>
      </trkpt>
      <trkpt lat="45.35415" lon="5.93368">
        <ele>474.75</ele>
        <time>2013-09-01T15:38:28Z</time>
      </trkpt>
      <trkpt lat="45.35427" lon="5.93394">
        <ele>465.24</ele>
        <time>2013-09-01T15:38:34Z</time>
      </trkpt>
      <trkpt lat="45.35437" lon="5.93419">
        <ele>456.6</ele>
        <time>2013-09-01T15:38:39Z</time>
      </trkpt>
      <trkpt lat="45.35448" lon="5.93443">
        <ele>451.4</ele>
        <time>2013-09-01T15:38:44Z</time>
      </trkpt>
      <trkpt lat="45.35464" lon="5.93462">
        <ele>445.58</ele>
        <time>2013-09-01T15:38:49Z</time>
      </trkpt>
      <trkpt lat="45.35478" lon="5.93483">
        <ele>440.17</ele>
        <time>2013-09-01T15:38:54Z</time>
      </trkpt>
      <trkpt lat="45.3548" lon="5.93512">
        <ele>435.64</ele>
        <time>2013-09-01T15:38:58Z</time>
      </trkpt>
      <trkpt lat="45.3547" lon="5.93536">
        <ele>428.74</ele>
        <time>2013-09-01T15:39:02Z</time>
      </trkpt>
      <trkpt lat="45.35463" lon="5.93564">
        <ele>430.69</ele>
        <time>2013-09-01T15:39:05Z</time>
      </trkpt>
      <trkpt lat="45.3546" lon="5.93599">
        <ele>436.75</ele>
        <time>2013-09-01T15:39:08Z</time>
      </trkpt>
      <trkpt lat="45.35458" lon="5.93628">
        <ele>442.43</ele>
        <time>2013-09-01T15:39:10Z</time>
      </trkpt>
      <trkpt lat="45.35456" lon="5.93657">
        <ele>447.38</ele>
        <time>2013-09-01T15:39:12Z</time>
      </trkpt>
      <trkpt lat="45.35452" lon="5.93688">
        <ele>449.66</ele>
        <time>2013-09-01T15:39:14Z</time>
      </trkpt>
      <trkpt lat="45.3545" lon="5.93722">
        <ele>451.38</ele>
        <time>2013-09-01T15:39:17Z</time>
      </trkpt>
      <trkpt lat="45.3546" lon="5.93749">
        <ele>447.48</ele>
        <time>2013-09-01T15:39:20Z</time>
      </trkpt>
      <trkpt lat="45.35466" lon="5.93778">
        <ele>440.12</ele>
        <time>2013-09-01T15:39:23Z</time>
      </trkpt>
      <trkpt lat="45.35479" lon="5.93806">
        <ele>430.01</ele>
        <time>2013-09-01T15:39:26Z</time>
      </trkpt>
      <trkpt lat="45.35496" lon="5.93823">
        <ele>421.31</ele>
        <time>2013-09-01T15:39:29Z</time>
      </trkpt>
      <trkpt lat="45.35514" lon="5.9384">
        <ele>413.79</ele>
        <time>2013-09-01T15:39:32Z</time>
      </trkpt>
      <trkpt lat="45.3553" lon="5.93861">
        <ele>407.23</ele>
        <time>2013-09-01T15:39:35Z</time>
      </trkpt>
      <trkpt lat="45.3555" lon="5.93871">
        <ele>401.57</ele>
        <time>2013-09-01T15:39:38Z</time>
      </trkpt>
      <trkpt lat="45.35569" lon="5.93879">
        <ele>396.14</ele>
        <time>2013-09-01T15:39:41Z</time>
      </trkpt>
      <trkpt lat="45.35592" lon="5.9389">
        <ele>390.44</ele>
        <time>2013-09-01T15:39:44Z</time>
      </trkpt>
      <trkpt lat="45.3561" lon="5.93908">
        <ele>384.74</ele>
        <time>2013-09-01T15:39:47Z</time>
      </trkpt>
      <trkpt lat="45.35635" lon="5.93923">
        <ele>379.62</ele>
        <time>2013-09-01T15:39:50Z</time>
      </trkpt>
      <trkpt lat="45.3565" lon="5.9395">
        <ele>375.14</ele>
        <time>2013-09-01T15:39:53Z</time>
      </trkpt>
      <trkpt lat="45.35666" lon="5.93973">
        <ele>369.88</ele>
        <time>2013-09-01T15:39:56Z</time>
      </trkpt>
      <trkpt lat="45.35683" lon="5.9399">
        <ele>369.38</ele>
        <time>2013-09-01T15:39:59Z</time>
      </trkpt>
      <trkpt lat="45.35699" lon="5.94004">
        <ele>368.57</ele>
        <time>2013-09-01T15:40:03Z</time>
      </trkpt>
      <trkpt lat="45.35716" lon="5.94014">
        <ele>372.61</ele>
        <time>2013-09-01T15:40:06Z</time>
      </trkpt>
      <trkpt lat="45.35734" lon="5.94023">
        <ele>376.75</ele>
        <time>2013-09-01T15:40:09Z</time>
      </trkpt>
      <trkpt lat="45.35753" lon="5.94028">
        <ele>385.06</ele>
        <time>2013-09-01T15:40:13Z</time>
      </trkpt>
      <trkpt lat="45.3577" lon="5.9402">
        <ele>385.93</ele>
        <time>2013-09-01T15:40:19Z</time>
      </trkpt>
      <trkpt lat="45.35793" lon="5.94021">
        <ele>390.47</ele>
        <time>2013-09-01T15:40:34Z</time>
      </trkpt>
      <trkpt lat="45.35811" lon="5.94029">
        <ele>394.24</ele>
        <time>2013-09-01T15:40:38Z</time>
      </trkpt>
      <trkpt lat="45.35831" lon="5.94033">
        <ele>393.28</ele>
        <time>2013-09-01T15:40:44Z</time>
      </trkpt>
      <trkpt lat="45.35854" lon="5.94032">
        <ele>384.51</ele>
        <time>2013-09-01T15:40:52Z</time>
      </trkpt>
      <trkpt lat="45.35874" lon="5.94024">
        <ele>375</ele>
        <time>2013-09-01T15:41:03Z</time>
      </trkpt>
      <trkpt lat="45.35891" lon="5.94016">
        <ele>377.11</ele>
        <time>2013-09-01T15:41:09Z</time>
      </trkpt>
      <trkpt lat="45.35912" lon="5.94025">
        <ele>373.95</ele>
        <time>2013-09-01T15:41:13Z</time>
      </trkpt>
      <trkpt lat="45.35927" lon="5.94044">
        <ele>378.77</ele>
        <time>2013-09-01T15:41:16Z</time>
      </trkpt>
      <trkpt lat="45.35938" lon="5.94072">
        <ele>392.27</ele>
        <time>2013-09-01T15:41:20Z</time>
      </trkpt>
      <trkpt lat="45.35952" lon="5.94096">
        <ele>403.79</ele>
        <time>2013-09-01T15:41:25Z</time>
      </trkpt>
      <trkpt lat="45.35962" lon="5.94118">
        <ele>409.85</ele>
        <time>2013-09-01T15:41:30Z</time>
      </trkpt>
      <trkpt lat="45.35974" lon="5.94144">
        <ele>412.49</ele>
        <time>2013-09-01T15:41:36Z</time>
      </trkpt>
      <trkpt lat="45.35985" lon="5.94169">
        <ele>416.32</ele>
        <time>2013-09-01T15:41:41Z</time>
      </trkpt>
      <trkpt lat="45.35999" lon="5.94193">
        <ele>411.64</ele>
        <time>2013-09-01T15:41:47Z</time>
      </trkpt>
      <trkpt lat="45.36012" lon="5.94214">
        <ele>408.78</ele>
        <time>2013-09-01T15:41:51Z</time>
      </trkpt>
      <trkpt lat="45.36025" lon="5.94238">
        <ele>408.06</ele>
        <time>2013-09-01T15:41:55Z</time>
      </trkpt>
      <trkpt lat="45.3604" lon="5.94256">
        <ele>407.2</ele>
        <time>2013-09-01T15:41:58Z</time>
      </trkpt>
      <trkpt lat="45.36055" lon="5.94276">
        <ele>405.73</ele>
        <time>2013-09-01T15:42:01Z</time>
      </trkpt>
      <trkpt lat="45.36079" lon="5.94292">
        <ele>399.79</ele>
        <time>2013-09-01T15:42:04Z</time>
      </trkpt>
      <trkpt lat="45.361" lon="5.94305">
        <ele>393.7</ele>
        <time>2013-09-01T15:42:07Z</time>
      </trkpt>
      <trkpt lat="45.36122" lon="5.94311">
        <ele>387.57</ele>
        <time>2013-09-01T15:42:10Z</time>
      </trkpt>
      <trkpt lat="45.36148" lon="5.94315">
        <ele>381.7</ele>
        <time>2013-09-01T15:42:13Z</time>
      </trkpt>
      <trkpt lat="45.36167" lon="5.94317">
        <ele>378.53</ele>
        <time>2013-09-01T15:42:15Z</time>
      </trkpt>
      <trkpt lat="45.3619" lon="5.94317">
        <ele>375.43</ele>
        <time>2013-09-01T15:42:17Z</time>
      </trkpt>
      <trkpt lat="45.36217" lon="5.94316">
        <ele>373.69</ele>
        <time>2013-09-01T15:42:19Z</time>
      </trkpt>
      <trkpt lat="45.36242" lon="5.94317">
        <ele>372.4</ele>
        <time>2013-09-01T15:42:21Z</time>
      </trkpt>
      <trkpt lat="45.36265" lon="5.94319">
        <ele>372.17</ele>
        <time>2013-09-01T15:42:23Z</time>
      </trkpt>
      <trkpt lat="45.36277" lon="5.9434">
        <ele>374.67</ele>
        <time>2013-09-01T15:42:31Z</time>
      </trkpt>
      <trkpt lat="45.36287" lon="5.94362">
        <ele>369.69</ele>
        <time>2013-09-01T15:43:43Z</time>
      </trkpt>
      <trkpt lat="45.36307" lon="5.94369">
        <ele>373.03</ele>
        <time>2013-09-01T15:43:51Z</time>
      </trkpt>
      <trkpt lat="45.36327" lon="5.94379">
        <ele>372.2</ele>
        <time>2013-09-01T15:43:57Z</time>
      </trkpt>
      <trkpt lat="45.36348" lon="5.94386">
        <ele>366.27</ele>
        <time>2013-09-01T15:44:02Z</time>
      </trkpt>
      <trkpt lat="45.36367" lon="5.94389">
        <ele>361.39</ele>
        <time>2013-09-01T15:44:07Z</time>
      </trkpt>
      <trkpt lat="45.36387" lon="5.94391">
        <ele>366.09</ele>
        <time>2013-09-01T15:44:13Z</time>
      </trkpt>
      <trkpt lat="45.36406" lon="5.94395">
        <ele>370.48</ele>
        <time>2013-09-01T15:44:18Z</time>
      </trkpt>
      <trkpt lat="45.36425" lon="5.94399">
        <ele>370.39</ele>
        <time>2013-09-01T15:44:23Z</time>
      </trkpt>
      <trkpt lat="45.36444" lon="5.94406">
        <ele>368.14</ele>
        <time>2013-09-01T15:44:30Z</time>
      </trkpt>
      <trkpt lat="45.36464" lon="5.9441">
        <ele>366.06</ele>
        <time>2013-09-01T15:44:39Z</time>
      </trkpt>
      <trkpt lat="45.36483" lon="5.94412">
        <ele>366.03</ele>
        <time>2013-09-01T15:44:44Z</time>
      </trkpt>
      <trkpt lat="45.36501" lon="5.94413">
        <ele>367.1</ele>
        <time>2013-09-01T15:44:47Z</time>
      </trkpt>
      <trkpt lat="45.36522" lon="5.94417">
        <ele>370.28</ele>
        <time>2013-09-01T15:44:51Z</time>
      </trkpt>
      <trkpt lat="45.36542" lon="5.9442">
        <ele>371.27</ele>
        <time>2013-09-01T15:44:55Z</time>
      </trkpt>
      <trkpt lat="45.36563" lon="5.94423">
        <ele>371.94</ele>
        <time>2013-09-01T15:44:59Z</time>
      </trkpt>
      <trkpt lat="45.36586" lon="5.94426">
        <ele>372.83</ele>
        <time>2013-09-01T15:45:03Z</time>
      </trkpt>
      <trkpt lat="45.366" lon="5.94443">
        <ele>372.47</ele>
        <time>2013-09-01T15:45:08Z</time>
      </trkpt>
      <trkpt lat="45.36603" lon="5.94469">
        <ele>370.47</ele>
        <time>2013-09-01T15:45:11Z</time>
      </trkpt>
      <trkpt lat="45.36604" lon="5.94502">
        <ele>369.44</ele>
        <time>2013-09-01T15:45:14Z</time>
      </trkpt>
      <trkpt lat="45.36602" lon="5.94529">
        <ele>365.43</ele>
        <time>2013-09-01T15:45:17Z</time>
      </trkpt>
      <trkpt lat="45.36607" lon="5.94557">
        <ele>359.75</ele>
        <time>2013-09-01T15:45:22Z</time>
      </trkpt>
      <trkpt lat="45.36623" lon="5.94577">
        <ele>354.37</ele>
        <time>2013-09-01T15:45:26Z</time>
      </trkpt>
      <trkpt lat="45.36641" lon="5.94593">
        <ele>349.91</ele>
        <time>2013-09-01T15:45:31Z</time>
      </trkpt>
      <trkpt lat="45.36659" lon="5.94603">
        <ele>346.35</ele>
        <time>2013-09-01T15:45:35Z</time>
      </trkpt>
      <trkpt lat="45.36681" lon="5.94613">
        <ele>344.33</ele>
        <time>2013-09-01T15:45:39Z</time>
      </trkpt>
      <trkpt lat="45.36699" lon="5.9462">
        <ele>344.33</ele>
        <time>2013-09-01T15:45:42Z</time>
      </trkpt>
      <trkpt lat="45.36718" lon="5.9463">
        <ele>343.25</ele>
        <time>2013-09-01T15:45:46Z</time>
      </trkpt>
      <trkpt lat="45.36738" lon="5.94632">
        <ele>342.62</ele>
        <time>2013-09-01T15:45:52Z</time>
      </trkpt>
      <trkpt lat="45.36757" lon="5.94635">
        <ele>342.18</ele>
        <time>2013-09-01T15:45:58Z</time>
      </trkpt>
      <trkpt lat="45.36776" lon="5.94648">
        <ele>344.48</ele>
        <time>2013-09-01T15:46:04Z</time>
      </trkpt>
      <trkpt lat="45.36798" lon="5.94663">
        <ele>351.33</ele>
        <time>2013-09-01T15:46:08Z</time>
      </trkpt>
      <trkpt lat="45.36815" lon="5.94673">
        <ele>355.62</ele>
        <time>2013-09-01T15:46:12Z</time>
      </trkpt>
      <trkpt lat="45.36829" lon="5.94691">
        <ele>357.45</ele>
        <time>2013-09-01T15:46:17Z</time>
      </trkpt>
      <trkpt lat="45.36837" lon="5.94715">
        <ele>352.53</ele>
        <time>2013-09-01T15:46:22Z</time>
      </trkpt>
      <trkpt lat="45.36849" lon="5.94735">
        <ele>344.76</ele>
        <time>2013-09-01T15:46:30Z</time>
      </trkpt>
      <trkpt lat="45.36867" lon="5.94735">
        <ele>333.04</ele>
        <time>2013-09-01T15:46:40Z</time>
      </trkpt>
      <trkpt lat="45.36884" lon="5.94745">
        <ele>331.56</ele>
        <time>2013-09-01T15:46:46Z</time>
      </trkpt>
      <trkpt lat="45.36893" lon="5.9477">
        <ele>332.99</ele>
        <time>2013-09-01T15:46:52Z</time>
      </trkpt>
      <trkpt lat="45.36912" lon="5.94794">
        <ele>328.01</ele>
        <time>2013-09-01T15:47:04Z</time>
      </trkpt>
      <trkpt lat="45.36932" lon="5.94799">
        <ele>322.61</ele>
        <time>2013-09-01T15:47:08Z</time>
      </trkpt>
      <trkpt lat="45.36953" lon="5.94802">
        <ele>321.6</ele>
        <time>2013-09-01T15:47:13Z</time>
      </trkpt>
      <trkpt lat="45.36976" lon="5.94803">
        <ele>324.43</ele>
        <time>2013-09-01T15:47:19Z</time>
      </trkpt>
      <trkpt lat="45.37001" lon="5.94804">
        <ele>324.38</ele>
        <time>2013-09-01T15:47:32Z</time>
      </trkpt>
      <trkpt lat="45.37021" lon="5.94804">
        <ele>321.09</ele>
        <time>2013-09-01T15:47:37Z</time>
      </trkpt>
      <trkpt lat="45.37042" lon="5.94805">
        <ele>325.32</ele>
        <time>2013-09-01T15:47:41Z</time>
      </trkpt>
      <trkpt lat="45.3706" lon="5.94807">
        <ele>331.44</ele>
        <time>2013-09-01T15:47:44Z</time>
      </trkpt>
      <trkpt lat="45.37081" lon="5.94811">
        <ele>339.55</ele>
        <time>2013-09-01T15:47:47Z</time>
      </trkpt>
      <trkpt lat="45.371" lon="5.94819">
        <ele>347.04</ele>
        <time>2013-09-01T15:47:50Z</time>
      </trkpt>
      <trkpt lat="45.3712" lon="5.9483">
        <ele>350.46</ele>
        <time>2013-09-01T15:47:54Z</time>
      </trkpt>
      <trkpt lat="45.37137" lon="5.94841">
        <ele>349.79</ele>
        <time>2013-09-01T15:47:58Z</time>
      </trkpt>
      <trkpt lat="45.37153" lon="5.94854">
        <ele>351.74</ele>
        <time>2013-09-01T15:48:02Z</time>
      </trkpt>
      <trkpt lat="45.37171" lon="5.94857">
        <ele>353.06</ele>
        <time>2013-09-01T15:48:06Z</time>
      </trkpt>
      <trkpt lat="45.3719" lon="5.9486">
        <ele>353.55</ele>
        <time>2013-09-01T15:48:10Z</time>
      </trkpt>
      <trkpt lat="45.3721" lon="5.9486">
        <ele>352.58</ele>
        <time>2013-09-01T15:48:14Z</time>
      </trkpt>
      <trkpt lat="45.37229" lon="5.94854">
        <ele>346.39</ele>
        <time>2013-09-01T15:48:19Z</time>
      </trkpt>
      <trkpt lat="45.37245" lon="5.94842">
        <ele>343.52</ele>
        <time>2013-09-01T15:48:25Z</time>
      </trkpt>
      <trkpt lat="45.37269" lon="5.94841">
        <ele>342.32</ele>
        <time>2013-09-01T15:48:28Z</time>
      </trkpt>
      <trkpt lat="45.37295" lon="5.94841">
        <ele>342.22</ele>
        <time>2013-09-01T15:48:31Z</time>
      </trkpt>
      <trkpt lat="45.37314" lon="5.9484">
        <ele>342.57</ele>
        <time>2013-09-01T15:48:33Z</time>
      </trkpt>
      <trkpt lat="45.37336" lon="5.94841">
        <ele>341.45</ele>
        <time>2013-09-01T15:48:36Z</time>
      </trkpt>
      <trkpt lat="45.37353" lon="5.94858">
        <ele>339.21</ele>
        <time>2013-09-01T15:48:40Z</time>
      </trkpt>
      <trkpt lat="45.3737" lon="5.94873">
        <ele>336.04</ele>
        <time>2013-09-01T15:48:44Z</time>
      </trkpt>
      <trkpt lat="45.37391" lon="5.94878">
        <ele>334.08</ele>
        <time>2013-09-01T15:48:48Z</time>
      </trkpt>
      <trkpt lat="45.37412" lon="5.94882">
        <ele>332.44</ele>
        <time>2013-09-01T15:48:53Z</time>
      </trkpt>
      <trkpt lat="45.37432" lon="5.94885">
        <ele>332.09</ele>
        <time>2013-09-01T15:48:57Z</time>
      </trkpt>
      <trkpt lat="45.37452" lon="5.94896">
        <ele>332.51</ele>
        <time>2013-09-01T15:49:02Z</time>
      </trkpt>
      <trkpt lat="45.37469" lon="5.94909">
        <ele>334.84</ele>
        <time>2013-09-01T15:49:09Z</time>
      </trkpt>
      <trkpt lat="45.37489" lon="5.94913">
        <ele>336.21</ele>
        <time>2013-09-01T15:49:14Z</time>
      </trkpt>
      <trkpt lat="45.37509" lon="5.94908">
        <ele>335.74</ele>
        <time>2013-09-01T15:49:19Z</time>
      </trkpt>
      <trkpt lat="45.37529" lon="5.94909">
        <ele>337.39</ele>
        <time>2013-09-01T15:49:25Z</time>
      </trkpt>
      <trkpt lat="45.37548" lon="5.94909">
        <ele>338.94</ele>
        <time>2013-09-01T15:49:30Z</time>
      </trkpt>
      <trkpt lat="45.37567" lon="5.94908">
        <ele>340.76</ele>
        <time>2013-09-01T15:49:34Z</time>
      </trkpt>
      <trkpt lat="45.37586" lon="5.94907">
        <ele>343.41</ele>
        <time>2013-09-01T15:49:39Z</time>
      </trkpt>
      <trkpt lat="45.37605" lon="5.94909">
        <ele>342.77</ele>
        <time>2013-09-01T15:49:44Z</time>
      </trkpt>
      <trkpt lat="45.37625" lon="5.94915">
        <ele>339.89</ele>
        <time>2013-09-01T15:49:50Z</time>
      </trkpt>
      <trkpt lat="45.37647" lon="5.94918">
        <ele>339.62</ele>
        <time>2013-09-01T15:49:54Z</time>
      </trkpt>
      <trkpt lat="45.3767" lon="5.94919">
        <ele>342.67</ele>
        <time>2013-09-01T15:49:58Z</time>
      </trkpt>
      <trkpt lat="45.37689" lon="5.94925">
        <ele>342.55</ele>
        <time>2013-09-01T15:50:03Z</time>
      </trkpt>
      <trkpt lat="45.3771" lon="5.94939">
        <ele>338.89</ele>
        <time>2013-09-01T15:50:08Z</time>
      </trkpt>
      <trkpt lat="45.37727" lon="5.94948">
        <ele>340.23</ele>
        <time>2013-09-01T15:50:12Z</time>
      </trkpt>
      <trkpt lat="45.37744" lon="5.94956">
        <ele>336.45</ele>
        <time>2013-09-01T15:50:16Z</time>
      </trkpt>
      <trkpt lat="45.37764" lon="5.94964">
        <ele>335.02</ele>
        <time>2013-09-01T15:50:20Z</time>
      </trkpt>
      <trkpt lat="45.37785" lon="5.94976">
        <ele>334.38</ele>
        <time>2013-09-01T15:50:24Z</time>
      </trkpt>
      <trkpt lat="45.37802" lon="5.94988">
        <ele>336.67</ele>
        <time>2013-09-01T15:50:28Z</time>
      </trkpt>
      <trkpt lat="45.37819" lon="5.95">
        <ele>336.9</ele>
        <time>2013-09-01T15:50:33Z</time>
      </trkpt>
      <trkpt lat="45.37836" lon="5.95011">
        <ele>336.69</ele>
        <time>2013-09-01T15:50:37Z</time>
      </trkpt>
      <trkpt lat="45.37858" lon="5.95018">
        <ele>336.36</ele>
        <time>2013-09-01T15:50:41Z</time>
      </trkpt>
      <trkpt lat="45.37876" lon="5.95019">
        <ele>334.82</ele>
        <time>2013-09-01T15:50:44Z</time>
      </trkpt>
      <trkpt lat="45.37897" lon="5.9502">
        <ele>334.75</ele>
        <time>2013-09-01T15:50:48Z</time>
      </trkpt>
      <trkpt lat="45.37917" lon="5.9502">
        <ele>336.03</ele>
        <time>2013-09-01T15:50:52Z</time>
      </trkpt>
      <trkpt lat="45.37939" lon="5.95017">
        <ele>338.81</ele>
        <time>2013-09-01T15:50:56Z</time>
      </trkpt>
      <trkpt lat="45.3796" lon="5.95016">
        <ele>337.56</ele>
        <time>2013-09-01T15:51:00Z</time>
      </trkpt>
      <trkpt lat="45.3798" lon="5.95016">
        <ele>335.35</ele>
        <time>2013-09-01T15:51:04Z</time>
      </trkpt>
      <trkpt lat="45.38001" lon="5.95016">
        <ele>340.04</ele>
        <time>2013-09-01T15:51:08Z</time>
      </trkpt>
      <trkpt lat="45.38024" lon="5.95021">
        <ele>345.37</ele>
        <time>2013-09-01T15:51:12Z</time>
      </trkpt>
      <trkpt lat="45.38045" lon="5.95033">
        <ele>347.47</ele>
        <time>2013-09-01T15:51:16Z</time>
      </trkpt>
      <trkpt lat="45.38062" lon="5.95047">
        <ele>346.41</ele>
        <time>2013-09-01T15:51:20Z</time>
      </trkpt>
      <trkpt lat="45.38078" lon="5.95061">
        <ele>346.87</ele>
        <time>2013-09-01T15:51:24Z</time>
      </trkpt>
      <trkpt lat="45.38096" lon="5.95079">
        <ele>345.29</ele>
        <time>2013-09-01T15:51:29Z</time>
      </trkpt>
      <trkpt lat="45.38111" lon="5.95092">
        <ele>344.54</ele>
        <time>2013-09-01T15:51:34Z</time>
      </trkpt>
      <trkpt lat="45.3813" lon="5.95104">
        <ele>344.1</ele>
        <time>2013-09-01T15:51:40Z</time>
      </trkpt>
      <trkpt lat="45.38146" lon="5.95118">
        <ele>343.78</ele>
        <time>2013-09-01T15:51:47Z</time>
      </trkpt>
      <trkpt lat="45.38163" lon="5.9513">
        <ele>338.06</ele>
        <time>2013-09-01T15:51:54Z</time>
      </trkpt>
      <trkpt lat="45.3818" lon="5.95143">
        <ele>334.63</ele>
        <time>2013-09-01T15:52:00Z</time>
      </trkpt>
      <trkpt lat="45.38195" lon="5.95158">
        <ele>333.09</ele>
        <time>2013-09-01T15:52:05Z</time>
      </trkpt>
      <trkpt lat="45.38211" lon="5.95171">
        <ele>335.17</ele>
        <time>2013-09-01T15:52:10Z</time>
      </trkpt>
      <trkpt lat="45.38227" lon="5.95185">
        <ele>338.77</ele>
        <time>2013-09-01T15:52:15Z</time>
      </trkpt>
      <trkpt lat="45.38245" lon="5.952">
        <ele>341.79</ele>
        <time>2013-09-01T15:52:21Z</time>
      </trkpt>
      <trkpt lat="45.38262" lon="5.95217">
        <ele>344.61</ele>
        <time>2013-09-01T15:52:28Z</time>
      </trkpt>
      <trkpt lat="45.3828" lon="5.95229">
        <ele>344.01</ele>
        <time>2013-09-01T15:52:34Z</time>
      </trkpt>
      <trkpt lat="45.38299" lon="5.95237">
        <ele>344</ele>
        <time>2013-09-01T15:52:40Z</time>
      </trkpt>
      <trkpt lat="45.38319" lon="5.95241">
        <ele>347.03</ele>
        <time>2013-09-01T15:52:46Z</time>
      </trkpt>
      <trkpt lat="45.38341" lon="5.95238">
        <ele>347.19</ele>
        <time>2013-09-01T15:52:55Z</time>
      </trkpt>
      <trkpt lat="45.38361" lon="5.95226">
        <ele>348.24</ele>
        <time>2013-09-01T15:53:02Z</time>
      </trkpt>
      <trkpt lat="45.38378" lon="5.95218">
        <ele>351.76</ele>
        <time>2013-09-01T15:53:08Z</time>
      </trkpt>
      <trkpt lat="45.38398" lon="5.9521">
        <ele>354.12</ele>
        <time>2013-09-01T15:53:15Z</time>
      </trkpt>
      <trkpt lat="45.38401" lon="5.95184">
        <ele>352.99</ele>
        <time>2013-09-01T15:53:25Z</time>
      </trkpt>
      <trkpt lat="45.38421" lon="5.95187">
        <ele>347.94</ele>
        <time>2013-09-01T15:53:35Z</time>
      </trkpt>
      <trkpt lat="45.38441" lon="5.95188">
        <ele>345.3</ele>
        <time>2013-09-01T15:53:43Z</time>
      </trkpt>
      <trkpt lat="45.38459" lon="5.95184">
        <ele>340.81</ele>
        <time>2013-09-01T15:53:50Z</time>
      </trkpt>
      <trkpt lat="45.38477" lon="5.95183">
        <ele>337.1</ele>
        <time>2013-09-01T15:53:59Z</time>
      </trkpt>
      <trkpt lat="45.38497" lon="5.95188">
        <ele>329.81</ele>
        <time>2013-09-01T15:54:08Z</time>
      </trkpt>
      <trkpt lat="45.38516" lon="5.95192">
        <ele>326.22</ele>
        <time>2013-09-01T15:54:17Z</time>
      </trkpt>
      <trkpt lat="45.38535" lon="5.9519">
        <ele>321</ele>
        <time>2013-09-01T15:54:25Z</time>
      </trkpt>
      <trkpt lat="45.38554" lon="5.95188">
        <ele>318.89</ele>
        <time>2013-09-01T15:54:33Z</time>
      </trkpt>
      <trkpt lat="45.38573" lon="5.9519">
        <ele>332</ele>
        <time>2013-09-01T15:54:37Z</time>
      </trkpt>
      <trkpt lat="45.38593" lon="5.95195">
        <ele>341.3</ele>
        <time>2013-09-01T15:54:43Z</time>
      </trkpt>
      <trkpt lat="45.38614" lon="5.95196">
        <ele>345.56</ele>
        <time>2013-09-01T15:54:53Z</time>
      </trkpt>
      <trkpt lat="45.38633" lon="5.95203">
        <ele>349.32</ele>
        <time>2013-09-01T15:54:59Z</time>
      </trkpt>
      <trkpt lat="45.3865" lon="5.95217">
        <ele>346.47</ele>
        <time>2013-09-01T15:55:06Z</time>
      </trkpt>
      <trkpt lat="45.38668" lon="5.95228">
        <ele>335.85</ele>
        <time>2013-09-01T15:55:14Z</time>
      </trkpt>
      <trkpt lat="45.38669" lon="5.95255">
        <ele>329.34</ele>
        <time>2013-09-01T15:55:20Z</time>
      </trkpt>
      <trkpt lat="45.38666" lon="5.9528">
        <ele>335.83</ele>
        <time>2013-09-01T15:55:29Z</time>
      </trkpt>
      <trkpt lat="45.38656" lon="5.95302">
        <ele>340.2</ele>
        <time>2013-09-01T15:55:39Z</time>
      </trkpt>
      <trkpt lat="45.3865" lon="5.95328">
        <ele>351.7</ele>
        <time>2013-09-01T15:55:46Z</time>
      </trkpt>
      <trkpt lat="45.38643" lon="5.95352">
        <ele>362.64</ele>
        <time>2013-09-01T15:55:51Z</time>
      </trkpt>
      <trkpt lat="45.38636" lon="5.95376">
        <ele>371.09</ele>
        <time>2013-09-01T15:56:03Z</time>
      </trkpt>
      <trkpt lat="45.38631" lon="5.95402">
        <ele>372.71</ele>
        <time>2013-09-01T15:56:39Z</time>
      </trkpt>
      <trkpt lat="45.38642" lon="5.9538">
        <ele>369.49</ele>
        <time>2013-09-01T15:57:08Z</time>
      </trkpt>
      <trkpt lat="45.38652" lon="5.95356">
        <ele>371.78</ele>
        <time>2013-09-01T15:57:17Z</time>
      </trkpt>
      <trkpt lat="45.3867" lon="5.95366">
        <ele>367.3</ele>
        <time>2013-09-01T15:57:27Z</time>
      </trkpt>
      <trkpt lat="45.38669" lon="5.95392">
        <ele>373.14</ele>
        <time>2013-09-01T15:57:38Z</time>
      </trkpt>
      <trkpt lat="45.38673" lon="5.95417">
        <ele>374.34</ele>
        <time>2013-09-01T15:57:51Z</time>
      </trkpt>
      <trkpt lat="45.38691" lon="5.95426">
        <ele>379.15</ele>
        <time>2013-09-01T15:58:02Z</time>
      </trkpt>
      <trkpt lat="45.38702" lon="5.95448">
        <ele>375.5</ele>
        <time>2013-09-01T15:58:15Z</time>
      </trkpt>
      <trkpt lat="45.38716" lon="5.95466">
        <ele>377.93</ele>
        <time>2013-09-01T15:58:26Z</time>
      </trkpt>
      <trkpt lat="45.38733" lon="5.95477">
        <ele>392.06</ele>
        <time>2013-09-01T15:58:42Z</time>
      </trkpt>
      <trkpt lat="45.3875" lon="5.95487">
        <ele>389.31</ele>
        <time>2013-09-01T15:58:53Z</time>
      </trkpt>
      <trkpt lat="45.38765" lon="5.95501">
        <ele>384.9</ele>
        <time>2013-09-01T15:59:08Z</time>
      </trkpt>
      <trkpt lat="45.38779" lon="5.9552">
        <ele>387.35</ele>
        <time>2013-09-01T15:59:23Z</time>
      </trkpt>
      <trkpt lat="45.38789" lon="5.95545">
        <ele>390.18</ele>
        <time>2013-09-01T15:59:35Z</time>
      </trkpt>
      <trkpt lat="45.38798" lon="5.9557">
        <ele>393.38</ele>
        <time>2013-09-01T15:59:45Z</time>
      </trkpt>
      <trkpt lat="45.38809" lon="5.95591">
        <ele>393.87</ele>
        <time>2013-09-01T15:59:55Z</time>
      </trkpt>
      <trkpt lat="45.38823" lon="5.95611">
        <ele>394.15</ele>
        <time>2013-09-01T16:00:05Z</time>
      </trkpt>
      <trkpt lat="45.38837" lon="5.95628">
        <ele>392.7</ele>
        <time>2013-09-01T16:00:14Z</time>
      </trkpt>
      <trkpt lat="45.38852" lon="5.95647">
        <ele>389.92</ele>
        <time>2013-09-01T16:00:23Z</time>
      </trkpt>
      <trkpt lat="45.38868" lon="5.9566">
        <ele>393.61</ele>
        <time>2013-09-01T16:00:28Z</time>
      </trkpt>
      <trkpt lat="45.38885" lon="5.95676">
        <ele>394.07</ele>
        <time>2013-09-01T16:00:35Z</time>
      </trkpt>
      <trkpt lat="45.38899" lon="5.95692">
        <ele>392.02</ele>
        <time>2013-09-01T16:00:41Z</time>
      </trkpt>
      <trkpt lat="45.38912" lon="5.9571">
        <ele>393.99</ele>
        <time>2013-09-01T16:00:47Z</time>
      </trkpt>
      <trkpt lat="45.38924" lon="5.95731">
        <ele>394.89</ele>
        <time>2013-09-01T16:00:54Z</time>
      </trkpt>
      <trkpt lat="45.38936" lon="5.9575">
        <ele>395.75</ele>
        <time>2013-09-01T16:01:01Z</time>
      </trkpt>
      <trkpt lat="45.38946" lon="5.95774">
        <ele>396.52</ele>
        <time>2013-09-01T16:01:08Z</time>
      </trkpt>
      <trkpt lat="45.38962" lon="5.95789">
        <ele>399.69</ele>
        <time>2013-09-01T16:01:19Z</time>
      </trkpt>
      <trkpt lat="45.38981" lon="5.9579">
        <ele>402.82</ele>
        <time>2013-09-01T16:01:32Z</time>
      </trkpt>
      <trkpt lat="45.39" lon="5.95792">
        <ele>407.18</ele>
        <time>2013-09-01T16:01:46Z</time>
      </trkpt>
      <trkpt lat="45.39019" lon="5.95797">
        <ele>410.77</ele>
        <time>2013-09-01T16:02:00Z</time>
      </trkpt>
      <trkpt lat="45.39037" lon="5.958">
        <ele>409.56</ele>
        <time>2013-09-01T16:02:11Z</time>
      </trkpt>
      <trkpt lat="45.39057" lon="5.95802">
        <ele>409.4</ele>
        <time>2013-09-01T16:02:21Z</time>
      </trkpt>
      <trkpt lat="45.39075" lon="5.95805">
        <ele>408.63</ele>
        <time>2013-09-01T16:02:30Z</time>
      </trkpt>
      <trkpt lat="45.39094" lon="5.95807">
        <ele>409.16</ele>
        <time>2013-09-01T16:02:39Z</time>
      </trkpt>
      <trkpt lat="45.39112" lon="5.95817">
        <ele>415.57</ele>
        <time>2013-09-01T16:02:51Z</time>
      </trkpt>
      <trkpt lat="45.39128" lon="5.95829">
        <ele>417.42</ele>
        <time>2013-09-01T16:03:04Z</time>
      </trkpt>
      <trkpt lat="45.39147" lon="5.95838">
        <ele>414.14</ele>
        <time>2013-09-01T16:03:13Z</time>
      </trkpt>
      <trkpt lat="45.39165" lon="5.95849">
        <ele>421.76</ele>
        <time>2013-09-01T16:03:24Z</time>
      </trkpt>
      <trkpt lat="45.39181" lon="5.9586">
        <ele>421.04</ele>
        <time>2013-09-01T16:03:33Z</time>
      </trkpt>
      <trkpt lat="45.39199" lon="5.95863">
        <ele>420.98</ele>
        <time>2013-09-01T16:04:35Z</time>
      </trkpt>
      <trkpt lat="45.39216" lon="5.9588">
        <ele>423.09</ele>
        <time>2013-09-01T16:04:52Z</time>
      </trkpt>
      <trkpt lat="45.39235" lon="5.95893">
        <ele>421.59</ele>
        <time>2013-09-01T16:04:57Z</time>
      </trkpt>
      <trkpt lat="45.39257" lon="5.95904">
        <ele>420.81</ele>
        <time>2013-09-01T16:05:01Z</time>
      </trkpt>
      <trkpt lat="45.39275" lon="5.95914">
        <ele>416.45</ele>
        <time>2013-09-01T16:05:07Z</time>
      </trkpt>
      <trkpt lat="45.39297" lon="5.95927">
        <ele>414.54</ele>
        <time>2013-09-01T16:05:12Z</time>
      </trkpt>
      <trkpt lat="45.39318" lon="5.9594">
        <ele>413.87</ele>
        <time>2013-09-01T16:05:16Z</time>
      </trkpt>
      <trkpt lat="45.39337" lon="5.95948">
        <ele>412.94</ele>
        <time>2013-09-01T16:05:19Z</time>
      </trkpt>
      <trkpt lat="45.39354" lon="5.95956">
        <ele>410.89</ele>
        <time>2013-09-01T16:05:22Z</time>
      </trkpt>
      <trkpt lat="45.39373" lon="5.95969">
        <ele>406.19</ele>
        <time>2013-09-01T16:05:27Z</time>
      </trkpt>
      <trkpt lat="45.3939" lon="5.95979">
        <ele>406.91</ele>
        <time>2013-09-01T16:05:31Z</time>
      </trkpt>
      <trkpt lat="45.39403" lon="5.95997">
        <ele>413.17</ele>
        <time>2013-09-01T16:05:39Z</time>
      </trkpt>
      <trkpt lat="45.3941" lon="5.96025">
        <ele>409.84</ele>
        <time>2013-09-01T16:05:45Z</time>
      </trkpt>
      <trkpt lat="45.39428" lon="5.96036">
        <ele>409.29</ele>
        <time>2013-09-01T16:05:49Z</time>
      </trkpt>
      <trkpt lat="45.39447" lon="5.96044">
        <ele>408.18</ele>
        <time>2013-09-01T16:05:53Z</time>
      </trkpt>
      <trkpt lat="45.39469" lon="5.96052">
        <ele>406.33</ele>
        <time>2013-09-01T16:05:57Z</time>
      </trkpt>
      <trkpt lat="45.39484" lon="5.96067">
        <ele>405.05</ele>
        <time>2013-09-01T16:06:00Z</time>
      </trkpt>
      <trkpt lat="45.39504" lon="5.96082">
        <ele>401.76</ele>
        <time>2013-09-01T16:06:03Z</time>
      </trkpt>
      <trkpt lat="45.39521" lon="5.96092">
        <ele>401.63</ele>
        <time>2013-09-01T16:06:05Z</time>
      </trkpt>
      <trkpt lat="45.39544" lon="5.9611">
        <ele>400.48</ele>
        <time>2013-09-01T16:06:08Z</time>
      </trkpt>
      <trkpt lat="45.39565" lon="5.96127">
        <ele>399.18</ele>
        <time>2013-09-01T16:06:11Z</time>
      </trkpt>
      <trkpt lat="45.39578" lon="5.96148">
        <ele>398.68</ele>
        <time>2013-09-01T16:06:15Z</time>
      </trkpt>
      <trkpt lat="45.39583" lon="5.96174">
        <ele>399.91</ele>
        <time>2013-09-01T16:06:22Z</time>
      </trkpt>
      <trkpt lat="45.39591" lon="5.96199">
        <ele>398.27</ele>
        <time>2013-09-01T16:06:27Z</time>
      </trkpt>
      <trkpt lat="45.39609" lon="5.96208">
        <ele>400.7</ele>
        <time>2013-09-01T16:06:34Z</time>
      </trkpt>
      <trkpt lat="45.39627" lon="5.96215">
        <ele>403.61</ele>
        <time>2013-09-01T16:06:40Z</time>
      </trkpt>
      <trkpt lat="45.39647" lon="5.96224">
        <ele>404.88</ele>
        <time>2013-09-01T16:06:46Z</time>
      </trkpt>
      <trkpt lat="45.39664" lon="5.96233">
        <ele>400.74</ele>
        <time>2013-09-01T16:06:52Z</time>
      </trkpt>
      <trkpt lat="45.39681" lon="5.96241">
        <ele>398.23</ele>
        <time>2013-09-01T16:07:00Z</time>
      </trkpt>
      <trkpt lat="45.397" lon="5.96252">
        <ele>393.21</ele>
        <time>2013-09-01T16:07:07Z</time>
      </trkpt>
      <trkpt lat="45.39718" lon="5.96257">
        <ele>392.84</ele>
        <time>2013-09-01T16:07:13Z</time>
      </trkpt>
      <trkpt lat="45.39735" lon="5.96267">
        <ele>397.23</ele>
        <time>2013-09-01T16:07:21Z</time>
      </trkpt>
      <trkpt lat="45.39762" lon="5.96271">
        <ele>407.08</ele>
        <time>2013-09-01T16:07:31Z</time>
      </trkpt>
      <trkpt lat="45.3978" lon="5.96266">
        <ele>406.1</ele>
        <time>2013-09-01T16:07:38Z</time>
      </trkpt>
      <trkpt lat="45.39799" lon="5.96263">
        <ele>410.89</ele>
        <time>2013-09-01T16:07:48Z</time>
      </trkpt>
      <trkpt lat="45.39818" lon="5.96266">
        <ele>406.14</ele>
        <time>2013-09-01T16:07:57Z</time>
      </trkpt>
      <trkpt lat="45.39835" lon="5.96273">
        <ele>409.67</ele>
        <time>2013-09-01T16:08:07Z</time>
      </trkpt>
      <trkpt lat="45.39857" lon="5.96287">
        <ele>421.01</ele>
        <time>2013-09-01T16:08:23Z</time>
      </trkpt>
      <trkpt lat="45.39877" lon="5.96295">
        <ele>414.91</ele>
        <time>2013-09-01T16:08:34Z</time>
      </trkpt>
      <trkpt lat="45.39894" lon="5.96302">
        <ele>409.06</ele>
        <time>2013-09-01T16:08:42Z</time>
      </trkpt>
      <trkpt lat="45.39911" lon="5.96319">
        <ele>407.57</ele>
        <time>2013-09-01T16:08:57Z</time>
      </trkpt>
      <trkpt lat="45.39928" lon="5.96332">
        <ele>402.89</ele>
        <time>2013-09-01T16:09:05Z</time>
      </trkpt>
      <trkpt lat="45.39947" lon="5.96337">
        <ele>401.32</ele>
        <time>2013-09-01T16:09:13Z</time>
      </trkpt>
      <trkpt lat="45.39967" lon="5.96347">
        <ele>398.24</ele>
        <time>2013-09-01T16:09:19Z</time>
      </trkpt>
      <trkpt lat="45.39985" lon="5.96353">
        <ele>403.63</ele>
        <time>2013-09-01T16:09:24Z</time>
      </trkpt>
      <trkpt lat="45.40006" lon="5.96362">
        <ele>408.57</ele>
        <time>2013-09-01T16:09:30Z</time>
      </trkpt>
      <trkpt lat="45.4002" lon="5.96381">
        <ele>414.91</ele>
        <time>2013-09-01T16:09:35Z</time>
      </trkpt>
      <trkpt lat="45.40034" lon="5.96398">
        <ele>420.39</ele>
        <time>2013-09-01T16:09:41Z</time>
      </trkpt>
      <trkpt lat="45.40051" lon="5.96387">
        <ele>419.71</ele>
        <time>2013-09-01T16:09:47Z</time>
      </trkpt>
      <trkpt lat="45.40071" lon="5.96378">
        <ele>415.49</ele>
        <time>2013-09-01T16:09:53Z</time>
      </trkpt>
      <trkpt lat="45.40092" lon="5.96378">
        <ele>413.02</ele>
        <time>2013-09-01T16:09:59Z</time>
      </trkpt>
      <trkpt lat="45.40111" lon="5.96383">
        <ele>413.16</ele>
        <time>2013-09-01T16:10:04Z</time>
      </trkpt>
      <trkpt lat="45.40134" lon="5.96391">
        <ele>414.46</ele>
        <time>2013-09-01T16:10:09Z</time>
      </trkpt>
      <trkpt lat="45.40153" lon="5.96395">
        <ele>418.45</ele>
        <time>2013-09-01T16:10:13Z</time>
      </trkpt>
      <trkpt lat="45.40176" lon="5.96399">
        <ele>420.59</ele>
        <time>2013-09-01T16:10:18Z</time>
      </trkpt>
      <trkpt lat="45.40196" lon="5.96403">
        <ele>421.53</ele>
        <time>2013-09-01T16:10:23Z</time>
      </trkpt>
      <trkpt lat="45.40215" lon="5.96406">
        <ele>422.05</ele>
        <time>2013-09-01T16:10:28Z</time>
      </trkpt>
      <trkpt lat="45.40234" lon="5.96409">
        <ele>422.43</ele>
        <time>2013-09-01T16:10:33Z</time>
      </trkpt>
      <trkpt lat="45.40253" lon="5.96413">
        <ele>422.51</ele>
        <time>2013-09-01T16:10:38Z</time>
      </trkpt>
      <trkpt lat="45.40271" lon="5.96416">
        <ele>422.56</ele>
        <time>2013-09-01T16:10:43Z</time>
      </trkpt>
      <trkpt lat="45.4029" lon="5.96419">
        <ele>421.28</ele>
        <time>2013-09-01T16:10:48Z</time>
      </trkpt>
      <trkpt lat="45.40308" lon="5.96423">
        <ele>421.81</ele>
        <time>2013-09-01T16:10:53Z</time>
      </trkpt>
      <trkpt lat="45.40327" lon="5.96427">
        <ele>420.66</ele>
        <time>2013-09-01T16:10:58Z</time>
      </trkpt>
      <trkpt lat="45.40348" lon="5.96434">
        <ele>419</ele>
        <time>2013-09-01T16:11:04Z</time>
      </trkpt>
      <trkpt lat="45.40369" lon="5.96441">
        <ele>418.47</ele>
        <time>2013-09-01T16:11:09Z</time>
      </trkpt>
      <trkpt lat="45.40386" lon="5.96447">
        <ele>416.83</ele>
        <time>2013-09-01T16:11:13Z</time>
      </trkpt>
      <trkpt lat="45.40405" lon="5.96453">
        <ele>414.23</ele>
        <time>2013-09-01T16:11:17Z</time>
      </trkpt>
      <trkpt lat="45.40423" lon="5.96459">
        <ele>411.03</ele>
        <time>2013-09-01T16:11:21Z</time>
      </trkpt>
      <trkpt lat="45.40444" lon="5.96468">
        <ele>408.44</ele>
        <time>2013-09-01T16:11:25Z</time>
      </trkpt>
      <trkpt lat="45.40462" lon="5.96478">
        <ele>409.67</ele>
        <time>2013-09-01T16:11:29Z</time>
      </trkpt>
      <trkpt lat="45.4048" lon="5.96487">
        <ele>409.53</ele>
        <time>2013-09-01T16:11:33Z</time>
      </trkpt>
      <trkpt lat="45.40498" lon="5.96496">
        <ele>410.16</ele>
        <time>2013-09-01T16:11:37Z</time>
      </trkpt>
      <trkpt lat="45.40518" lon="5.96506">
        <ele>411.8</ele>
        <time>2013-09-01T16:11:42Z</time>
      </trkpt>
      <trkpt lat="45.40536" lon="5.96516">
        <ele>413.12</ele>
        <time>2013-09-01T16:11:47Z</time>
      </trkpt>
      <trkpt lat="45.40555" lon="5.96527">
        <ele>413.8</ele>
        <time>2013-09-01T16:11:53Z</time>
      </trkpt>
      <trkpt lat="45.40575" lon="5.96537">
        <ele>416.63</ele>
        <time>2013-09-01T16:12:00Z</time>
      </trkpt>
      <trkpt lat="45.40593" lon="5.96546">
        <ele>419.06</ele>
        <time>2013-09-01T16:12:06Z</time>
      </trkpt>
      <trkpt lat="45.40612" lon="5.96556">
        <ele>420.82</ele>
        <time>2013-09-01T16:12:13Z</time>
      </trkpt>
      <trkpt lat="45.40633" lon="5.96561">
        <ele>419.41</ele>
        <time>2013-09-01T16:12:19Z</time>
      </trkpt>
      <trkpt lat="45.40652" lon="5.9656">
        <ele>418.61</ele>
        <time>2013-09-01T16:12:24Z</time>
      </trkpt>
      <trkpt lat="45.40673" lon="5.96559">
        <ele>418.88</ele>
        <time>2013-09-01T16:12:29Z</time>
      </trkpt>
      <trkpt lat="45.40695" lon="5.96564">
        <ele>418.16</ele>
        <time>2013-09-01T16:12:34Z</time>
      </trkpt>
      <trkpt lat="45.40712" lon="5.96572">
        <ele>418.85</ele>
        <time>2013-09-01T16:12:38Z</time>
      </trkpt>
      <trkpt lat="45.40728" lon="5.96594">
        <ele>418.84</ele>
        <time>2013-09-01T16:12:43Z</time>
      </trkpt>
      <trkpt lat="45.40734" lon="5.96625">
        <ele>416.79</ele>
        <time>2013-09-01T16:12:48Z</time>
      </trkpt>
      <trkpt lat="45.40742" lon="5.96656">
        <ele>414.19</ele>
        <time>2013-09-01T16:12:52Z</time>
      </trkpt>
      <trkpt lat="45.40753" lon="5.96677">
        <ele>410.82</ele>
        <time>2013-09-01T16:12:55Z</time>
      </trkpt>
      <trkpt lat="45.40768" lon="5.96702">
        <ele>409.37</ele>
        <time>2013-09-01T16:12:58Z</time>
      </trkpt>
      <trkpt lat="45.40785" lon="5.96719">
        <ele>407.41</ele>
        <time>2013-09-01T16:13:01Z</time>
      </trkpt>
      <trkpt lat="45.40811" lon="5.96723">
        <ele>404.53</ele>
        <time>2013-09-01T16:13:04Z</time>
      </trkpt>
      <trkpt lat="45.4083" lon="5.96723">
        <ele>404.05</ele>
        <time>2013-09-01T16:13:06Z</time>
      </trkpt>
      <trkpt lat="45.40848" lon="5.96723">
        <ele>404.23</ele>
        <time>2013-09-01T16:13:08Z</time>
      </trkpt>
      <trkpt lat="45.40867" lon="5.96724">
        <ele>404.95</ele>
        <time>2013-09-01T16:13:10Z</time>
      </trkpt>
      <trkpt lat="45.40886" lon="5.96728">
        <ele>406.04</ele>
        <time>2013-09-01T16:13:12Z</time>
      </trkpt>
      <trkpt lat="45.40903" lon="5.96736">
        <ele>406.35</ele>
        <time>2013-09-01T16:13:14Z</time>
      </trkpt>
      <trkpt lat="45.4092" lon="5.96748">
        <ele>406.33</ele>
        <time>2013-09-01T16:13:16Z</time>
      </trkpt>
      <trkpt lat="45.40936" lon="5.96762">
        <ele>405.19</ele>
        <time>2013-09-01T16:13:18Z</time>
      </trkpt>
      <trkpt lat="45.40952" lon="5.96779">
        <ele>403.93</ele>
        <time>2013-09-01T16:13:20Z</time>
      </trkpt>
      <trkpt lat="45.40967" lon="5.96795">
        <ele>403.03</ele>
        <time>2013-09-01T16:13:22Z</time>
      </trkpt>
      <trkpt lat="45.40983" lon="5.96811">
        <ele>403.21</ele>
        <time>2013-09-01T16:13:24Z</time>
      </trkpt>
      <trkpt lat="45.40998" lon="5.96828">
        <ele>402.63</ele>
        <time>2013-09-01T16:13:26Z</time>
      </trkpt>
      <trkpt lat="45.41012" lon="5.96844">
        <ele>402.55</ele>
        <time>2013-09-01T16:13:28Z</time>
      </trkpt>
      <trkpt lat="45.41031" lon="5.96869">
        <ele>401.29</ele>
        <time>2013-09-01T16:13:31Z</time>
      </trkpt>
      <trkpt lat="45.41051" lon="5.96893">
        <ele>399.47</ele>
        <time>2013-09-01T16:13:34Z</time>
      </trkpt>
      <trkpt lat="45.41071" lon="5.96918">
        <ele>398.3</ele>
        <time>2013-09-01T16:13:37Z</time>
      </trkpt>
      <trkpt lat="45.41092" lon="5.96942">
        <ele>395.71</ele>
        <time>2013-09-01T16:13:40Z</time>
      </trkpt>
      <trkpt lat="45.4111" lon="5.96967">
        <ele>391.98</ele>
        <time>2013-09-01T16:13:43Z</time>
      </trkpt>
      <trkpt lat="45.41129" lon="5.96985">
        <ele>386.01</ele>
        <time>2013-09-01T16:13:46Z</time>
      </trkpt>
      <trkpt lat="45.41143" lon="5.97009">
        <ele>381.44</ele>
        <time>2013-09-01T16:13:49Z</time>
      </trkpt>
      <trkpt lat="45.41164" lon="5.97027">
        <ele>379.43</ele>
        <time>2013-09-01T16:13:52Z</time>
      </trkpt>
      <trkpt lat="45.41179" lon="5.9704">
        <ele>376.62</ele>
        <time>2013-09-01T16:13:54Z</time>
      </trkpt>
      <trkpt lat="45.41194" lon="5.97055">
        <ele>375.67</ele>
        <time>2013-09-01T16:13:56Z</time>
      </trkpt>
      <trkpt lat="45.41216" lon="5.97076">
        <ele>375.68</ele>
        <time>2013-09-01T16:13:59Z</time>
      </trkpt>
      <trkpt lat="45.41236" lon="5.97094">
        <ele>374.17</ele>
        <time>2013-09-01T16:14:02Z</time>
      </trkpt>
      <trkpt lat="45.41255" lon="5.97109">
        <ele>372.08</ele>
        <time>2013-09-01T16:14:05Z</time>
      </trkpt>
      <trkpt lat="45.41273" lon="5.97122">
        <ele>373.01</ele>
        <time>2013-09-01T16:14:08Z</time>
      </trkpt>
      <trkpt lat="45.41297" lon="5.97134">
        <ele>379.76</ele>
        <time>2013-09-01T16:14:11Z</time>
      </trkpt>
      <trkpt lat="45.41314" lon="5.97143">
        <ele>384.64</ele>
        <time>2013-09-01T16:14:14Z</time>
      </trkpt>
      <trkpt lat="45.41331" lon="5.97154">
        <ele>386.85</ele>
        <time>2013-09-01T16:14:18Z</time>
      </trkpt>
      <trkpt lat="45.41351" lon="5.97168">
        <ele>385.05</ele>
        <time>2013-09-01T16:14:23Z</time>
      </trkpt>
      <trkpt lat="45.41368" lon="5.97183">
        <ele>383.34</ele>
        <time>2013-09-01T16:14:28Z</time>
      </trkpt>
      <trkpt lat="45.41385" lon="5.97195">
        <ele>383.85</ele>
        <time>2013-09-01T16:14:32Z</time>
      </trkpt>
      <trkpt lat="45.41403" lon="5.97209">
        <ele>382.17</ele>
        <time>2013-09-01T16:14:36Z</time>
      </trkpt>
      <trkpt lat="45.41422" lon="5.97225">
        <ele>377.97</ele>
        <time>2013-09-01T16:14:40Z</time>
      </trkpt>
      <trkpt lat="45.41441" lon="5.97241">
        <ele>377.41</ele>
        <time>2013-09-01T16:14:44Z</time>
      </trkpt>
      <trkpt lat="45.4146" lon="5.97256">
        <ele>378.2</ele>
        <time>2013-09-01T16:14:48Z</time>
      </trkpt>
      <trkpt lat="45.41476" lon="5.97271">
        <ele>378.98</ele>
        <time>2013-09-01T16:14:51Z</time>
      </trkpt>
      <trkpt lat="45.41495" lon="5.97286">
        <ele>379.2</ele>
        <time>2013-09-01T16:14:55Z</time>
      </trkpt>
      <trkpt lat="45.41515" lon="5.97301">
        <ele>378.66</ele>
        <time>2013-09-01T16:14:59Z</time>
      </trkpt>
      <trkpt lat="45.41531" lon="5.97313">
        <ele>377.3</ele>
        <time>2013-09-01T16:15:02Z</time>
      </trkpt>
      <trkpt lat="45.4155" lon="5.97325">
        <ele>376.98</ele>
        <time>2013-09-01T16:15:05Z</time>
      </trkpt>
      <trkpt lat="45.41568" lon="5.97339">
        <ele>373.61</ele>
        <time>2013-09-01T16:15:09Z</time>
      </trkpt>
      <trkpt lat="45.41582" lon="5.97357">
        <ele>370.69</ele>
        <time>2013-09-01T16:15:12Z</time>
      </trkpt>
      <trkpt lat="45.41602" lon="5.9737">
        <ele>372.45</ele>
        <time>2013-09-01T16:15:15Z</time>
      </trkpt>
      <trkpt lat="45.4162" lon="5.97377">
        <ele>372.76</ele>
        <time>2013-09-01T16:15:17Z</time>
      </trkpt>
      <trkpt lat="45.41648" lon="5.97385">
        <ele>371.49</ele>
        <time>2013-09-01T16:15:20Z</time>
      </trkpt>
      <trkpt lat="45.41675" lon="5.97392">
        <ele>370.53</ele>
        <time>2013-09-01T16:15:22Z</time>
      </trkpt>
      <trkpt lat="45.417" lon="5.97402">
        <ele>368.81</ele>
        <time>2013-09-01T16:15:24Z</time>
      </trkpt>
      <trkpt lat="45.41722" lon="5.97414">
        <ele>367.34</ele>
        <time>2013-09-01T16:15:26Z</time>
      </trkpt>
      <trkpt lat="45.41742" lon="5.97427">
        <ele>366.95</ele>
        <time>2013-09-01T16:15:28Z</time>
      </trkpt>
      <trkpt lat="45.41759" lon="5.97438">
        <ele>366.92</ele>
        <time>2013-09-01T16:15:30Z</time>
      </trkpt>
      <trkpt lat="45.41785" lon="5.97452">
        <ele>365.27</ele>
        <time>2013-09-01T16:15:33Z</time>
      </trkpt>
      <trkpt lat="45.41802" lon="5.97461">
        <ele>362.54</ele>
        <time>2013-09-01T16:15:35Z</time>
      </trkpt>
      <trkpt lat="45.41826" lon="5.97472">
        <ele>360.09</ele>
        <time>2013-09-01T16:15:38Z</time>
      </trkpt>
      <trkpt lat="45.41851" lon="5.9748">
        <ele>358.06</ele>
        <time>2013-09-01T16:15:41Z</time>
      </trkpt>
      <trkpt lat="45.41877" lon="5.97487">
        <ele>355.67</ele>
        <time>2013-09-01T16:15:44Z</time>
      </trkpt>
      <trkpt lat="45.41896" lon="5.97491">
        <ele>354.08</ele>
        <time>2013-09-01T16:15:46Z</time>
      </trkpt>
      <trkpt lat="45.41915" lon="5.97501">
        <ele>354.36</ele>
        <time>2013-09-01T16:15:48Z</time>
      </trkpt>
      <trkpt lat="45.41933" lon="5.97512">
        <ele>353.46</ele>
        <time>2013-09-01T16:15:50Z</time>
      </trkpt>
      <trkpt lat="45.41951" lon="5.97522">
        <ele>351.02</ele>
        <time>2013-09-01T16:15:52Z</time>
      </trkpt>
      <trkpt lat="45.41969" lon="5.97532">
        <ele>348.52</ele>
        <time>2013-09-01T16:15:54Z</time>
      </trkpt>
      <trkpt lat="45.41987" lon="5.9754">
        <ele>346.93</ele>
        <time>2013-09-01T16:15:56Z</time>
      </trkpt>
      <trkpt lat="45.42005" lon="5.97549">
        <ele>346.97</ele>
        <time>2013-09-01T16:15:58Z</time>
      </trkpt>
      <trkpt lat="45.42022" lon="5.97557">
        <ele>347.62</ele>
        <time>2013-09-01T16:16:00Z</time>
      </trkpt>
      <trkpt lat="45.42047" lon="5.97568">
        <ele>346.89</ele>
        <time>2013-09-01T16:16:03Z</time>
      </trkpt>
      <trkpt lat="45.42069" lon="5.97583">
        <ele>347.18</ele>
        <time>2013-09-01T16:16:06Z</time>
      </trkpt>
      <trkpt lat="45.4209" lon="5.97597">
        <ele>348.19</ele>
        <time>2013-09-01T16:16:09Z</time>
      </trkpt>
      <trkpt lat="45.42106" lon="5.97609">
        <ele>350.51</ele>
        <time>2013-09-01T16:16:12Z</time>
      </trkpt>
      <trkpt lat="45.42127" lon="5.97623">
        <ele>351.63</ele>
        <time>2013-09-01T16:16:16Z</time>
      </trkpt>
      <trkpt lat="45.42145" lon="5.97636">
        <ele>351.99</ele>
        <time>2013-09-01T16:16:20Z</time>
      </trkpt>
      <trkpt lat="45.42166" lon="5.97649">
        <ele>350.38</ele>
        <time>2013-09-01T16:16:25Z</time>
      </trkpt>
      <trkpt lat="45.42185" lon="5.9766">
        <ele>349.5</ele>
        <time>2013-09-01T16:16:30Z</time>
      </trkpt>
      <trkpt lat="45.42203" lon="5.97669">
        <ele>348.6</ele>
        <time>2013-09-01T16:16:34Z</time>
      </trkpt>
      <trkpt lat="45.42221" lon="5.9768">
        <ele>349.04</ele>
        <time>2013-09-01T16:16:38Z</time>
      </trkpt>
      <trkpt lat="45.42242" lon="5.97694">
        <ele>346.79</ele>
        <time>2013-09-01T16:16:42Z</time>
      </trkpt>
      <trkpt lat="45.42264" lon="5.97706">
        <ele>345.84</ele>
        <time>2013-09-01T16:16:46Z</time>
      </trkpt>
      <trkpt lat="45.42282" lon="5.97719">
        <ele>346.11</ele>
        <time>2013-09-01T16:16:50Z</time>
      </trkpt>
      <trkpt lat="45.423" lon="5.97731">
        <ele>345.95</ele>
        <time>2013-09-01T16:16:54Z</time>
      </trkpt>
      <trkpt lat="45.42319" lon="5.97746">
        <ele>345.9</ele>
        <time>2013-09-01T16:16:59Z</time>
      </trkpt>
      <trkpt lat="45.42336" lon="5.97761">
        <ele>344.87</ele>
        <time>2013-09-01T16:17:04Z</time>
      </trkpt>
      <trkpt lat="45.42353" lon="5.97774">
        <ele>345.73</ele>
        <time>2013-09-01T16:17:09Z</time>
      </trkpt>
      <trkpt lat="45.42368" lon="5.97788">
        <ele>343.23</ele>
        <time>2013-09-01T16:17:13Z</time>
      </trkpt>
      <trkpt lat="45.42388" lon="5.97799">
        <ele>340.49</ele>
        <time>2013-09-01T16:17:17Z</time>
      </trkpt>
      <trkpt lat="45.42408" lon="5.97807">
        <ele>339.1</ele>
        <time>2013-09-01T16:17:20Z</time>
      </trkpt>
      <trkpt lat="45.42428" lon="5.97816">
        <ele>339.16</ele>
        <time>2013-09-01T16:17:23Z</time>
      </trkpt>
      <trkpt lat="45.42447" lon="5.97824">
        <ele>337.22</ele>
        <time>2013-09-01T16:17:26Z</time>
      </trkpt>
      <trkpt lat="45.42466" lon="5.97828">
        <ele>333.91</ele>
        <time>2013-09-01T16:17:29Z</time>
      </trkpt>
      <trkpt lat="45.42487" lon="5.97831">
        <ele>329.92</ele>
        <time>2013-09-01T16:17:32Z</time>
      </trkpt>
      <trkpt lat="45.42508" lon="5.97835">
        <ele>326.79</ele>
        <time>2013-09-01T16:17:35Z</time>
      </trkpt>
      <trkpt lat="45.42533" lon="5.97839">
        <ele>325.43</ele>
        <time>2013-09-01T16:17:38Z</time>
      </trkpt>
      <trkpt lat="45.42554" lon="5.97851">
        <ele>322.11</ele>
        <time>2013-09-01T16:17:41Z</time>
      </trkpt>
      <trkpt lat="45.42573" lon="5.97855">
        <ele>321.38</ele>
        <time>2013-09-01T16:17:43Z</time>
      </trkpt>
      <trkpt lat="45.42595" lon="5.97861">
        <ele>320.51</ele>
        <time>2013-09-01T16:17:46Z</time>
      </trkpt>
      <trkpt lat="45.42615" lon="5.9787">
        <ele>317.63</ele>
        <time>2013-09-01T16:17:49Z</time>
      </trkpt>
      <trkpt lat="45.42635" lon="5.9788">
        <ele>316.29</ele>
        <time>2013-09-01T16:17:52Z</time>
      </trkpt>
      <trkpt lat="45.42652" lon="5.97893">
        <ele>313.75</ele>
        <time>2013-09-01T16:17:55Z</time>
      </trkpt>
      <trkpt lat="45.4267" lon="5.97909">
        <ele>312.17</ele>
        <time>2013-09-01T16:17:58Z</time>
      </trkpt>
      <trkpt lat="45.42689" lon="5.97926">
        <ele>313.17</ele>
        <time>2013-09-01T16:18:01Z</time>
      </trkpt>
      <trkpt lat="45.42706" lon="5.9794">
        <ele>316.31</ele>
        <time>2013-09-01T16:18:04Z</time>
      </trkpt>
      <trkpt lat="45.42724" lon="5.97954">
        <ele>318.37</ele>
        <time>2013-09-01T16:18:07Z</time>
      </trkpt>
      <trkpt lat="45.42742" lon="5.97968">
        <ele>320.98</ele>
        <time>2013-09-01T16:18:10Z</time>
      </trkpt>
      <trkpt lat="45.42759" lon="5.9798">
        <ele>321.03</ele>
        <time>2013-09-01T16:18:13Z</time>
      </trkpt>
      <trkpt lat="45.42775" lon="5.97996">
        <ele>321.21</ele>
        <time>2013-09-01T16:18:16Z</time>
      </trkpt>
      <trkpt lat="45.4279" lon="5.9801">
        <ele>319.92</ele>
        <time>2013-09-01T16:18:19Z</time>
      </trkpt>
    </trkseg>
  </trk>
</gpx>